<?xml version="1.0" encoding="UTF-8" standalone="no" ?>
<gpx xmlns="http://www.topografix.com/GPX/1/1" xmlns:xsi="http://www.w3.org/2001/XMLSchema-instance" xsi:schemaLocation="http://www.topografix.com/GPX/1/1 http://www.topografix.com/GPX/1/1/gpx.xsd" version="1.1" creator="VisuGPX - https://www.visugpx.com">
  <metadata>
    <name>boucle charmant som NW</name>
    <desc><![CDATA[au depart des cottaves, montée par l\\\'ancienne piste puis charmant som et couloir NW]]></desc>
  </metadata>
  <trk>
    <name><![CDATA[2013-02-08T09_3]]></name>
    <trkseg>
      <trkpt lat="45.30847" lon="5.76686">
        <ele>1211.472</ele>
        <time>2013-02-08T09:31:29Z</time>
      </trkpt>
      <trkpt lat="45.30845" lon="5.76681">
        <ele>1211.472</ele>
        <time>2013-02-08T09:31:30Z</time>
      </trkpt>
      <trkpt lat="45.30839" lon="5.76664">
        <ele>1213.999</ele>
        <time>2013-02-08T09:31:37Z</time>
      </trkpt>
      <trkpt lat="45.30838" lon="5.76653">
        <ele>1215.305</ele>
        <time>2013-02-08T09:31:45Z</time>
      </trkpt>
      <trkpt lat="45.30839" lon="5.76648">
        <ele>1215.442</ele>
        <time>2013-02-08T09:31:51Z</time>
      </trkpt>
      <trkpt lat="45.3084" lon="5.76647">
        <ele>1216.596</ele>
        <time>2013-02-08T09:31:52Z</time>
      </trkpt>
      <trkpt lat="45.30843" lon="5.76643">
        <ele>1219.217</ele>
        <time>2013-02-08T09:31:59Z</time>
      </trkpt>
      <trkpt lat="45.30844" lon="5.76635">
        <ele>1219.599</ele>
        <time>2013-02-08T09:32:04Z</time>
      </trkpt>
      <trkpt lat="45.30846" lon="5.76631">
        <ele>1222.428</ele>
        <time>2013-02-08T09:32:10Z</time>
      </trkpt>
      <trkpt lat="45.30839" lon="5.76619">
        <ele>1223.895</ele>
        <time>2013-02-08T09:32:24Z</time>
      </trkpt>
      <trkpt lat="45.30823" lon="5.76606">
        <ele>1228.141</ele>
        <time>2013-02-08T09:32:40Z</time>
      </trkpt>
      <trkpt lat="45.30821" lon="5.76604">
        <ele>1229.703</ele>
        <time>2013-02-08T09:32:47Z</time>
      </trkpt>
      <trkpt lat="45.3082" lon="5.76603">
        <ele>1232.149</ele>
        <time>2013-02-08T09:32:55Z</time>
      </trkpt>
      <trkpt lat="45.30806" lon="5.76584">
        <ele>1235.724</ele>
        <time>2013-02-08T09:33:09Z</time>
      </trkpt>
      <trkpt lat="45.30808" lon="5.76573">
        <ele>1237.014</ele>
        <time>2013-02-08T09:33:14Z</time>
      </trkpt>
      <trkpt lat="45.30812" lon="5.76569">
        <ele>1239.021</ele>
        <time>2013-02-08T09:33:21Z</time>
      </trkpt>
      <trkpt lat="45.30817" lon="5.7656">
        <ele>1240.63</ele>
        <time>2013-02-08T09:33:27Z</time>
      </trkpt>
      <trkpt lat="45.30819" lon="5.76556">
        <ele>1242.207</ele>
        <time>2013-02-08T09:33:33Z</time>
      </trkpt>
      <trkpt lat="45.3082" lon="5.76538">
        <ele>1245.673</ele>
        <time>2013-02-08T09:33:52Z</time>
      </trkpt>
      <trkpt lat="45.30822" lon="5.76533">
        <ele>1246.531</ele>
        <time>2013-02-08T09:33:59Z</time>
      </trkpt>
      <trkpt lat="45.30824" lon="5.76538">
        <ele>1247.437</ele>
        <time>2013-02-08T09:34:05Z</time>
      </trkpt>
      <trkpt lat="45.30833" lon="5.76521">
        <ele>1250.12</ele>
        <time>2013-02-08T09:34:22Z</time>
      </trkpt>
      <trkpt lat="45.30837" lon="5.7651">
        <ele>1251.332</ele>
        <time>2013-02-08T09:34:29Z</time>
      </trkpt>
      <trkpt lat="45.30844" lon="5.76498">
        <ele>1252.718</ele>
        <time>2013-02-08T09:34:36Z</time>
      </trkpt>
      <trkpt lat="45.30847" lon="5.76496">
        <ele>1253.027</ele>
        <time>2013-02-08T09:34:38Z</time>
      </trkpt>
      <trkpt lat="45.30852" lon="5.76488">
        <ele>1254.066</ele>
        <time>2013-02-08T09:34:44Z</time>
      </trkpt>
      <trkpt lat="45.30853" lon="5.76484">
        <ele>1255.32</ele>
        <time>2013-02-08T09:34:50Z</time>
      </trkpt>
      <trkpt lat="45.30859" lon="5.76472">
        <ele>1256.699</ele>
        <time>2013-02-08T09:34:57Z</time>
      </trkpt>
      <trkpt lat="45.30864" lon="5.76467">
        <ele>1257.724</ele>
        <time>2013-02-08T09:35:03Z</time>
      </trkpt>
      <trkpt lat="45.30876" lon="5.76452">
        <ele>1260.329</ele>
        <time>2013-02-08T09:35:16Z</time>
      </trkpt>
      <trkpt lat="45.30882" lon="5.76445">
        <ele>1262.678</ele>
        <time>2013-02-08T09:35:27Z</time>
      </trkpt>
      <trkpt lat="45.30884" lon="5.76436">
        <ele>1264.155</ele>
        <time>2013-02-08T09:35:33Z</time>
      </trkpt>
      <trkpt lat="45.30885" lon="5.76434">
        <ele>1264.431</ele>
        <time>2013-02-08T09:35:34Z</time>
      </trkpt>
      <trkpt lat="45.3088" lon="5.76428">
        <ele>1266.204</ele>
        <time>2013-02-08T09:35:41Z</time>
      </trkpt>
      <trkpt lat="45.30862" lon="5.76422">
        <ele>1269.891</ele>
        <time>2013-02-08T09:35:56Z</time>
      </trkpt>
      <trkpt lat="45.30857" lon="5.76416">
        <ele>1271.205</ele>
        <time>2013-02-08T09:36:02Z</time>
      </trkpt>
      <trkpt lat="45.30857" lon="5.76409">
        <ele>1271.944</ele>
        <time>2013-02-08T09:36:05Z</time>
      </trkpt>
      <trkpt lat="45.30862" lon="5.76402">
        <ele>1273.127</ele>
        <time>2013-02-08T09:36:10Z</time>
      </trkpt>
      <trkpt lat="45.30855" lon="5.76403">
        <ele>1257.937</ele>
        <time>2013-02-08T09:36:19Z</time>
      </trkpt>
      <trkpt lat="45.30855" lon="5.76402">
        <ele>1258.059</ele>
        <time>2013-02-08T09:36:20Z</time>
      </trkpt>
      <trkpt lat="45.30843" lon="5.76389">
        <ele>1260.925</ele>
        <time>2013-02-08T09:36:42Z</time>
      </trkpt>
      <trkpt lat="45.3084" lon="5.76385">
        <ele>1261.811</ele>
        <time>2013-02-08T09:36:49Z</time>
      </trkpt>
      <trkpt lat="45.30845" lon="5.76372">
        <ele>1264.434</ele>
        <time>2013-02-08T09:37:08Z</time>
      </trkpt>
      <trkpt lat="45.30839" lon="5.76361">
        <ele>1265.38</ele>
        <time>2013-02-08T09:37:15Z</time>
      </trkpt>
      <trkpt lat="45.30834" lon="5.76347">
        <ele>1266.672</ele>
        <time>2013-02-08T09:37:22Z</time>
      </trkpt>
      <trkpt lat="45.30831" lon="5.76332">
        <ele>1267.426</ele>
        <time>2013-02-08T09:37:30Z</time>
      </trkpt>
      <trkpt lat="45.30805" lon="5.76315">
        <ele>1274.303</ele>
        <time>2013-02-08T09:38:23Z</time>
      </trkpt>
      <trkpt lat="45.30795" lon="5.7631">
        <ele>1275.458</ele>
        <time>2013-02-08T09:38:31Z</time>
      </trkpt>
      <trkpt lat="45.30772" lon="5.76296">
        <ele>1279.382</ele>
        <time>2013-02-08T09:39:00Z</time>
      </trkpt>
      <trkpt lat="45.30773" lon="5.76287">
        <ele>1279.892</ele>
        <time>2013-02-08T09:39:05Z</time>
      </trkpt>
      <trkpt lat="45.30772" lon="5.76251">
        <ele>1281.707</ele>
        <time>2013-02-08T09:39:19Z</time>
      </trkpt>
      <trkpt lat="45.30776" lon="5.76214">
        <ele>1282.397</ele>
        <time>2013-02-08T09:39:26Z</time>
      </trkpt>
      <trkpt lat="45.30771" lon="5.762">
        <ele>1283.216</ele>
        <time>2013-02-08T09:39:32Z</time>
      </trkpt>
      <trkpt lat="45.30764" lon="5.76194">
        <ele>1284.355</ele>
        <time>2013-02-08T09:39:39Z</time>
      </trkpt>
      <trkpt lat="45.30757" lon="5.76189">
        <ele>1285.319</ele>
        <time>2013-02-08T09:39:45Z</time>
      </trkpt>
      <trkpt lat="45.3075" lon="5.76183">
        <ele>1287.558</ele>
        <time>2013-02-08T09:39:54Z</time>
      </trkpt>
      <trkpt lat="45.30745" lon="5.7617">
        <ele>1289.108</ele>
        <time>2013-02-08T09:40:01Z</time>
      </trkpt>
      <trkpt lat="45.30745" lon="5.76167">
        <ele>1290.394</ele>
        <time>2013-02-08T09:40:06Z</time>
      </trkpt>
      <trkpt lat="45.30747" lon="5.76163">
        <ele>1291.88</ele>
        <time>2013-02-08T09:40:12Z</time>
      </trkpt>
      <trkpt lat="45.30744" lon="5.7616">
        <ele>1293.689</ele>
        <time>2013-02-08T09:40:20Z</time>
      </trkpt>
      <trkpt lat="45.30733" lon="5.7615">
        <ele>1299.439</ele>
        <time>2013-02-08T09:40:44Z</time>
      </trkpt>
      <trkpt lat="45.30735" lon="5.7614">
        <ele>1301.151</ele>
        <time>2013-02-08T09:40:52Z</time>
      </trkpt>
      <trkpt lat="45.30719" lon="5.76127">
        <ele>1306.921</ele>
        <time>2013-02-08T09:41:17Z</time>
      </trkpt>
      <trkpt lat="45.30717" lon="5.76119">
        <ele>1308.118</ele>
        <time>2013-02-08T09:41:22Z</time>
      </trkpt>
      <trkpt lat="45.30712" lon="5.76115">
        <ele>1309.142</ele>
        <time>2013-02-08T09:41:27Z</time>
      </trkpt>
      <trkpt lat="45.30708" lon="5.76116">
        <ele>1310.615</ele>
        <time>2013-02-08T09:41:33Z</time>
      </trkpt>
      <trkpt lat="45.30702" lon="5.76109">
        <ele>1312.294</ele>
        <time>2013-02-08T09:41:41Z</time>
      </trkpt>
      <trkpt lat="45.30701" lon="5.76098">
        <ele>1313.495</ele>
        <time>2013-02-08T09:41:48Z</time>
      </trkpt>
      <trkpt lat="45.307" lon="5.76095">
        <ele>1315.196</ele>
        <time>2013-02-08T09:41:55Z</time>
      </trkpt>
      <trkpt lat="45.30684" lon="5.76083">
        <ele>1319.129</ele>
        <time>2013-02-08T09:42:12Z</time>
      </trkpt>
      <trkpt lat="45.30681" lon="5.76072">
        <ele>1320.549</ele>
        <time>2013-02-08T09:42:18Z</time>
      </trkpt>
      <trkpt lat="45.30677" lon="5.76077">
        <ele>1321.447</ele>
        <time>2013-02-08T09:42:22Z</time>
      </trkpt>
      <trkpt lat="45.30674" lon="5.76072">
        <ele>1322.606</ele>
        <time>2013-02-08T09:42:27Z</time>
      </trkpt>
      <trkpt lat="45.30672" lon="5.76064">
        <ele>1323.78</ele>
        <time>2013-02-08T09:42:32Z</time>
      </trkpt>
      <trkpt lat="45.3067" lon="5.76073">
        <ele>1325.878</ele>
        <time>2013-02-08T09:42:41Z</time>
      </trkpt>
      <trkpt lat="45.30667" lon="5.76079">
        <ele>1327.958</ele>
        <time>2013-02-08T09:42:50Z</time>
      </trkpt>
      <trkpt lat="45.30649" lon="5.76051">
        <ele>1335.716</ele>
        <time>2013-02-08T09:43:22Z</time>
      </trkpt>
      <trkpt lat="45.30653" lon="5.76043">
        <ele>1341.006</ele>
        <time>2013-02-08T09:43:43Z</time>
      </trkpt>
      <trkpt lat="45.30638" lon="5.76044">
        <ele>1344.251</ele>
        <time>2013-02-08T09:43:57Z</time>
      </trkpt>
      <trkpt lat="45.30631" lon="5.76042">
        <ele>1345.965</ele>
        <time>2013-02-08T09:44:06Z</time>
      </trkpt>
      <trkpt lat="45.30632" lon="5.76034">
        <ele>1347.787</ele>
        <time>2013-02-08T09:44:14Z</time>
      </trkpt>
      <trkpt lat="45.30637" lon="5.76022">
        <ele>1351.326</ele>
        <time>2013-02-08T09:44:28Z</time>
      </trkpt>
      <trkpt lat="45.30633" lon="5.76005">
        <ele>1356.819</ele>
        <time>2013-02-08T09:44:52Z</time>
      </trkpt>
      <trkpt lat="45.3063" lon="5.75998">
        <ele>1358.096</ele>
        <time>2013-02-08T09:44:58Z</time>
      </trkpt>
      <trkpt lat="45.30628" lon="5.75997">
        <ele>1359.864</ele>
        <time>2013-02-08T09:45:06Z</time>
      </trkpt>
      <trkpt lat="45.30627" lon="5.75995">
        <ele>1361.747</ele>
        <time>2013-02-08T09:45:14Z</time>
      </trkpt>
      <trkpt lat="45.30627" lon="5.75992">
        <ele>1363.129</ele>
        <time>2013-02-08T09:45:21Z</time>
      </trkpt>
      <trkpt lat="45.30629" lon="5.7599">
        <ele>1364.407</ele>
        <time>2013-02-08T09:45:27Z</time>
      </trkpt>
      <trkpt lat="45.3063" lon="5.75984">
        <ele>1369.907</ele>
        <time>2013-02-08T09:45:51Z</time>
      </trkpt>
      <trkpt lat="45.30627" lon="5.75975">
        <ele>1371.958</ele>
        <time>2013-02-08T09:45:59Z</time>
      </trkpt>
      <trkpt lat="45.30622" lon="5.75961">
        <ele>1376.593</ele>
        <time>2013-02-08T09:46:19Z</time>
      </trkpt>
      <trkpt lat="45.30619" lon="5.75957">
        <ele>1378.332</ele>
        <time>2013-02-08T09:46:26Z</time>
      </trkpt>
      <trkpt lat="45.3062" lon="5.75954">
        <ele>1379.945</ele>
        <time>2013-02-08T09:46:34Z</time>
      </trkpt>
      <trkpt lat="45.30619" lon="5.75954">
        <ele>1381.113</ele>
        <time>2013-02-08T09:46:40Z</time>
      </trkpt>
      <trkpt lat="45.30619" lon="5.75952">
        <ele>1382.289</ele>
        <time>2013-02-08T09:46:45Z</time>
      </trkpt>
      <trkpt lat="45.30619" lon="5.75951">
        <ele>1383.498</ele>
        <time>2013-02-08T09:46:51Z</time>
      </trkpt>
      <trkpt lat="45.30622" lon="5.75945">
        <ele>1384.773</ele>
        <time>2013-02-08T09:46:57Z</time>
      </trkpt>
      <trkpt lat="45.30624" lon="5.75943">
        <ele>1387.013</ele>
        <time>2013-02-08T09:47:06Z</time>
      </trkpt>
      <trkpt lat="45.30633" lon="5.7592">
        <ele>1394.447</ele>
        <time>2013-02-08T09:47:38Z</time>
      </trkpt>
      <trkpt lat="45.30627" lon="5.7591">
        <ele>1404.606</ele>
        <time>2013-02-08T09:48:20Z</time>
      </trkpt>
      <trkpt lat="45.30618" lon="5.75905">
        <ele>1406.488</ele>
        <time>2013-02-08T09:48:29Z</time>
      </trkpt>
      <trkpt lat="45.30611" lon="5.75895">
        <ele>1407.982</ele>
        <time>2013-02-08T09:48:36Z</time>
      </trkpt>
      <trkpt lat="45.30605" lon="5.75891">
        <ele>1410.158</ele>
        <time>2013-02-08T09:48:46Z</time>
      </trkpt>
      <trkpt lat="45.30608" lon="5.75889">
        <ele>1411.496</ele>
        <time>2013-02-08T09:48:53Z</time>
      </trkpt>
      <trkpt lat="45.30614" lon="5.75897">
        <ele>1417.199</ele>
        <time>2013-02-08T09:49:17Z</time>
      </trkpt>
      <trkpt lat="45.30601" lon="5.75867">
        <ele>1426.114</ele>
        <time>2013-02-08T09:49:54Z</time>
      </trkpt>
      <trkpt lat="45.30585" lon="5.75852">
        <ele>1428.53</ele>
        <time>2013-02-08T09:50:38Z</time>
      </trkpt>
      <trkpt lat="45.30583" lon="5.7585">
        <ele>1429.371</ele>
        <time>2013-02-08T09:50:57Z</time>
      </trkpt>
      <trkpt lat="45.30583" lon="5.75846">
        <ele>1431.415</ele>
        <time>2013-02-08T09:51:00Z</time>
      </trkpt>
      <trkpt lat="45.30583" lon="5.75841">
        <ele>1429.543</ele>
        <time>2013-02-08T09:51:05Z</time>
      </trkpt>
      <trkpt lat="45.30581" lon="5.75833">
        <ele>1431.354</ele>
        <time>2013-02-08T09:51:14Z</time>
      </trkpt>
      <trkpt lat="45.30581" lon="5.7583">
        <ele>1434.367</ele>
        <time>2013-02-08T09:51:18Z</time>
      </trkpt>
      <trkpt lat="45.30582" lon="5.75823">
        <ele>1437.481</ele>
        <time>2013-02-08T09:51:25Z</time>
      </trkpt>
      <trkpt lat="45.30581" lon="5.75821">
        <ele>1435.621</ele>
        <time>2013-02-08T09:51:29Z</time>
      </trkpt>
      <trkpt lat="45.30581" lon="5.7582">
        <ele>1434.461</ele>
        <time>2013-02-08T09:51:31Z</time>
      </trkpt>
      <trkpt lat="45.30577" lon="5.7581">
        <ele>1440.071</ele>
        <time>2013-02-08T09:51:39Z</time>
      </trkpt>
      <trkpt lat="45.30576" lon="5.75809">
        <ele>1440.794</ele>
        <time>2013-02-08T09:51:41Z</time>
      </trkpt>
      <trkpt lat="45.30575" lon="5.75805">
        <ele>1440.248</ele>
        <time>2013-02-08T09:51:47Z</time>
      </trkpt>
      <trkpt lat="45.3057" lon="5.75803">
        <ele>1447.015</ele>
        <time>2013-02-08T09:51:56Z</time>
      </trkpt>
      <trkpt lat="45.30569" lon="5.75803">
        <ele>1446.776</ele>
        <time>2013-02-08T09:51:57Z</time>
      </trkpt>
      <trkpt lat="45.30569" lon="5.75802">
        <ele>1447.48</ele>
        <time>2013-02-08T09:52:06Z</time>
      </trkpt>
      <trkpt lat="45.30569" lon="5.75804">
        <ele>1449.635</ele>
        <time>2013-02-08T09:52:12Z</time>
      </trkpt>
      <trkpt lat="45.30569" lon="5.75805">
        <ele>1446.971</ele>
        <time>2013-02-08T09:52:14Z</time>
      </trkpt>
      <trkpt lat="45.3057" lon="5.75804">
        <ele>1450.866</ele>
        <time>2013-02-08T09:52:17Z</time>
      </trkpt>
      <trkpt lat="45.3057" lon="5.75803">
        <ele>1448.669</ele>
        <time>2013-02-08T09:52:20Z</time>
      </trkpt>
      <trkpt lat="45.30571" lon="5.75803">
        <ele>1451.49</ele>
        <time>2013-02-08T09:52:23Z</time>
      </trkpt>
      <trkpt lat="45.30573" lon="5.758">
        <ele>1452.788</ele>
        <time>2013-02-08T09:52:30Z</time>
      </trkpt>
      <trkpt lat="45.30574" lon="5.75797">
        <ele>1451.416</ele>
        <time>2013-02-08T09:52:34Z</time>
      </trkpt>
      <trkpt lat="45.30576" lon="5.75796">
        <ele>1455.7</ele>
        <time>2013-02-08T09:52:39Z</time>
      </trkpt>
      <trkpt lat="45.30574" lon="5.75793">
        <ele>1455</ele>
        <time>2013-02-08T09:52:44Z</time>
      </trkpt>
      <trkpt lat="45.30572" lon="5.7579">
        <ele>1456.918</ele>
        <time>2013-02-08T09:52:51Z</time>
      </trkpt>
      <trkpt lat="45.30569" lon="5.75785">
        <ele>1456.58</ele>
        <time>2013-02-08T09:52:57Z</time>
      </trkpt>
      <trkpt lat="45.30573" lon="5.75774">
        <ele>1461.871</ele>
        <time>2013-02-08T09:53:15Z</time>
      </trkpt>
      <trkpt lat="45.30564" lon="5.75752">
        <ele>1466.94</ele>
        <time>2013-02-08T09:53:38Z</time>
      </trkpt>
      <trkpt lat="45.30562" lon="5.75742">
        <ele>1468.658</ele>
        <time>2013-02-08T09:53:49Z</time>
      </trkpt>
      <trkpt lat="45.30559" lon="5.75738">
        <ele>1472.996</ele>
        <time>2013-02-08T09:53:58Z</time>
      </trkpt>
      <trkpt lat="45.30558" lon="5.75732">
        <ele>1474.387</ele>
        <time>2013-02-08T09:54:05Z</time>
      </trkpt>
      <trkpt lat="45.30558" lon="5.75727">
        <ele>1476.358</ele>
        <time>2013-02-08T09:54:12Z</time>
      </trkpt>
      <trkpt lat="45.30558" lon="5.75725">
        <ele>1476.121</ele>
        <time>2013-02-08T09:54:18Z</time>
      </trkpt>
      <trkpt lat="45.30557" lon="5.75717">
        <ele>1480.103</ele>
        <time>2013-02-08T09:54:30Z</time>
      </trkpt>
      <trkpt lat="45.30557" lon="5.75716">
        <ele>1478.964</ele>
        <time>2013-02-08T09:54:32Z</time>
      </trkpt>
      <trkpt lat="45.30558" lon="5.75712">
        <ele>1482.111</ele>
        <time>2013-02-08T09:54:38Z</time>
      </trkpt>
      <trkpt lat="45.30558" lon="5.75708">
        <ele>1484.071</ele>
        <time>2013-02-08T09:54:43Z</time>
      </trkpt>
      <trkpt lat="45.30558" lon="5.75706">
        <ele>1482.651</ele>
        <time>2013-02-08T09:54:46Z</time>
      </trkpt>
      <trkpt lat="45.30559" lon="5.75699">
        <ele>1485.506</ele>
        <time>2013-02-08T09:54:55Z</time>
      </trkpt>
      <trkpt lat="45.3056" lon="5.75691">
        <ele>1485.81</ele>
        <time>2013-02-08T09:55:03Z</time>
      </trkpt>
      <trkpt lat="45.30561" lon="5.75685">
        <ele>1488.941</ele>
        <time>2013-02-08T09:55:09Z</time>
      </trkpt>
      <trkpt lat="45.30562" lon="5.75673">
        <ele>1489.754</ele>
        <time>2013-02-08T09:55:21Z</time>
      </trkpt>
      <trkpt lat="45.30561" lon="5.75662">
        <ele>1494.297</ele>
        <time>2013-02-08T09:55:32Z</time>
      </trkpt>
      <trkpt lat="45.3056" lon="5.75657">
        <ele>1496.275</ele>
        <time>2013-02-08T09:55:38Z</time>
      </trkpt>
      <trkpt lat="45.30558" lon="5.75652">
        <ele>1496.582</ele>
        <time>2013-02-08T09:55:46Z</time>
      </trkpt>
      <trkpt lat="45.30554" lon="5.75648">
        <ele>1498.48</ele>
        <time>2013-02-08T09:55:53Z</time>
      </trkpt>
      <trkpt lat="45.30552" lon="5.75646">
        <ele>1499.42</ele>
        <time>2013-02-08T09:55:57Z</time>
      </trkpt>
      <trkpt lat="45.30549" lon="5.75639">
        <ele>1501.412</ele>
        <time>2013-02-08T09:56:06Z</time>
      </trkpt>
      <trkpt lat="45.30546" lon="5.75633">
        <ele>1503.165</ele>
        <time>2013-02-08T09:56:13Z</time>
      </trkpt>
      <trkpt lat="45.30542" lon="5.75626">
        <ele>1505.215</ele>
        <time>2013-02-08T09:56:24Z</time>
      </trkpt>
      <trkpt lat="45.30542" lon="5.75618">
        <ele>1506.226</ele>
        <time>2013-02-08T09:56:29Z</time>
      </trkpt>
      <trkpt lat="45.30539" lon="5.75608">
        <ele>1508.236</ele>
        <time>2013-02-08T09:56:40Z</time>
      </trkpt>
      <trkpt lat="45.30538" lon="5.75606">
        <ele>1509.792</ele>
        <time>2013-02-08T09:56:46Z</time>
      </trkpt>
      <trkpt lat="45.30534" lon="5.75606">
        <ele>1512.684</ele>
        <time>2013-02-08T09:56:56Z</time>
      </trkpt>
      <trkpt lat="45.3053" lon="5.75613">
        <ele>1513.922</ele>
        <time>2013-02-08T09:57:04Z</time>
      </trkpt>
      <trkpt lat="45.30526" lon="5.75613">
        <ele>1515.509</ele>
        <time>2013-02-08T09:57:11Z</time>
      </trkpt>
      <trkpt lat="45.30523" lon="5.75606">
        <ele>1516.546</ele>
        <time>2013-02-08T09:57:17Z</time>
      </trkpt>
      <trkpt lat="45.30519" lon="5.75604">
        <ele>1517.197</ele>
        <time>2013-02-08T09:57:22Z</time>
      </trkpt>
      <trkpt lat="45.30515" lon="5.75593">
        <ele>1518.154</ele>
        <time>2013-02-08T09:57:31Z</time>
      </trkpt>
      <trkpt lat="45.30507" lon="5.75587">
        <ele>1520.216</ele>
        <time>2013-02-08T09:57:42Z</time>
      </trkpt>
      <trkpt lat="45.305" lon="5.75574">
        <ele>1522.588</ele>
        <time>2013-02-08T09:57:52Z</time>
      </trkpt>
      <trkpt lat="45.30498" lon="5.7557">
        <ele>1524.553</ele>
        <time>2013-02-08T09:58:01Z</time>
      </trkpt>
      <trkpt lat="45.30497" lon="5.75573">
        <ele>1526.799</ele>
        <time>2013-02-08T09:58:10Z</time>
      </trkpt>
      <trkpt lat="45.30489" lon="5.75562">
        <ele>1532.846</ele>
        <time>2013-02-08T09:58:35Z</time>
      </trkpt>
      <trkpt lat="45.30487" lon="5.7556">
        <ele>1535.475</ele>
        <time>2013-02-08T09:58:44Z</time>
      </trkpt>
      <trkpt lat="45.30485" lon="5.75554">
        <ele>1537.208</ele>
        <time>2013-02-08T09:58:52Z</time>
      </trkpt>
      <trkpt lat="45.30482" lon="5.75538">
        <ele>1540.663</ele>
        <time>2013-02-08T09:59:05Z</time>
      </trkpt>
      <trkpt lat="45.3048" lon="5.75526">
        <ele>1543.149</ele>
        <time>2013-02-08T09:59:16Z</time>
      </trkpt>
      <trkpt lat="45.30479" lon="5.75521">
        <ele>1545.286</ele>
        <time>2013-02-08T09:59:26Z</time>
      </trkpt>
      <trkpt lat="45.30478" lon="5.7552">
        <ele>1488.419</ele>
        <time>2013-02-08T09:59:34Z</time>
      </trkpt>
      <trkpt lat="45.30478" lon="5.75521">
        <ele>1489.045</ele>
        <time>2013-02-08T09:59:35Z</time>
      </trkpt>
      <trkpt lat="45.30476" lon="5.75507">
        <ele>1491.751</ele>
        <time>2013-02-08T09:59:48Z</time>
      </trkpt>
      <trkpt lat="45.30473" lon="5.75491">
        <ele>1494.548</ele>
        <time>2013-02-08T09:59:59Z</time>
      </trkpt>
      <trkpt lat="45.30471" lon="5.75489">
        <ele>1497.137</ele>
        <time>2013-02-08T10:00:07Z</time>
      </trkpt>
      <trkpt lat="45.3047" lon="5.75485">
        <ele>1498.927</ele>
        <time>2013-02-08T10:00:13Z</time>
      </trkpt>
      <trkpt lat="45.30467" lon="5.75484">
        <ele>1501.296</ele>
        <time>2013-02-08T10:00:21Z</time>
      </trkpt>
      <trkpt lat="45.30465" lon="5.75481">
        <ele>1502.695</ele>
        <time>2013-02-08T10:00:27Z</time>
      </trkpt>
      <trkpt lat="45.30462" lon="5.75457">
        <ele>1505.423</ele>
        <time>2013-02-08T10:00:38Z</time>
      </trkpt>
      <trkpt lat="45.3046" lon="5.75444">
        <ele>1509.188</ele>
        <time>2013-02-08T10:00:51Z</time>
      </trkpt>
      <trkpt lat="45.30459" lon="5.7544">
        <ele>1510.658</ele>
        <time>2013-02-08T10:00:56Z</time>
      </trkpt>
      <trkpt lat="45.30458" lon="5.75433">
        <ele>1513.537</ele>
        <time>2013-02-08T10:01:06Z</time>
      </trkpt>
      <trkpt lat="45.30459" lon="5.75431">
        <ele>1514.814</ele>
        <time>2013-02-08T10:01:12Z</time>
      </trkpt>
      <trkpt lat="45.30461" lon="5.75428">
        <ele>1516.511</ele>
        <time>2013-02-08T10:01:18Z</time>
      </trkpt>
      <trkpt lat="45.30463" lon="5.75424">
        <ele>1517.566</ele>
        <time>2013-02-08T10:01:24Z</time>
      </trkpt>
      <trkpt lat="45.30468" lon="5.75417">
        <ele>1519.429</ele>
        <time>2013-02-08T10:01:34Z</time>
      </trkpt>
      <trkpt lat="45.30472" lon="5.7541">
        <ele>1522.07</ele>
        <time>2013-02-08T10:01:45Z</time>
      </trkpt>
      <trkpt lat="45.30478" lon="5.75404">
        <ele>1524.669</ele>
        <time>2013-02-08T10:01:56Z</time>
      </trkpt>
      <trkpt lat="45.30477" lon="5.75397">
        <ele>1526.82</ele>
        <time>2013-02-08T10:02:04Z</time>
      </trkpt>
      <trkpt lat="45.30476" lon="5.75394">
        <ele>1529.109</ele>
        <time>2013-02-08T10:02:13Z</time>
      </trkpt>
      <trkpt lat="45.30475" lon="5.75392">
        <ele>1531.155</ele>
        <time>2013-02-08T10:02:21Z</time>
      </trkpt>
      <trkpt lat="45.30475" lon="5.75389">
        <ele>1532.332</ele>
        <time>2013-02-08T10:02:27Z</time>
      </trkpt>
      <trkpt lat="45.30474" lon="5.75388">
        <ele>1533.263</ele>
        <time>2013-02-08T10:02:37Z</time>
      </trkpt>
      <trkpt lat="45.30465" lon="5.75383">
        <ele>1534.746</ele>
        <time>2013-02-08T10:03:12Z</time>
      </trkpt>
      <trkpt lat="45.30472" lon="5.75383">
        <ele>1540.074</ele>
        <time>2013-02-08T10:04:26Z</time>
      </trkpt>
      <trkpt lat="45.30477" lon="5.75378">
        <ele>1542.021</ele>
        <time>2013-02-08T10:04:35Z</time>
      </trkpt>
      <trkpt lat="45.30484" lon="5.75375">
        <ele>1545.128</ele>
        <time>2013-02-08T10:04:47Z</time>
      </trkpt>
      <trkpt lat="45.30488" lon="5.75369">
        <ele>1547.25</ele>
        <time>2013-02-08T10:04:56Z</time>
      </trkpt>
      <trkpt lat="45.30487" lon="5.75363">
        <ele>1548.712</ele>
        <time>2013-02-08T10:05:01Z</time>
      </trkpt>
      <trkpt lat="45.30482" lon="5.75355">
        <ele>1550.179</ele>
        <time>2013-02-08T10:05:11Z</time>
      </trkpt>
      <trkpt lat="45.3048" lon="5.75352">
        <ele>1551.507</ele>
        <time>2013-02-08T10:05:20Z</time>
      </trkpt>
      <trkpt lat="45.30475" lon="5.75344">
        <ele>1553.319</ele>
        <time>2013-02-08T10:05:30Z</time>
      </trkpt>
      <trkpt lat="45.30471" lon="5.7534">
        <ele>1555.077</ele>
        <time>2013-02-08T10:05:38Z</time>
      </trkpt>
      <trkpt lat="45.30468" lon="5.75335">
        <ele>1557.93</ele>
        <time>2013-02-08T10:05:48Z</time>
      </trkpt>
      <trkpt lat="45.30466" lon="5.75333">
        <ele>1559.933</ele>
        <time>2013-02-08T10:05:56Z</time>
      </trkpt>
      <trkpt lat="45.30465" lon="5.75328">
        <ele>1561.896</ele>
        <time>2013-02-08T10:06:03Z</time>
      </trkpt>
      <trkpt lat="45.30463" lon="5.75324">
        <ele>1563.907</ele>
        <time>2013-02-08T10:06:11Z</time>
      </trkpt>
      <trkpt lat="45.30461" lon="5.75319">
        <ele>1565.75</ele>
        <time>2013-02-08T10:06:18Z</time>
      </trkpt>
      <trkpt lat="45.30458" lon="5.75308">
        <ele>1570.239</ele>
        <time>2013-02-08T10:06:36Z</time>
      </trkpt>
      <trkpt lat="45.30455" lon="5.75305">
        <ele>1573.622</ele>
        <time>2013-02-08T10:06:48Z</time>
      </trkpt>
      <trkpt lat="45.30454" lon="5.75303">
        <ele>1574.85</ele>
        <time>2013-02-08T10:06:53Z</time>
      </trkpt>
      <trkpt lat="45.30454" lon="5.75301">
        <ele>1575.557</ele>
        <time>2013-02-08T10:06:55Z</time>
      </trkpt>
      <trkpt lat="45.30453" lon="5.75294">
        <ele>1577.085</ele>
        <time>2013-02-08T10:07:03Z</time>
      </trkpt>
      <trkpt lat="45.30452" lon="5.75282">
        <ele>1579.579</ele>
        <time>2013-02-08T10:07:15Z</time>
      </trkpt>
      <trkpt lat="45.30451" lon="5.75273">
        <ele>1581.142</ele>
        <time>2013-02-08T10:07:24Z</time>
      </trkpt>
      <trkpt lat="45.3045" lon="5.75264">
        <ele>1582.013</ele>
        <time>2013-02-08T10:07:31Z</time>
      </trkpt>
      <trkpt lat="45.3045" lon="5.75248">
        <ele>1583.426</ele>
        <time>2013-02-08T10:07:40Z</time>
      </trkpt>
      <trkpt lat="45.3045" lon="5.75239">
        <ele>1584.005</ele>
        <time>2013-02-08T10:07:45Z</time>
      </trkpt>
      <trkpt lat="45.30448" lon="5.75226">
        <ele>1585.011</ele>
        <time>2013-02-08T10:07:53Z</time>
      </trkpt>
      <trkpt lat="45.30447" lon="5.75218">
        <ele>1585.841</ele>
        <time>2013-02-08T10:07:59Z</time>
      </trkpt>
      <trkpt lat="45.30447" lon="5.75217">
        <ele>1586.067</ele>
        <time>2013-02-08T10:08:00Z</time>
      </trkpt>
      <trkpt lat="45.30447" lon="5.75217">
        <ele>1586.785</ele>
        <time>2013-02-08T10:08:04Z</time>
      </trkpt>
      <trkpt lat="45.30447" lon="5.75211">
        <ele>1587.68</ele>
        <time>2013-02-08T10:08:08Z</time>
      </trkpt>
      <trkpt lat="45.30446" lon="5.75203">
        <ele>1588.808</ele>
        <time>2013-02-08T10:08:14Z</time>
      </trkpt>
      <trkpt lat="45.30446" lon="5.75189">
        <ele>1591.611</ele>
        <time>2013-02-08T10:08:25Z</time>
      </trkpt>
      <trkpt lat="45.30446" lon="5.75178">
        <ele>1593.034</ele>
        <time>2013-02-08T10:08:34Z</time>
      </trkpt>
      <trkpt lat="45.30445" lon="5.7517">
        <ele>1594.601</ele>
        <time>2013-02-08T10:08:42Z</time>
      </trkpt>
      <trkpt lat="45.30445" lon="5.75164">
        <ele>1596.622</ele>
        <time>2013-02-08T10:08:53Z</time>
      </trkpt>
      <trkpt lat="45.30444" lon="5.7516">
        <ele>1597.565</ele>
        <time>2013-02-08T10:08:59Z</time>
      </trkpt>
      <trkpt lat="45.30444" lon="5.75156">
        <ele>1598.4</ele>
        <time>2013-02-08T10:09:04Z</time>
      </trkpt>
      <trkpt lat="45.30444" lon="5.75151">
        <ele>1599.416</ele>
        <time>2013-02-08T10:09:10Z</time>
      </trkpt>
      <trkpt lat="45.30444" lon="5.75148">
        <ele>1601.295</ele>
        <time>2013-02-08T10:09:19Z</time>
      </trkpt>
      <trkpt lat="45.30442" lon="5.75134">
        <ele>1605.399</ele>
        <time>2013-02-08T10:09:35Z</time>
      </trkpt>
      <trkpt lat="45.30443" lon="5.7512">
        <ele>1607.158</ele>
        <time>2013-02-08T10:09:42Z</time>
      </trkpt>
      <trkpt lat="45.30443" lon="5.75114">
        <ele>1608.997</ele>
        <time>2013-02-08T10:09:50Z</time>
      </trkpt>
      <trkpt lat="45.30441" lon="5.75106">
        <ele>1610.405</ele>
        <time>2013-02-08T10:09:56Z</time>
      </trkpt>
      <trkpt lat="45.3044" lon="5.751">
        <ele>1611.613</ele>
        <time>2013-02-08T10:10:03Z</time>
      </trkpt>
      <trkpt lat="45.30439" lon="5.75096">
        <ele>1612.745</ele>
        <time>2013-02-08T10:10:08Z</time>
      </trkpt>
      <trkpt lat="45.30438" lon="5.75094">
        <ele>1613.618</ele>
        <time>2013-02-08T10:10:13Z</time>
      </trkpt>
      <trkpt lat="45.30438" lon="5.7509">
        <ele>1615.681</ele>
        <time>2013-02-08T10:10:22Z</time>
      </trkpt>
      <trkpt lat="45.30439" lon="5.75086">
        <ele>1617.23</ele>
        <time>2013-02-08T10:10:29Z</time>
      </trkpt>
      <trkpt lat="45.3044" lon="5.75077">
        <ele>1619.904</ele>
        <time>2013-02-08T10:10:42Z</time>
      </trkpt>
      <trkpt lat="45.30437" lon="5.75071">
        <ele>1621.805</ele>
        <time>2013-02-08T10:10:50Z</time>
      </trkpt>
      <trkpt lat="45.30436" lon="5.75068">
        <ele>1623.091</ele>
        <time>2013-02-08T10:10:56Z</time>
      </trkpt>
      <trkpt lat="45.30435" lon="5.75055">
        <ele>1628.626</ele>
        <time>2013-02-08T10:11:21Z</time>
      </trkpt>
      <trkpt lat="45.30436" lon="5.75049">
        <ele>1630.864</ele>
        <time>2013-02-08T10:11:31Z</time>
      </trkpt>
      <trkpt lat="45.30436" lon="5.75045">
        <ele>1632.62</ele>
        <time>2013-02-08T10:11:38Z</time>
      </trkpt>
      <trkpt lat="45.30436" lon="5.75031">
        <ele>1638.414</ele>
        <time>2013-02-08T10:12:04Z</time>
      </trkpt>
      <trkpt lat="45.30432" lon="5.75027">
        <ele>1640.014</ele>
        <time>2013-02-08T10:12:10Z</time>
      </trkpt>
      <trkpt lat="45.30431" lon="5.75022">
        <ele>1641.528</ele>
        <time>2013-02-08T10:12:17Z</time>
      </trkpt>
      <trkpt lat="45.30431" lon="5.75016">
        <ele>1643.807</ele>
        <time>2013-02-08T10:12:27Z</time>
      </trkpt>
      <trkpt lat="45.30432" lon="5.75012">
        <ele>1645.156</ele>
        <time>2013-02-08T10:12:34Z</time>
      </trkpt>
      <trkpt lat="45.30434" lon="5.75005">
        <ele>1647.108</ele>
        <time>2013-02-08T10:12:44Z</time>
      </trkpt>
      <trkpt lat="45.30434" lon="5.75004">
        <ele>1647.85</ele>
        <time>2013-02-08T10:12:49Z</time>
      </trkpt>
      <trkpt lat="45.30434" lon="5.75002">
        <ele>1648.841</ele>
        <time>2013-02-08T10:12:54Z</time>
      </trkpt>
      <trkpt lat="45.30432" lon="5.7499">
        <ele>1652.684</ele>
        <time>2013-02-08T10:13:15Z</time>
      </trkpt>
      <trkpt lat="45.30426" lon="5.74982">
        <ele>1654.881</ele>
        <time>2013-02-08T10:13:25Z</time>
      </trkpt>
      <trkpt lat="45.30423" lon="5.74973">
        <ele>1657.341</ele>
        <time>2013-02-08T10:13:36Z</time>
      </trkpt>
      <trkpt lat="45.30421" lon="5.74966">
        <ele>1659.69</ele>
        <time>2013-02-08T10:13:46Z</time>
      </trkpt>
      <trkpt lat="45.3042" lon="5.74962">
        <ele>1660.848</ele>
        <time>2013-02-08T10:13:51Z</time>
      </trkpt>
      <trkpt lat="45.3042" lon="5.74959">
        <ele>1662.123</ele>
        <time>2013-02-08T10:13:56Z</time>
      </trkpt>
      <trkpt lat="45.30422" lon="5.74956">
        <ele>1664.009</ele>
        <time>2013-02-08T10:14:03Z</time>
      </trkpt>
      <trkpt lat="45.30427" lon="5.74952">
        <ele>1665.993</ele>
        <time>2013-02-08T10:14:13Z</time>
      </trkpt>
      <trkpt lat="45.30433" lon="5.74948">
        <ele>1667.892</ele>
        <time>2013-02-08T10:14:23Z</time>
      </trkpt>
      <trkpt lat="45.30436" lon="5.74942">
        <ele>1669.688</ele>
        <time>2013-02-08T10:14:33Z</time>
      </trkpt>
      <trkpt lat="45.30437" lon="5.74935">
        <ele>1672.086</ele>
        <time>2013-02-08T10:14:43Z</time>
      </trkpt>
      <trkpt lat="45.30437" lon="5.74929">
        <ele>1674.117</ele>
        <time>2013-02-08T10:14:53Z</time>
      </trkpt>
      <trkpt lat="45.3044" lon="5.74928">
        <ele>1675.218</ele>
        <time>2013-02-08T10:14:59Z</time>
      </trkpt>
      <trkpt lat="45.30446" lon="5.74925">
        <ele>1677.247</ele>
        <time>2013-02-08T10:15:10Z</time>
      </trkpt>
      <trkpt lat="45.30446" lon="5.74921">
        <ele>1677.907</ele>
        <time>2013-02-08T10:15:15Z</time>
      </trkpt>
      <trkpt lat="45.30444" lon="5.74914">
        <ele>1679.691</ele>
        <time>2013-02-08T10:15:24Z</time>
      </trkpt>
      <trkpt lat="45.30441" lon="5.74906">
        <ele>1682.034</ele>
        <time>2013-02-08T10:15:35Z</time>
      </trkpt>
      <trkpt lat="45.30441" lon="5.74903">
        <ele>1683.399</ele>
        <time>2013-02-08T10:15:42Z</time>
      </trkpt>
      <trkpt lat="45.30442" lon="5.749">
        <ele>1684.397</ele>
        <time>2013-02-08T10:15:47Z</time>
      </trkpt>
      <trkpt lat="45.30443" lon="5.74898">
        <ele>1685.815</ele>
        <time>2013-02-08T10:15:53Z</time>
      </trkpt>
      <trkpt lat="45.30443" lon="5.74893">
        <ele>1687.507</ele>
        <time>2013-02-08T10:16:01Z</time>
      </trkpt>
      <trkpt lat="45.30443" lon="5.74887">
        <ele>1688.767</ele>
        <time>2013-02-08T10:16:08Z</time>
      </trkpt>
      <trkpt lat="45.30443" lon="5.74881">
        <ele>1690.292</ele>
        <time>2013-02-08T10:16:16Z</time>
      </trkpt>
      <trkpt lat="45.30441" lon="5.74872">
        <ele>1692.856</ele>
        <time>2013-02-08T10:16:28Z</time>
      </trkpt>
      <trkpt lat="45.30439" lon="5.74865">
        <ele>1695.142</ele>
        <time>2013-02-08T10:16:38Z</time>
      </trkpt>
      <trkpt lat="45.3044" lon="5.74861">
        <ele>1696.811</ele>
        <time>2013-02-08T10:16:46Z</time>
      </trkpt>
      <trkpt lat="45.30446" lon="5.74857">
        <ele>1698.553</ele>
        <time>2013-02-08T10:16:56Z</time>
      </trkpt>
      <trkpt lat="45.30449" lon="5.74854">
        <ele>1699.855</ele>
        <time>2013-02-08T10:17:03Z</time>
      </trkpt>
      <trkpt lat="45.30452" lon="5.74852">
        <ele>1701.12</ele>
        <time>2013-02-08T10:17:11Z</time>
      </trkpt>
      <trkpt lat="45.30454" lon="5.74849">
        <ele>1702.802</ele>
        <time>2013-02-08T10:17:19Z</time>
      </trkpt>
      <trkpt lat="45.30452" lon="5.74843">
        <ele>1704.525</ele>
        <time>2013-02-08T10:17:27Z</time>
      </trkpt>
      <trkpt lat="45.30453" lon="5.74835">
        <ele>1705.986</ele>
        <time>2013-02-08T10:17:36Z</time>
      </trkpt>
      <trkpt lat="45.30454" lon="5.74832">
        <ele>1707.177</ele>
        <time>2013-02-08T10:17:42Z</time>
      </trkpt>
      <trkpt lat="45.3045" lon="5.74824">
        <ele>1709.462</ele>
        <time>2013-02-08T10:17:52Z</time>
      </trkpt>
      <trkpt lat="45.30447" lon="5.74817">
        <ele>1710.868</ele>
        <time>2013-02-08T10:18:01Z</time>
      </trkpt>
      <trkpt lat="45.30447" lon="5.74814">
        <ele>1712.702</ele>
        <time>2013-02-08T10:18:07Z</time>
      </trkpt>
      <trkpt lat="45.30446" lon="5.74811">
        <ele>1713.879</ele>
        <time>2013-02-08T10:18:13Z</time>
      </trkpt>
      <trkpt lat="45.30449" lon="5.74806">
        <ele>1716.274</ele>
        <time>2013-02-08T10:18:23Z</time>
      </trkpt>
      <trkpt lat="45.30451" lon="5.74803">
        <ele>1717.848</ele>
        <time>2013-02-08T10:18:32Z</time>
      </trkpt>
      <trkpt lat="45.30452" lon="5.74799">
        <ele>1719.281</ele>
        <time>2013-02-08T10:18:38Z</time>
      </trkpt>
      <trkpt lat="45.30447" lon="5.74793">
        <ele>1721.206</ele>
        <time>2013-02-08T10:18:49Z</time>
      </trkpt>
      <trkpt lat="45.30444" lon="5.74786">
        <ele>1723.106</ele>
        <time>2013-02-08T10:19:00Z</time>
      </trkpt>
      <trkpt lat="45.30443" lon="5.74783">
        <ele>1724.266</ele>
        <time>2013-02-08T10:19:05Z</time>
      </trkpt>
      <trkpt lat="45.30441" lon="5.74775">
        <ele>1726.471</ele>
        <time>2013-02-08T10:19:16Z</time>
      </trkpt>
      <trkpt lat="45.30438" lon="5.74771">
        <ele>1727.78</ele>
        <time>2013-02-08T10:19:23Z</time>
      </trkpt>
      <trkpt lat="45.30436" lon="5.74769">
        <ele>1728.953</ele>
        <time>2013-02-08T10:19:29Z</time>
      </trkpt>
      <trkpt lat="45.30433" lon="5.74765">
        <ele>1730.029</ele>
        <time>2013-02-08T10:19:36Z</time>
      </trkpt>
      <trkpt lat="45.30432" lon="5.74763">
        <ele>1730.928</ele>
        <time>2013-02-08T10:19:42Z</time>
      </trkpt>
      <trkpt lat="45.30435" lon="5.7476">
        <ele>1732.66</ele>
        <time>2013-02-08T10:19:51Z</time>
      </trkpt>
      <trkpt lat="45.3044" lon="5.74756">
        <ele>1734.559</ele>
        <time>2013-02-08T10:20:01Z</time>
      </trkpt>
      <trkpt lat="45.30443" lon="5.74752">
        <ele>1736.201</ele>
        <time>2013-02-08T10:20:10Z</time>
      </trkpt>
      <trkpt lat="45.3044" lon="5.74745">
        <ele>1738.273</ele>
        <time>2013-02-08T10:20:21Z</time>
      </trkpt>
      <trkpt lat="45.30436" lon="5.74739">
        <ele>1740.415</ele>
        <time>2013-02-08T10:20:32Z</time>
      </trkpt>
      <trkpt lat="45.30435" lon="5.74735">
        <ele>1742.28</ele>
        <time>2013-02-08T10:20:41Z</time>
      </trkpt>
      <trkpt lat="45.30439" lon="5.74731">
        <ele>1744.576</ele>
        <time>2013-02-08T10:20:53Z</time>
      </trkpt>
      <trkpt lat="45.30444" lon="5.74729">
        <ele>1746.502</ele>
        <time>2013-02-08T10:21:04Z</time>
      </trkpt>
      <trkpt lat="45.30447" lon="5.74727">
        <ele>1748.306</ele>
        <time>2013-02-08T10:21:12Z</time>
      </trkpt>
      <trkpt lat="45.30449" lon="5.74725">
        <ele>1749.276</ele>
        <time>2013-02-08T10:21:18Z</time>
      </trkpt>
      <trkpt lat="45.3045" lon="5.74719">
        <ele>1751.576</ele>
        <time>2013-02-08T10:21:26Z</time>
      </trkpt>
      <trkpt lat="45.30449" lon="5.74711">
        <ele>1753.491</ele>
        <time>2013-02-08T10:21:37Z</time>
      </trkpt>
      <trkpt lat="45.30447" lon="5.74702">
        <ele>1756.393</ele>
        <time>2013-02-08T10:21:50Z</time>
      </trkpt>
      <trkpt lat="45.30448" lon="5.74698">
        <ele>1758.1</ele>
        <time>2013-02-08T10:21:57Z</time>
      </trkpt>
      <trkpt lat="45.30453" lon="5.74697">
        <ele>1759.614</ele>
        <time>2013-02-08T10:22:06Z</time>
      </trkpt>
      <trkpt lat="45.30458" lon="5.74696">
        <ele>1761.091</ele>
        <time>2013-02-08T10:22:16Z</time>
      </trkpt>
      <trkpt lat="45.30457" lon="5.7469">
        <ele>1762.892</ele>
        <time>2013-02-08T10:22:22Z</time>
      </trkpt>
      <trkpt lat="45.30453" lon="5.74682">
        <ele>1764.401</ele>
        <time>2013-02-08T10:22:32Z</time>
      </trkpt>
      <trkpt lat="45.30449" lon="5.74674">
        <ele>1765.835</ele>
        <time>2013-02-08T10:22:42Z</time>
      </trkpt>
      <trkpt lat="45.30445" lon="5.74665">
        <ele>1767.728</ele>
        <time>2013-02-08T10:22:52Z</time>
      </trkpt>
      <trkpt lat="45.30443" lon="5.74654">
        <ele>1770.354</ele>
        <time>2013-02-08T10:23:04Z</time>
      </trkpt>
      <trkpt lat="45.30442" lon="5.74646">
        <ele>1772.489</ele>
        <time>2013-02-08T10:23:14Z</time>
      </trkpt>
      <trkpt lat="45.30442" lon="5.74638">
        <ele>1774.266</ele>
        <time>2013-02-08T10:23:24Z</time>
      </trkpt>
      <trkpt lat="45.30441" lon="5.7464">
        <ele>1774.654</ele>
        <time>2013-02-08T10:23:35Z</time>
      </trkpt>
      <trkpt lat="45.30441" lon="5.74638">
        <ele>1775.358</ele>
        <time>2013-02-08T10:24:00Z</time>
      </trkpt>
      <trkpt lat="45.30445" lon="5.74637">
        <ele>1775.799</ele>
        <time>2013-02-08T10:24:05Z</time>
      </trkpt>
      <trkpt lat="45.30451" lon="5.74638">
        <ele>1777.177</ele>
        <time>2013-02-08T10:24:11Z</time>
      </trkpt>
      <trkpt lat="45.3046" lon="5.74643">
        <ele>1778.008</ele>
        <time>2013-02-08T10:24:21Z</time>
      </trkpt>
      <trkpt lat="45.30469" lon="5.74648">
        <ele>1778.324</ele>
        <time>2013-02-08T10:24:30Z</time>
      </trkpt>
      <trkpt lat="45.30478" lon="5.7465">
        <ele>1779.651</ele>
        <time>2013-02-08T10:24:39Z</time>
      </trkpt>
      <trkpt lat="45.30487" lon="5.74653">
        <ele>1780.584</ele>
        <time>2013-02-08T10:24:48Z</time>
      </trkpt>
      <trkpt lat="45.30496" lon="5.74655">
        <ele>1781.028</ele>
        <time>2013-02-08T10:24:57Z</time>
      </trkpt>
      <trkpt lat="45.30504" lon="5.74657">
        <ele>1780.823</ele>
        <time>2013-02-08T10:25:04Z</time>
      </trkpt>
      <trkpt lat="45.3051" lon="5.74661">
        <ele>1781.333</ele>
        <time>2013-02-08T10:25:11Z</time>
      </trkpt>
      <trkpt lat="45.3052" lon="5.74665">
        <ele>1781.866</ele>
        <time>2013-02-08T10:25:21Z</time>
      </trkpt>
      <trkpt lat="45.30525" lon="5.74669">
        <ele>1782.818</ele>
        <time>2013-02-08T10:25:29Z</time>
      </trkpt>
      <trkpt lat="45.3053" lon="5.7467">
        <ele>1784.472</ele>
        <time>2013-02-08T10:25:38Z</time>
      </trkpt>
      <trkpt lat="45.3053" lon="5.74669">
        <ele>1784.769</ele>
        <time>2013-02-08T10:25:49Z</time>
      </trkpt>
      <trkpt lat="45.30528" lon="5.74671">
        <ele>1786.438</ele>
        <time>2013-02-08T10:27:04Z</time>
      </trkpt>
      <trkpt lat="45.30533" lon="5.74674">
        <ele>1790.05</ele>
        <time>2013-02-08T10:29:03Z</time>
      </trkpt>
      <trkpt lat="45.3054" lon="5.74676">
        <ele>1792.035</ele>
        <time>2013-02-08T10:29:12Z</time>
      </trkpt>
      <trkpt lat="45.30542" lon="5.74677">
        <ele>1793.416</ele>
        <time>2013-02-08T10:29:17Z</time>
      </trkpt>
      <trkpt lat="45.30545" lon="5.74678">
        <ele>1794.588</ele>
        <time>2013-02-08T10:29:22Z</time>
      </trkpt>
      <trkpt lat="45.30549" lon="5.74681">
        <ele>1796.359</ele>
        <time>2013-02-08T10:29:29Z</time>
      </trkpt>
      <trkpt lat="45.30553" lon="5.74681">
        <ele>1797.914</ele>
        <time>2013-02-08T10:29:36Z</time>
      </trkpt>
      <trkpt lat="45.30557" lon="5.74684">
        <ele>1799.537</ele>
        <time>2013-02-08T10:29:43Z</time>
      </trkpt>
      <trkpt lat="45.30563" lon="5.74687">
        <ele>1802.074</ele>
        <time>2013-02-08T10:29:53Z</time>
      </trkpt>
      <trkpt lat="45.30571" lon="5.74692">
        <ele>1804.595</ele>
        <time>2013-02-08T10:30:04Z</time>
      </trkpt>
      <trkpt lat="45.30579" lon="5.74698">
        <ele>1806.659</ele>
        <time>2013-02-08T10:30:14Z</time>
      </trkpt>
      <trkpt lat="45.30585" lon="5.74705">
        <ele>1808.687</ele>
        <time>2013-02-08T10:30:24Z</time>
      </trkpt>
      <trkpt lat="45.30594" lon="5.74712">
        <ele>1810.658</ele>
        <time>2013-02-08T10:30:35Z</time>
      </trkpt>
      <trkpt lat="45.30603" lon="5.74718">
        <ele>1813.111</ele>
        <time>2013-02-08T10:30:47Z</time>
      </trkpt>
      <trkpt lat="45.30611" lon="5.74721">
        <ele>1815.35</ele>
        <time>2013-02-08T10:30:59Z</time>
      </trkpt>
      <trkpt lat="45.30617" lon="5.74723">
        <ele>1817.132</ele>
        <time>2013-02-08T10:31:08Z</time>
      </trkpt>
      <trkpt lat="45.30625" lon="5.74728">
        <ele>1819.573</ele>
        <time>2013-02-08T10:31:20Z</time>
      </trkpt>
      <trkpt lat="45.30635" lon="5.74735">
        <ele>1822.38</ele>
        <time>2013-02-08T10:31:33Z</time>
      </trkpt>
      <trkpt lat="45.30645" lon="5.7474">
        <ele>1824.656</ele>
        <time>2013-02-08T10:31:45Z</time>
      </trkpt>
      <trkpt lat="45.30655" lon="5.74745">
        <ele>1826.307</ele>
        <time>2013-02-08T10:31:58Z</time>
      </trkpt>
      <trkpt lat="45.30666" lon="5.74751">
        <ele>1828.384</ele>
        <time>2013-02-08T10:32:11Z</time>
      </trkpt>
      <trkpt lat="45.30677" lon="5.74757">
        <ele>1830.765</ele>
        <time>2013-02-08T10:32:25Z</time>
      </trkpt>
      <trkpt lat="45.30686" lon="5.74763">
        <ele>1832.191</ele>
        <time>2013-02-08T10:32:36Z</time>
      </trkpt>
      <trkpt lat="45.30695" lon="5.7477">
        <ele>1833.715</ele>
        <time>2013-02-08T10:32:48Z</time>
      </trkpt>
      <trkpt lat="45.30703" lon="5.74778">
        <ele>1834.577</ele>
        <time>2013-02-08T10:32:59Z</time>
      </trkpt>
      <trkpt lat="45.3071" lon="5.74782">
        <ele>1835.483</ele>
        <time>2013-02-08T10:33:08Z</time>
      </trkpt>
      <trkpt lat="45.30714" lon="5.74783">
        <ele>1836.236</ele>
        <time>2013-02-08T10:33:18Z</time>
      </trkpt>
      <trkpt lat="45.30711" lon="5.74785">
        <ele>1836.709</ele>
        <time>2013-02-08T10:33:49Z</time>
      </trkpt>
      <trkpt lat="45.30708" lon="5.74783">
        <ele>1836.954</ele>
        <time>2013-02-08T10:34:37Z</time>
      </trkpt>
      <trkpt lat="45.30706" lon="5.74783">
        <ele>1837.144</ele>
        <time>2013-02-08T10:34:39Z</time>
      </trkpt>
      <trkpt lat="45.30703" lon="5.74796">
        <ele>1834.746</ele>
        <time>2013-02-08T10:34:46Z</time>
      </trkpt>
      <trkpt lat="45.30703" lon="5.74799">
        <ele>1834.079</ele>
        <time>2013-02-08T10:34:48Z</time>
      </trkpt>
      <trkpt lat="45.30709" lon="5.74812">
        <ele>1836.002</ele>
        <time>2013-02-08T10:35:01Z</time>
      </trkpt>
      <trkpt lat="45.30716" lon="5.74821">
        <ele>1835.551</ele>
        <time>2013-02-08T10:35:11Z</time>
      </trkpt>
      <trkpt lat="45.30718" lon="5.74822">
        <ele>1835.916</ele>
        <time>2013-02-08T10:35:15Z</time>
      </trkpt>
      <trkpt lat="45.30721" lon="5.74828">
        <ele>1835.503</ele>
        <time>2013-02-08T10:35:20Z</time>
      </trkpt>
      <trkpt lat="45.30725" lon="5.74841">
        <ele>1835.967</ele>
        <time>2013-02-08T10:35:29Z</time>
      </trkpt>
      <trkpt lat="45.3073" lon="5.74849">
        <ele>1834.099</ele>
        <time>2013-02-08T10:35:34Z</time>
      </trkpt>
      <trkpt lat="45.30736" lon="5.74855">
        <ele>1834.749</ele>
        <time>2013-02-08T10:35:42Z</time>
      </trkpt>
      <trkpt lat="45.30743" lon="5.74863">
        <ele>1835.875</ele>
        <time>2013-02-08T10:35:53Z</time>
      </trkpt>
      <trkpt lat="45.30745" lon="5.74868">
        <ele>1835.905</ele>
        <time>2013-02-08T10:36:23Z</time>
      </trkpt>
      <trkpt lat="45.30749" lon="5.74878">
        <ele>1836.407</ele>
        <time>2013-02-08T10:36:33Z</time>
      </trkpt>
      <trkpt lat="45.30753" lon="5.74884">
        <ele>1837.433</ele>
        <time>2013-02-08T10:36:41Z</time>
      </trkpt>
      <trkpt lat="45.30759" lon="5.74895">
        <ele>1836.94</ele>
        <time>2013-02-08T10:36:53Z</time>
      </trkpt>
      <trkpt lat="45.3076" lon="5.74896">
        <ele>1836.752</ele>
        <time>2013-02-08T10:36:54Z</time>
      </trkpt>
      <trkpt lat="45.30766" lon="5.74906">
        <ele>1835.604</ele>
        <time>2013-02-08T10:37:01Z</time>
      </trkpt>
      <trkpt lat="45.30768" lon="5.74909">
        <ele>1835.444</ele>
        <time>2013-02-08T10:37:03Z</time>
      </trkpt>
      <trkpt lat="45.30776" lon="5.74917">
        <ele>1835.963</ele>
        <time>2013-02-08T10:37:11Z</time>
      </trkpt>
      <trkpt lat="45.30777" lon="5.74928">
        <ele>1835.122</ele>
        <time>2013-02-08T10:37:16Z</time>
      </trkpt>
      <trkpt lat="45.30778" lon="5.74931">
        <ele>1834.128</ele>
        <time>2013-02-08T10:37:18Z</time>
      </trkpt>
      <trkpt lat="45.30779" lon="5.74932">
        <ele>1833.982</ele>
        <time>2013-02-08T10:37:19Z</time>
      </trkpt>
      <trkpt lat="45.30786" lon="5.74941">
        <ele>1832.636</ele>
        <time>2013-02-08T10:37:27Z</time>
      </trkpt>
      <trkpt lat="45.30786" lon="5.74954">
        <ele>1829.332</ele>
        <time>2013-02-08T10:37:32Z</time>
      </trkpt>
      <trkpt lat="45.30789" lon="5.74967">
        <ele>1826.273</ele>
        <time>2013-02-08T10:37:36Z</time>
      </trkpt>
      <trkpt lat="45.30793" lon="5.74978">
        <ele>1824.884</ele>
        <time>2013-02-08T10:37:43Z</time>
      </trkpt>
      <trkpt lat="45.30793" lon="5.74992">
        <ele>1822.525</ele>
        <time>2013-02-08T10:37:52Z</time>
      </trkpt>
      <trkpt lat="45.30794" lon="5.75002">
        <ele>1819.479</ele>
        <time>2013-02-08T10:37:56Z</time>
      </trkpt>
      <trkpt lat="45.30796" lon="5.75015">
        <ele>1816.958</ele>
        <time>2013-02-08T10:38:03Z</time>
      </trkpt>
      <trkpt lat="45.30801" lon="5.75026">
        <ele>1813.101</ele>
        <time>2013-02-08T10:38:08Z</time>
      </trkpt>
      <trkpt lat="45.3081" lon="5.75032">
        <ele>1811.111</ele>
        <time>2013-02-08T10:38:14Z</time>
      </trkpt>
      <trkpt lat="45.30824" lon="5.75047">
        <ele>1805.318</ele>
        <time>2013-02-08T10:38:21Z</time>
      </trkpt>
      <trkpt lat="45.30833" lon="5.75063">
        <ele>1800.322</ele>
        <time>2013-02-08T10:38:28Z</time>
      </trkpt>
      <trkpt lat="45.30842" lon="5.75087">
        <ele>1793.429</ele>
        <time>2013-02-08T10:38:35Z</time>
      </trkpt>
      <trkpt lat="45.30853" lon="5.75124">
        <ele>1784.127</ele>
        <time>2013-02-08T10:38:43Z</time>
      </trkpt>
      <trkpt lat="45.30859" lon="5.75141">
        <ele>1779.364</ele>
        <time>2013-02-08T10:38:48Z</time>
      </trkpt>
      <trkpt lat="45.30859" lon="5.75143">
        <ele>1779.118</ele>
        <time>2013-02-08T10:38:49Z</time>
      </trkpt>
      <trkpt lat="45.30867" lon="5.75159">
        <ele>1777.155</ele>
        <time>2013-02-08T10:38:57Z</time>
      </trkpt>
      <trkpt lat="45.30871" lon="5.75167">
        <ele>1776.51</ele>
        <time>2013-02-08T10:39:02Z</time>
      </trkpt>
      <trkpt lat="45.30876" lon="5.75181">
        <ele>1777.062</ele>
        <time>2013-02-08T10:39:12Z</time>
      </trkpt>
      <trkpt lat="45.30883" lon="5.75192">
        <ele>1778.726</ele>
        <time>2013-02-08T10:39:22Z</time>
      </trkpt>
      <trkpt lat="45.30888" lon="5.75202">
        <ele>1779.241</ele>
        <time>2013-02-08T10:39:30Z</time>
      </trkpt>
      <trkpt lat="45.30892" lon="5.7521">
        <ele>1779.855</ele>
        <time>2013-02-08T10:39:37Z</time>
      </trkpt>
      <trkpt lat="45.30894" lon="5.75214">
        <ele>1779.993</ele>
        <time>2013-02-08T10:39:40Z</time>
      </trkpt>
      <trkpt lat="45.30898" lon="5.75226">
        <ele>1779.234</ele>
        <time>2013-02-08T10:39:47Z</time>
      </trkpt>
      <trkpt lat="45.30898" lon="5.7523">
        <ele>1778.809</ele>
        <time>2013-02-08T10:39:49Z</time>
      </trkpt>
      <trkpt lat="45.309" lon="5.75246">
        <ele>1779.031</ele>
        <time>2013-02-08T10:39:58Z</time>
      </trkpt>
      <trkpt lat="45.30908" lon="5.75262">
        <ele>1777.89</ele>
        <time>2013-02-08T10:40:07Z</time>
      </trkpt>
      <trkpt lat="45.30917" lon="5.75275">
        <ele>1776.618</ele>
        <time>2013-02-08T10:40:14Z</time>
      </trkpt>
      <trkpt lat="45.30927" lon="5.75285">
        <ele>1773.979</ele>
        <time>2013-02-08T10:40:21Z</time>
      </trkpt>
      <trkpt lat="45.30935" lon="5.75294">
        <ele>1772.523</ele>
        <time>2013-02-08T10:40:27Z</time>
      </trkpt>
      <trkpt lat="45.30941" lon="5.75304">
        <ele>1771.849</ele>
        <time>2013-02-08T10:40:34Z</time>
      </trkpt>
      <trkpt lat="45.30947" lon="5.75314">
        <ele>1772.988</ele>
        <time>2013-02-08T10:40:43Z</time>
      </trkpt>
      <trkpt lat="45.30953" lon="5.75324">
        <ele>1774.418</ele>
        <time>2013-02-08T10:40:53Z</time>
      </trkpt>
      <trkpt lat="45.30961" lon="5.75336">
        <ele>1775.639</ele>
        <time>2013-02-08T10:41:05Z</time>
      </trkpt>
      <trkpt lat="45.30969" lon="5.75348">
        <ele>1777.479</ele>
        <time>2013-02-08T10:41:18Z</time>
      </trkpt>
      <trkpt lat="45.30978" lon="5.75357">
        <ele>1779.344</ele>
        <time>2013-02-08T10:41:30Z</time>
      </trkpt>
      <trkpt lat="45.30989" lon="5.75366">
        <ele>1781.062</ele>
        <time>2013-02-08T10:41:43Z</time>
      </trkpt>
      <trkpt lat="45.30999" lon="5.75371">
        <ele>1781.946</ele>
        <time>2013-02-08T10:41:54Z</time>
      </trkpt>
      <trkpt lat="45.3101" lon="5.75375">
        <ele>1781.167</ele>
        <time>2013-02-08T10:42:03Z</time>
      </trkpt>
      <trkpt lat="45.31018" lon="5.75379">
        <ele>1780.257</ele>
        <time>2013-02-08T10:42:09Z</time>
      </trkpt>
      <trkpt lat="45.31023" lon="5.75384">
        <ele>1780.1</ele>
        <time>2013-02-08T10:42:15Z</time>
      </trkpt>
      <trkpt lat="45.31033" lon="5.75391">
        <ele>1780.235</ele>
        <time>2013-02-08T10:42:24Z</time>
      </trkpt>
      <trkpt lat="45.31045" lon="5.75403">
        <ele>1778.378</ele>
        <time>2013-02-08T10:42:32Z</time>
      </trkpt>
      <trkpt lat="45.31049" lon="5.75408">
        <ele>1777.061</ele>
        <time>2013-02-08T10:42:35Z</time>
      </trkpt>
      <trkpt lat="45.31058" lon="5.75418">
        <ele>1777.431</ele>
        <time>2013-02-08T10:42:46Z</time>
      </trkpt>
      <trkpt lat="45.31068" lon="5.75427">
        <ele>1779.305</ele>
        <time>2013-02-08T10:42:59Z</time>
      </trkpt>
      <trkpt lat="45.31078" lon="5.75431">
        <ele>1780.34</ele>
        <time>2013-02-08T10:43:11Z</time>
      </trkpt>
      <trkpt lat="45.31083" lon="5.75438">
        <ele>1782.188</ele>
        <time>2013-02-08T10:43:21Z</time>
      </trkpt>
      <trkpt lat="45.3109" lon="5.75444">
        <ele>1783.526</ele>
        <time>2013-02-08T10:43:32Z</time>
      </trkpt>
      <trkpt lat="45.31097" lon="5.75452">
        <ele>1784.101</ele>
        <time>2013-02-08T10:43:42Z</time>
      </trkpt>
      <trkpt lat="45.31106" lon="5.7546">
        <ele>1784.556</ele>
        <time>2013-02-08T10:43:52Z</time>
      </trkpt>
      <trkpt lat="45.31117" lon="5.75467">
        <ele>1784.418</ele>
        <time>2013-02-08T10:44:03Z</time>
      </trkpt>
      <trkpt lat="45.31124" lon="5.7547">
        <ele>1784.853</ele>
        <time>2013-02-08T10:44:12Z</time>
      </trkpt>
      <trkpt lat="45.31128" lon="5.75472">
        <ele>1785.316</ele>
        <time>2013-02-08T10:44:39Z</time>
      </trkpt>
      <trkpt lat="45.31142" lon="5.75477">
        <ele>1785.097</ele>
        <time>2013-02-08T10:44:50Z</time>
      </trkpt>
      <trkpt lat="45.31156" lon="5.75482">
        <ele>1785.393</ele>
        <time>2013-02-08T10:45:01Z</time>
      </trkpt>
      <trkpt lat="45.31166" lon="5.75486">
        <ele>1785.877</ele>
        <time>2013-02-08T10:45:10Z</time>
      </trkpt>
      <trkpt lat="45.31178" lon="5.75487">
        <ele>1786.535</ele>
        <time>2013-02-08T10:45:21Z</time>
      </trkpt>
      <trkpt lat="45.31191" lon="5.75484">
        <ele>1786.878</ele>
        <time>2013-02-08T10:45:32Z</time>
      </trkpt>
      <trkpt lat="45.31202" lon="5.75477">
        <ele>1786.108</ele>
        <time>2013-02-08T10:45:41Z</time>
      </trkpt>
      <trkpt lat="45.31214" lon="5.75465">
        <ele>1784.785</ele>
        <time>2013-02-08T10:45:50Z</time>
      </trkpt>
      <trkpt lat="45.31222" lon="5.75458">
        <ele>1783.905</ele>
        <time>2013-02-08T10:45:56Z</time>
      </trkpt>
      <trkpt lat="45.31229" lon="5.75451">
        <ele>1783.506</ele>
        <time>2013-02-08T10:46:03Z</time>
      </trkpt>
      <trkpt lat="45.31238" lon="5.75441">
        <ele>1782.743</ele>
        <time>2013-02-08T10:46:12Z</time>
      </trkpt>
      <trkpt lat="45.31246" lon="5.75431">
        <ele>1783.388</ele>
        <time>2013-02-08T10:46:21Z</time>
      </trkpt>
      <trkpt lat="45.31254" lon="5.75425">
        <ele>1784.141</ele>
        <time>2013-02-08T10:46:30Z</time>
      </trkpt>
      <trkpt lat="45.31265" lon="5.75418">
        <ele>1785.111</ele>
        <time>2013-02-08T10:46:41Z</time>
      </trkpt>
      <trkpt lat="45.31269" lon="5.75416">
        <ele>1785.131</ele>
        <time>2013-02-08T10:46:48Z</time>
      </trkpt>
      <trkpt lat="45.3127" lon="5.75417">
        <ele>1785.952</ele>
        <time>2013-02-08T10:47:28Z</time>
      </trkpt>
      <trkpt lat="45.31275" lon="5.75416">
        <ele>1785.864</ele>
        <time>2013-02-08T10:47:33Z</time>
      </trkpt>
      <trkpt lat="45.31289" lon="5.75412">
        <ele>1785.046</ele>
        <time>2013-02-08T10:47:44Z</time>
      </trkpt>
      <trkpt lat="45.31299" lon="5.75407">
        <ele>1785.347</ele>
        <time>2013-02-08T10:47:53Z</time>
      </trkpt>
      <trkpt lat="45.3131" lon="5.754">
        <ele>1785.27</ele>
        <time>2013-02-08T10:48:03Z</time>
      </trkpt>
      <trkpt lat="45.31321" lon="5.75394">
        <ele>1785.031</ele>
        <time>2013-02-08T10:48:12Z</time>
      </trkpt>
      <trkpt lat="45.3133" lon="5.75388">
        <ele>1784.146</ele>
        <time>2013-02-08T10:48:19Z</time>
      </trkpt>
      <trkpt lat="45.31339" lon="5.75382">
        <ele>1784.43</ele>
        <time>2013-02-08T10:48:28Z</time>
      </trkpt>
      <trkpt lat="45.31351" lon="5.75379">
        <ele>1784.889</ele>
        <time>2013-02-08T10:48:39Z</time>
      </trkpt>
      <trkpt lat="45.31363" lon="5.75378">
        <ele>1785.44</ele>
        <time>2013-02-08T10:48:50Z</time>
      </trkpt>
      <trkpt lat="45.31373" lon="5.75379">
        <ele>1786.062</ele>
        <time>2013-02-08T10:49:00Z</time>
      </trkpt>
      <trkpt lat="45.31384" lon="5.75379">
        <ele>1786.144</ele>
        <time>2013-02-08T10:49:10Z</time>
      </trkpt>
      <trkpt lat="45.31393" lon="5.75381">
        <ele>1785.972</ele>
        <time>2013-02-08T10:49:17Z</time>
      </trkpt>
      <trkpt lat="45.31403" lon="5.75381">
        <ele>1786.862</ele>
        <time>2013-02-08T10:49:28Z</time>
      </trkpt>
      <trkpt lat="45.31413" lon="5.75381">
        <ele>1788.004</ele>
        <time>2013-02-08T10:49:39Z</time>
      </trkpt>
      <trkpt lat="45.31423" lon="5.75381">
        <ele>1789.048</ele>
        <time>2013-02-08T10:49:50Z</time>
      </trkpt>
      <trkpt lat="45.31434" lon="5.75383">
        <ele>1789.336</ele>
        <time>2013-02-08T10:50:00Z</time>
      </trkpt>
      <trkpt lat="45.31443" lon="5.75386">
        <ele>1790.282</ele>
        <time>2013-02-08T10:50:10Z</time>
      </trkpt>
      <trkpt lat="45.31454" lon="5.75386">
        <ele>1791.989</ele>
        <time>2013-02-08T10:50:22Z</time>
      </trkpt>
      <trkpt lat="45.31464" lon="5.75387">
        <ele>1792.547</ele>
        <time>2013-02-08T10:50:32Z</time>
      </trkpt>
      <trkpt lat="45.31475" lon="5.75388">
        <ele>1792.205</ele>
        <time>2013-02-08T10:50:42Z</time>
      </trkpt>
      <trkpt lat="45.31485" lon="5.75391">
        <ele>1792.336</ele>
        <time>2013-02-08T10:50:52Z</time>
      </trkpt>
      <trkpt lat="45.31497" lon="5.75395">
        <ele>1792.303</ele>
        <time>2013-02-08T10:51:03Z</time>
      </trkpt>
      <trkpt lat="45.31506" lon="5.75401">
        <ele>1793.46</ele>
        <time>2013-02-08T10:51:14Z</time>
      </trkpt>
      <trkpt lat="45.31514" lon="5.75408">
        <ele>1794.176</ele>
        <time>2013-02-08T10:51:24Z</time>
      </trkpt>
      <trkpt lat="45.31523" lon="5.75414">
        <ele>1795.796</ele>
        <time>2013-02-08T10:51:35Z</time>
      </trkpt>
      <trkpt lat="45.31532" lon="5.75419">
        <ele>1797.255</ele>
        <time>2013-02-08T10:51:47Z</time>
      </trkpt>
      <trkpt lat="45.31543" lon="5.75423">
        <ele>1798.193</ele>
        <time>2013-02-08T10:51:59Z</time>
      </trkpt>
      <trkpt lat="45.31553" lon="5.75427">
        <ele>1799.158</ele>
        <time>2013-02-08T10:52:11Z</time>
      </trkpt>
      <trkpt lat="45.31562" lon="5.75431">
        <ele>1799.903</ele>
        <time>2013-02-08T10:52:21Z</time>
      </trkpt>
      <trkpt lat="45.31572" lon="5.75436">
        <ele>1800.321</ele>
        <time>2013-02-08T10:52:31Z</time>
      </trkpt>
      <trkpt lat="45.3158" lon="5.7544">
        <ele>1799.672</ele>
        <time>2013-02-08T10:52:39Z</time>
      </trkpt>
      <trkpt lat="45.3159" lon="5.75443">
        <ele>1799.885</ele>
        <time>2013-02-08T10:52:48Z</time>
      </trkpt>
      <trkpt lat="45.31599" lon="5.75447">
        <ele>1800.732</ele>
        <time>2013-02-08T10:52:58Z</time>
      </trkpt>
      <trkpt lat="45.31607" lon="5.75452">
        <ele>1801.338</ele>
        <time>2013-02-08T10:53:08Z</time>
      </trkpt>
      <trkpt lat="45.31617" lon="5.7546">
        <ele>1802.294</ele>
        <time>2013-02-08T10:53:20Z</time>
      </trkpt>
      <trkpt lat="45.31624" lon="5.75467">
        <ele>1802.638</ele>
        <time>2013-02-08T10:53:29Z</time>
      </trkpt>
      <trkpt lat="45.31632" lon="5.75475">
        <ele>1804.016</ele>
        <time>2013-02-08T10:53:40Z</time>
      </trkpt>
      <trkpt lat="45.31639" lon="5.75482">
        <ele>1804.744</ele>
        <time>2013-02-08T10:53:50Z</time>
      </trkpt>
      <trkpt lat="45.31647" lon="5.75492">
        <ele>1805.533</ele>
        <time>2013-02-08T10:54:01Z</time>
      </trkpt>
      <trkpt lat="45.31657" lon="5.75503">
        <ele>1806.759</ele>
        <time>2013-02-08T10:54:14Z</time>
      </trkpt>
      <trkpt lat="45.31665" lon="5.75511">
        <ele>1807.618</ele>
        <time>2013-02-08T10:54:25Z</time>
      </trkpt>
      <trkpt lat="45.31675" lon="5.7552">
        <ele>1808.688</ele>
        <time>2013-02-08T10:54:38Z</time>
      </trkpt>
      <trkpt lat="45.31683" lon="5.75527">
        <ele>1809.236</ele>
        <time>2013-02-08T10:54:48Z</time>
      </trkpt>
      <trkpt lat="45.31692" lon="5.75533">
        <ele>1809.663</ele>
        <time>2013-02-08T10:54:58Z</time>
      </trkpt>
      <trkpt lat="45.31703" lon="5.75538">
        <ele>1810.342</ele>
        <time>2013-02-08T10:55:10Z</time>
      </trkpt>
      <trkpt lat="45.31713" lon="5.75543">
        <ele>1811.558</ele>
        <time>2013-02-08T10:55:22Z</time>
      </trkpt>
      <trkpt lat="45.3172" lon="5.75547">
        <ele>1811.918</ele>
        <time>2013-02-08T10:55:30Z</time>
      </trkpt>
      <trkpt lat="45.31727" lon="5.75554">
        <ele>1812.747</ele>
        <time>2013-02-08T10:55:39Z</time>
      </trkpt>
      <trkpt lat="45.31734" lon="5.75564">
        <ele>1813.329</ele>
        <time>2013-02-08T10:55:50Z</time>
      </trkpt>
      <trkpt lat="45.31743" lon="5.75575">
        <ele>1814.756</ele>
        <time>2013-02-08T10:56:02Z</time>
      </trkpt>
      <trkpt lat="45.31751" lon="5.75581">
        <ele>1814.789</ele>
        <time>2013-02-08T10:56:12Z</time>
      </trkpt>
      <trkpt lat="45.31762" lon="5.75584">
        <ele>1815.528</ele>
        <time>2013-02-08T10:56:23Z</time>
      </trkpt>
      <trkpt lat="45.31772" lon="5.75584">
        <ele>1816.092</ele>
        <time>2013-02-08T10:56:33Z</time>
      </trkpt>
      <trkpt lat="45.31783" lon="5.7558">
        <ele>1816.897</ele>
        <time>2013-02-08T10:56:45Z</time>
      </trkpt>
      <trkpt lat="45.31793" lon="5.75578">
        <ele>1817.312</ele>
        <time>2013-02-08T10:56:55Z</time>
      </trkpt>
      <trkpt lat="45.31803" lon="5.75575">
        <ele>1818.08</ele>
        <time>2013-02-08T10:57:05Z</time>
      </trkpt>
      <trkpt lat="45.31813" lon="5.75574">
        <ele>1818.636</ele>
        <time>2013-02-08T10:57:16Z</time>
      </trkpt>
      <trkpt lat="45.3182" lon="5.75584">
        <ele>1818.742</ele>
        <time>2013-02-08T10:57:26Z</time>
      </trkpt>
      <trkpt lat="45.31831" lon="5.75595">
        <ele>1819.291</ele>
        <time>2013-02-08T10:57:39Z</time>
      </trkpt>
      <trkpt lat="45.31836" lon="5.75601">
        <ele>1819.309</ele>
        <time>2013-02-08T10:57:45Z</time>
      </trkpt>
      <trkpt lat="45.31843" lon="5.7561">
        <ele>1820.071</ele>
        <time>2013-02-08T10:57:56Z</time>
      </trkpt>
      <trkpt lat="45.31854" lon="5.75618">
        <ele>1821.134</ele>
        <time>2013-02-08T10:58:08Z</time>
      </trkpt>
      <trkpt lat="45.31861" lon="5.75626">
        <ele>1822.026</ele>
        <time>2013-02-08T10:58:18Z</time>
      </trkpt>
      <trkpt lat="45.31867" lon="5.75641">
        <ele>1822.105</ele>
        <time>2013-02-08T10:58:29Z</time>
      </trkpt>
      <trkpt lat="45.31873" lon="5.75656">
        <ele>1822.11</ele>
        <time>2013-02-08T10:58:39Z</time>
      </trkpt>
      <trkpt lat="45.31877" lon="5.75672">
        <ele>1821.593</ele>
        <time>2013-02-08T10:58:50Z</time>
      </trkpt>
      <trkpt lat="45.31882" lon="5.75684">
        <ele>1822.337</ele>
        <time>2013-02-08T10:59:00Z</time>
      </trkpt>
      <trkpt lat="45.31882" lon="5.75685">
        <ele>1822.333</ele>
        <time>2013-02-08T10:59:07Z</time>
      </trkpt>
      <trkpt lat="45.31884" lon="5.75687">
        <ele>1822.099</ele>
        <time>2013-02-08T11:00:12Z</time>
      </trkpt>
      <trkpt lat="45.31885" lon="5.75687">
        <ele>1822.16</ele>
        <time>2013-02-08T11:00:18Z</time>
      </trkpt>
      <trkpt lat="45.31884" lon="5.7569">
        <ele>1823.145</ele>
        <time>2013-02-08T11:03:35Z</time>
      </trkpt>
      <trkpt lat="45.31885" lon="5.75688">
        <ele>1823.156</ele>
        <time>2013-02-08T11:04:53Z</time>
      </trkpt>
      <trkpt lat="45.31885" lon="5.75688">
        <ele>1826.146</ele>
        <time>2013-02-08T11:04:56Z</time>
      </trkpt>
      <trkpt lat="45.31884" lon="5.75693">
        <ele>1825.725</ele>
        <time>2013-02-08T11:05:49Z</time>
      </trkpt>
      <trkpt lat="45.31887" lon="5.75706">
        <ele>1825.921</ele>
        <time>2013-02-08T11:06:00Z</time>
      </trkpt>
      <trkpt lat="45.3189" lon="5.75716">
        <ele>1825.873</ele>
        <time>2013-02-08T11:06:08Z</time>
      </trkpt>
      <trkpt lat="45.31893" lon="5.7573">
        <ele>1826.31</ele>
        <time>2013-02-08T11:06:19Z</time>
      </trkpt>
      <trkpt lat="45.31893" lon="5.75741">
        <ele>1826.339</ele>
        <time>2013-02-08T11:06:27Z</time>
      </trkpt>
      <trkpt lat="45.31895" lon="5.75754">
        <ele>1826.737</ele>
        <time>2013-02-08T11:06:36Z</time>
      </trkpt>
      <trkpt lat="45.31898" lon="5.75768">
        <ele>1827.318</ele>
        <time>2013-02-08T11:06:46Z</time>
      </trkpt>
      <trkpt lat="45.319" lon="5.7578">
        <ele>1827.893</ele>
        <time>2013-02-08T11:06:55Z</time>
      </trkpt>
      <trkpt lat="45.31903" lon="5.75794">
        <ele>1828.705</ele>
        <time>2013-02-08T11:07:06Z</time>
      </trkpt>
      <trkpt lat="45.31905" lon="5.75801">
        <ele>1828.787</ele>
        <time>2013-02-08T11:07:11Z</time>
      </trkpt>
      <trkpt lat="45.31908" lon="5.75813">
        <ele>1829.376</ele>
        <time>2013-02-08T11:07:21Z</time>
      </trkpt>
      <trkpt lat="45.31907" lon="5.75816">
        <ele>1829.553</ele>
        <time>2013-02-08T11:07:23Z</time>
      </trkpt>
      <trkpt lat="45.31906" lon="5.75818">
        <ele>1829.91</ele>
        <time>2013-02-08T11:07:25Z</time>
      </trkpt>
      <trkpt lat="45.31908" lon="5.75831">
        <ele>1831.322</ele>
        <time>2013-02-08T11:07:37Z</time>
      </trkpt>
      <trkpt lat="45.31911" lon="5.75844">
        <ele>1833.782</ele>
        <time>2013-02-08T11:07:51Z</time>
      </trkpt>
      <trkpt lat="45.31916" lon="5.75855">
        <ele>1836.25</ele>
        <time>2013-02-08T11:08:05Z</time>
      </trkpt>
      <trkpt lat="45.31921" lon="5.75867">
        <ele>1838.52</ele>
        <time>2013-02-08T11:08:18Z</time>
      </trkpt>
      <trkpt lat="45.31923" lon="5.75871">
        <ele>1839.18</ele>
        <time>2013-02-08T11:08:23Z</time>
      </trkpt>
      <trkpt lat="45.31928" lon="5.75882">
        <ele>1840.59</ele>
        <time>2013-02-08T11:08:35Z</time>
      </trkpt>
      <trkpt lat="45.31934" lon="5.75894">
        <ele>1841.546</ele>
        <time>2013-02-08T11:08:47Z</time>
      </trkpt>
      <trkpt lat="45.31941" lon="5.75905">
        <ele>1842.265</ele>
        <time>2013-02-08T11:08:58Z</time>
      </trkpt>
      <trkpt lat="45.31944" lon="5.75909">
        <ele>1842.276</ele>
        <time>2013-02-08T11:09:02Z</time>
      </trkpt>
      <trkpt lat="45.3195" lon="5.75921">
        <ele>1843.252</ele>
        <time>2013-02-08T11:09:14Z</time>
      </trkpt>
      <trkpt lat="45.31952" lon="5.75931">
        <ele>1844.631</ele>
        <time>2013-02-08T11:09:25Z</time>
      </trkpt>
      <trkpt lat="45.3195" lon="5.75941">
        <ele>1846.975</ele>
        <time>2013-02-08T11:09:36Z</time>
      </trkpt>
      <trkpt lat="45.31947" lon="5.75951">
        <ele>1849.563</ele>
        <time>2013-02-08T11:09:49Z</time>
      </trkpt>
      <trkpt lat="45.31945" lon="5.7596">
        <ele>1852.035</ele>
        <time>2013-02-08T11:10:02Z</time>
      </trkpt>
      <trkpt lat="45.31942" lon="5.7597">
        <ele>1854.091</ele>
        <time>2013-02-08T11:10:15Z</time>
      </trkpt>
      <trkpt lat="45.31941" lon="5.75975">
        <ele>1855.882</ele>
        <time>2013-02-08T11:10:24Z</time>
      </trkpt>
      <trkpt lat="45.31939" lon="5.75983">
        <ele>1858.17</ele>
        <time>2013-02-08T11:10:35Z</time>
      </trkpt>
      <trkpt lat="45.31936" lon="5.75991">
        <ele>1859.917</ele>
        <time>2013-02-08T11:10:46Z</time>
      </trkpt>
      <trkpt lat="45.31934" lon="5.76002">
        <ele>1863.021</ele>
        <time>2013-02-08T11:11:00Z</time>
      </trkpt>
      <trkpt lat="45.31932" lon="5.7601">
        <ele>1864.776</ele>
        <time>2013-02-08T11:11:11Z</time>
      </trkpt>
      <trkpt lat="45.3193" lon="5.76019">
        <ele>1867.076</ele>
        <time>2013-02-08T11:11:23Z</time>
      </trkpt>
      <trkpt lat="45.31928" lon="5.76031">
        <ele>1869.668</ele>
        <time>2013-02-08T11:11:37Z</time>
      </trkpt>
      <trkpt lat="45.31928" lon="5.76041">
        <ele>1872.011</ele>
        <time>2013-02-08T11:11:49Z</time>
      </trkpt>
      <trkpt lat="45.3193" lon="5.7605">
        <ele>1874.349</ele>
        <time>2013-02-08T11:12:00Z</time>
      </trkpt>
      <trkpt lat="45.31933" lon="5.7606">
        <ele>1876.215</ele>
        <time>2013-02-08T11:12:11Z</time>
      </trkpt>
      <trkpt lat="45.31938" lon="5.76069">
        <ele>1878.048</ele>
        <time>2013-02-08T11:12:23Z</time>
      </trkpt>
      <trkpt lat="45.31942" lon="5.76076">
        <ele>1879.787</ele>
        <time>2013-02-08T11:12:34Z</time>
      </trkpt>
      <trkpt lat="45.31947" lon="5.76082">
        <ele>1881.549</ele>
        <time>2013-02-08T11:12:45Z</time>
      </trkpt>
      <trkpt lat="45.31953" lon="5.76088">
        <ele>1884.019</ele>
        <time>2013-02-08T11:12:58Z</time>
      </trkpt>
      <trkpt lat="45.3196" lon="5.76095">
        <ele>1886.357</ele>
        <time>2013-02-08T11:13:12Z</time>
      </trkpt>
      <trkpt lat="45.31966" lon="5.761">
        <ele>1888.612</ele>
        <time>2013-02-08T11:13:25Z</time>
      </trkpt>
      <trkpt lat="45.31971" lon="5.76105">
        <ele>1890.328</ele>
        <time>2013-02-08T11:13:36Z</time>
      </trkpt>
      <trkpt lat="45.31976" lon="5.76109">
        <ele>1891.972</ele>
        <time>2013-02-08T11:13:46Z</time>
      </trkpt>
      <trkpt lat="45.31981" lon="5.76115">
        <ele>1894.314</ele>
        <time>2013-02-08T11:13:59Z</time>
      </trkpt>
      <trkpt lat="45.31986" lon="5.76119">
        <ele>1896.047</ele>
        <time>2013-02-08T11:14:09Z</time>
      </trkpt>
      <trkpt lat="45.31993" lon="5.76124">
        <ele>1898.557</ele>
        <time>2013-02-08T11:14:22Z</time>
      </trkpt>
      <trkpt lat="45.32001" lon="5.7613">
        <ele>1901.225</ele>
        <time>2013-02-08T11:14:37Z</time>
      </trkpt>
      <trkpt lat="45.32007" lon="5.76134">
        <ele>1903.11</ele>
        <time>2013-02-08T11:14:49Z</time>
      </trkpt>
      <trkpt lat="45.32011" lon="5.76132">
        <ele>1904.599</ele>
        <time>2013-02-08T11:14:58Z</time>
      </trkpt>
      <trkpt lat="45.32015" lon="5.76122">
        <ele>1906.717</ele>
        <time>2013-02-08T11:15:11Z</time>
      </trkpt>
      <trkpt lat="45.32019" lon="5.76113">
        <ele>1908.738</ele>
        <time>2013-02-08T11:15:24Z</time>
      </trkpt>
      <trkpt lat="45.32026" lon="5.76106">
        <ele>1911.13</ele>
        <time>2013-02-08T11:15:38Z</time>
      </trkpt>
      <trkpt lat="45.32032" lon="5.76103">
        <ele>1913.092</ele>
        <time>2013-02-08T11:15:50Z</time>
      </trkpt>
      <trkpt lat="45.32038" lon="5.76102">
        <ele>1915.225</ele>
        <time>2013-02-08T11:16:01Z</time>
      </trkpt>
      <trkpt lat="45.32043" lon="5.76103">
        <ele>1917.406</ele>
        <time>2013-02-08T11:16:13Z</time>
      </trkpt>
      <trkpt lat="45.32047" lon="5.76111">
        <ele>1919.594</ele>
        <time>2013-02-08T11:16:25Z</time>
      </trkpt>
      <trkpt lat="45.32051" lon="5.7612">
        <ele>1921.704</ele>
        <time>2013-02-08T11:16:39Z</time>
      </trkpt>
      <trkpt lat="45.32055" lon="5.76128">
        <ele>1923.758</ele>
        <time>2013-02-08T11:16:51Z</time>
      </trkpt>
      <trkpt lat="45.32059" lon="5.76134">
        <ele>1925.215</ele>
        <time>2013-02-08T11:17:01Z</time>
      </trkpt>
      <trkpt lat="45.32066" lon="5.76141">
        <ele>1927.734</ele>
        <time>2013-02-08T11:17:16Z</time>
      </trkpt>
      <trkpt lat="45.3207" lon="5.76145">
        <ele>1929.689</ele>
        <time>2013-02-08T11:17:26Z</time>
      </trkpt>
      <trkpt lat="45.32076" lon="5.76149">
        <ele>1931.24</ele>
        <time>2013-02-08T11:17:38Z</time>
      </trkpt>
      <trkpt lat="45.32082" lon="5.76154">
        <ele>1933.052</ele>
        <time>2013-02-08T11:17:49Z</time>
      </trkpt>
      <trkpt lat="45.32087" lon="5.76158">
        <ele>1934.735</ele>
        <time>2013-02-08T11:18:00Z</time>
      </trkpt>
      <trkpt lat="45.32092" lon="5.76157">
        <ele>1936.389</ele>
        <time>2013-02-08T11:18:10Z</time>
      </trkpt>
      <trkpt lat="45.32095" lon="5.76149">
        <ele>1938.281</ele>
        <time>2013-02-08T11:18:21Z</time>
      </trkpt>
      <trkpt lat="45.321" lon="5.76141">
        <ele>1940.556</ele>
        <time>2013-02-08T11:18:33Z</time>
      </trkpt>
      <trkpt lat="45.32105" lon="5.76139">
        <ele>1942.243</ele>
        <time>2013-02-08T11:18:43Z</time>
      </trkpt>
      <trkpt lat="45.3211" lon="5.76147">
        <ele>1944.474</ele>
        <time>2013-02-08T11:18:57Z</time>
      </trkpt>
      <trkpt lat="45.32115" lon="5.76153">
        <ele>1946.132</ele>
        <time>2013-02-08T11:19:08Z</time>
      </trkpt>
      <trkpt lat="45.3212" lon="5.76159">
        <ele>1948.005</ele>
        <time>2013-02-08T11:19:20Z</time>
      </trkpt>
      <trkpt lat="45.32124" lon="5.7616">
        <ele>1949.848</ele>
        <time>2013-02-08T11:19:30Z</time>
      </trkpt>
      <trkpt lat="45.32128" lon="5.7615">
        <ele>1951.679</ele>
        <time>2013-02-08T11:19:42Z</time>
      </trkpt>
      <trkpt lat="45.32132" lon="5.76144">
        <ele>1953.055</ele>
        <time>2013-02-08T11:19:51Z</time>
      </trkpt>
      <trkpt lat="45.32135" lon="5.76144">
        <ele>1955.002</ele>
        <time>2013-02-08T11:20:00Z</time>
      </trkpt>
      <trkpt lat="45.32139" lon="5.76151">
        <ele>1957.248</ele>
        <time>2013-02-08T11:20:12Z</time>
      </trkpt>
      <trkpt lat="45.32146" lon="5.76157">
        <ele>1959.29</ele>
        <time>2013-02-08T11:20:25Z</time>
      </trkpt>
      <trkpt lat="45.32151" lon="5.76161">
        <ele>1961.154</ele>
        <time>2013-02-08T11:20:36Z</time>
      </trkpt>
      <trkpt lat="45.32157" lon="5.76166">
        <ele>1963.722</ele>
        <time>2013-02-08T11:20:49Z</time>
      </trkpt>
      <trkpt lat="45.32165" lon="5.76172">
        <ele>1966.351</ele>
        <time>2013-02-08T11:21:06Z</time>
      </trkpt>
      <trkpt lat="45.32171" lon="5.76176">
        <ele>1968.509</ele>
        <time>2013-02-08T11:21:19Z</time>
      </trkpt>
      <trkpt lat="45.32177" lon="5.76178">
        <ele>1970.389</ele>
        <time>2013-02-08T11:21:30Z</time>
      </trkpt>
      <trkpt lat="45.32184" lon="5.76182">
        <ele>1972.369</ele>
        <time>2013-02-08T11:21:44Z</time>
      </trkpt>
      <trkpt lat="45.3219" lon="5.76185">
        <ele>1974.322</ele>
        <time>2013-02-08T11:21:55Z</time>
      </trkpt>
      <trkpt lat="45.32197" lon="5.76192">
        <ele>1976.158</ele>
        <time>2013-02-08T11:22:08Z</time>
      </trkpt>
      <trkpt lat="45.32203" lon="5.76197">
        <ele>1977.618</ele>
        <time>2013-02-08T11:22:19Z</time>
      </trkpt>
      <trkpt lat="45.32211" lon="5.762">
        <ele>1979.206</ele>
        <time>2013-02-08T11:22:31Z</time>
      </trkpt>
      <trkpt lat="45.3222" lon="5.76202">
        <ele>1981.285</ele>
        <time>2013-02-08T11:22:45Z</time>
      </trkpt>
      <trkpt lat="45.32225" lon="5.76198">
        <ele>1983.132</ele>
        <time>2013-02-08T11:22:55Z</time>
      </trkpt>
      <trkpt lat="45.32225" lon="5.7619">
        <ele>1984.726</ele>
        <time>2013-02-08T11:23:06Z</time>
      </trkpt>
      <trkpt lat="45.32228" lon="5.76189">
        <ele>1986.112</ele>
        <time>2013-02-08T11:23:12Z</time>
      </trkpt>
      <trkpt lat="45.32235" lon="5.76192">
        <ele>1988.359</ele>
        <time>2013-02-08T11:23:26Z</time>
      </trkpt>
      <trkpt lat="45.32242" lon="5.76193">
        <ele>1990.681</ele>
        <time>2013-02-08T11:23:39Z</time>
      </trkpt>
      <trkpt lat="45.32245" lon="5.76192">
        <ele>1992.165</ele>
        <time>2013-02-08T11:23:48Z</time>
      </trkpt>
      <trkpt lat="45.32244" lon="5.76188">
        <ele>1993.261</ele>
        <time>2013-02-08T11:23:54Z</time>
      </trkpt>
      <trkpt lat="45.32246" lon="5.76185">
        <ele>1995.171</ele>
        <time>2013-02-08T11:24:02Z</time>
      </trkpt>
      <trkpt lat="45.32254" lon="5.76185">
        <ele>1997.135</ele>
        <time>2013-02-08T11:24:16Z</time>
      </trkpt>
      <trkpt lat="45.32261" lon="5.76186">
        <ele>1998.669</ele>
        <time>2013-02-08T11:24:27Z</time>
      </trkpt>
      <trkpt lat="45.32268" lon="5.76187">
        <ele>1999.505</ele>
        <time>2013-02-08T11:24:38Z</time>
      </trkpt>
      <trkpt lat="45.32275" lon="5.76187">
        <ele>2000.88</ele>
        <time>2013-02-08T11:24:49Z</time>
      </trkpt>
      <trkpt lat="45.32283" lon="5.76188">
        <ele>2001.577</ele>
        <time>2013-02-08T11:25:00Z</time>
      </trkpt>
      <trkpt lat="45.32289" lon="5.7619">
        <ele>2002.396</ele>
        <time>2013-02-08T11:25:10Z</time>
      </trkpt>
      <trkpt lat="45.32297" lon="5.76191">
        <ele>2005.358</ele>
        <time>2013-02-08T11:25:24Z</time>
      </trkpt>
      <trkpt lat="45.32302" lon="5.76198">
        <ele>2006.139</ele>
        <time>2013-02-08T11:25:34Z</time>
      </trkpt>
      <trkpt lat="45.32305" lon="5.7621">
        <ele>2006.32</ele>
        <time>2013-02-08T11:25:42Z</time>
      </trkpt>
      <trkpt lat="45.32314" lon="5.76214">
        <ele>2004.288</ele>
        <time>2013-02-08T11:25:46Z</time>
      </trkpt>
      <trkpt lat="45.3232" lon="5.76216">
        <ele>2003.182</ele>
        <time>2013-02-08T11:25:51Z</time>
      </trkpt>
      <trkpt lat="45.32327" lon="5.76218">
        <ele>2002.432</ele>
        <time>2013-02-08T11:25:57Z</time>
      </trkpt>
      <trkpt lat="45.32333" lon="5.7623">
        <ele>2002.873</ele>
        <time>2013-02-08T11:26:07Z</time>
      </trkpt>
      <trkpt lat="45.32341" lon="5.76242">
        <ele>2001.166</ele>
        <time>2013-02-08T11:26:14Z</time>
      </trkpt>
      <trkpt lat="45.3235" lon="5.76255">
        <ele>1999.988</ele>
        <time>2013-02-08T11:26:23Z</time>
      </trkpt>
      <trkpt lat="45.32356" lon="5.76264">
        <ele>2000.59</ele>
        <time>2013-02-08T11:26:32Z</time>
      </trkpt>
      <trkpt lat="45.32361" lon="5.76275">
        <ele>2000.953</ele>
        <time>2013-02-08T11:26:42Z</time>
      </trkpt>
      <trkpt lat="45.32366" lon="5.76284">
        <ele>2001.488</ele>
        <time>2013-02-08T11:26:51Z</time>
      </trkpt>
      <trkpt lat="45.3237" lon="5.76294">
        <ele>2002.236</ele>
        <time>2013-02-08T11:27:01Z</time>
      </trkpt>
      <trkpt lat="45.32376" lon="5.76305">
        <ele>2003.29</ele>
        <time>2013-02-08T11:27:12Z</time>
      </trkpt>
      <trkpt lat="45.3238" lon="5.76316">
        <ele>2004.361</ele>
        <time>2013-02-08T11:27:23Z</time>
      </trkpt>
      <trkpt lat="45.32385" lon="5.76326">
        <ele>2005.626</ele>
        <time>2013-02-08T11:27:35Z</time>
      </trkpt>
      <trkpt lat="45.32391" lon="5.76335">
        <ele>2007.419</ele>
        <time>2013-02-08T11:27:47Z</time>
      </trkpt>
      <trkpt lat="45.32398" lon="5.76341">
        <ele>2009.623</ele>
        <time>2013-02-08T11:28:00Z</time>
      </trkpt>
      <trkpt lat="45.32405" lon="5.76346">
        <ele>2011.735</ele>
        <time>2013-02-08T11:28:13Z</time>
      </trkpt>
      <trkpt lat="45.32412" lon="5.76352">
        <ele>2014.514</ele>
        <time>2013-02-08T11:28:26Z</time>
      </trkpt>
      <trkpt lat="45.32419" lon="5.76358">
        <ele>2016.047</ele>
        <time>2013-02-08T11:28:39Z</time>
      </trkpt>
      <trkpt lat="45.32427" lon="5.76365">
        <ele>2017.48</ele>
        <time>2013-02-08T11:28:51Z</time>
      </trkpt>
      <trkpt lat="45.32436" lon="5.76371">
        <ele>2019.37</ele>
        <time>2013-02-08T11:29:05Z</time>
      </trkpt>
      <trkpt lat="45.32444" lon="5.76376">
        <ele>2021.294</ele>
        <time>2013-02-08T11:29:19Z</time>
      </trkpt>
      <trkpt lat="45.32452" lon="5.76381">
        <ele>2023.337</ele>
        <time>2013-02-08T11:29:31Z</time>
      </trkpt>
      <trkpt lat="45.32459" lon="5.76385">
        <ele>2025.143</ele>
        <time>2013-02-08T11:29:43Z</time>
      </trkpt>
      <trkpt lat="45.32467" lon="5.7639">
        <ele>2027.085</ele>
        <time>2013-02-08T11:29:56Z</time>
      </trkpt>
      <trkpt lat="45.32474" lon="5.76394">
        <ele>2029.697</ele>
        <time>2013-02-08T11:30:08Z</time>
      </trkpt>
      <trkpt lat="45.32482" lon="5.76399">
        <ele>2031.637</ele>
        <time>2013-02-08T11:30:22Z</time>
      </trkpt>
      <trkpt lat="45.32489" lon="5.76405">
        <ele>2034.286</ele>
        <time>2013-02-08T11:30:36Z</time>
      </trkpt>
      <trkpt lat="45.32496" lon="5.76409">
        <ele>2036.157</ele>
        <time>2013-02-08T11:30:47Z</time>
      </trkpt>
      <trkpt lat="45.32502" lon="5.76415">
        <ele>2036.749</ele>
        <time>2013-02-08T11:30:58Z</time>
      </trkpt>
      <trkpt lat="45.32503" lon="5.76417">
        <ele>2037.08</ele>
        <time>2013-02-08T11:31:07Z</time>
      </trkpt>
      <trkpt lat="45.32503" lon="5.76417">
        <ele>2036.182</ele>
        <time>2013-02-08T11:31:15Z</time>
      </trkpt>
      <trkpt lat="45.32503" lon="5.7642">
        <ele>2036.674</ele>
        <time>2013-02-08T11:33:36Z</time>
      </trkpt>
      <trkpt lat="45.32503" lon="5.76421">
        <ele>2036.961</ele>
        <time>2013-02-08T11:41:36Z</time>
      </trkpt>
      <trkpt lat="45.32504" lon="5.76421">
        <ele>2036.699</ele>
        <time>2013-02-08T11:43:11Z</time>
      </trkpt>
      <trkpt lat="45.32504" lon="5.76417">
        <ele>2034.984</ele>
        <time>2013-02-08T11:44:54Z</time>
      </trkpt>
      <trkpt lat="45.32504" lon="5.76418">
        <ele>2036.219</ele>
        <time>2013-02-08T11:47:45Z</time>
      </trkpt>
      <trkpt lat="45.32505" lon="5.76418">
        <ele>2036.417</ele>
        <time>2013-02-08T11:48:06Z</time>
      </trkpt>
      <trkpt lat="45.32505" lon="5.76418">
        <ele>2036.01</ele>
        <time>2013-02-08T11:48:15Z</time>
      </trkpt>
      <trkpt lat="45.32508" lon="5.76416">
        <ele>2035.45</ele>
        <time>2013-02-08T11:48:49Z</time>
      </trkpt>
      <trkpt lat="45.32509" lon="5.76415">
        <ele>2035.179</ele>
        <time>2013-02-08T11:48:54Z</time>
      </trkpt>
      <trkpt lat="45.32511" lon="5.76415">
        <ele>2035.599</ele>
        <time>2013-02-08T11:48:56Z</time>
      </trkpt>
      <trkpt lat="45.32516" lon="5.76411">
        <ele>2035.812</ele>
        <time>2013-02-08T11:49:02Z</time>
      </trkpt>
      <trkpt lat="45.32525" lon="5.76405">
        <ele>2034.859</ele>
        <time>2013-02-08T11:49:10Z</time>
      </trkpt>
      <trkpt lat="45.32525" lon="5.76402">
        <ele>2034.439</ele>
        <time>2013-02-08T11:49:16Z</time>
      </trkpt>
      <trkpt lat="45.32524" lon="5.76405">
        <ele>2033.368</ele>
        <time>2013-02-08T11:50:42Z</time>
      </trkpt>
      <trkpt lat="45.3252" lon="5.76408">
        <ele>2034.483</ele>
        <time>2013-02-08T11:50:57Z</time>
      </trkpt>
      <trkpt lat="45.32519" lon="5.76409">
        <ele>2033.901</ele>
        <time>2013-02-08T11:51:05Z</time>
      </trkpt>
      <trkpt lat="45.32516" lon="5.76411">
        <ele>2034.16</ele>
        <time>2013-02-08T11:51:11Z</time>
      </trkpt>
      <trkpt lat="45.32515" lon="5.76411">
        <ele>2034.858</ele>
        <time>2013-02-08T11:51:19Z</time>
      </trkpt>
      <trkpt lat="45.32514" lon="5.76411">
        <ele>2034.555</ele>
        <time>2013-02-08T11:51:22Z</time>
      </trkpt>
      <trkpt lat="45.32512" lon="5.76412">
        <ele>2034.654</ele>
        <time>2013-02-08T11:51:29Z</time>
      </trkpt>
      <trkpt lat="45.32511" lon="5.76412">
        <ele>2034.486</ele>
        <time>2013-02-08T11:51:39Z</time>
      </trkpt>
      <trkpt lat="45.32511" lon="5.76414">
        <ele>2034.618</ele>
        <time>2013-02-08T11:51:43Z</time>
      </trkpt>
      <trkpt lat="45.32509" lon="5.76418">
        <ele>2034.78</ele>
        <time>2013-02-08T11:51:49Z</time>
      </trkpt>
      <trkpt lat="45.32508" lon="5.76419">
        <ele>2033.388</ele>
        <time>2013-02-08T11:52:00Z</time>
      </trkpt>
      <trkpt lat="45.32508" lon="5.7642">
        <ele>2026.959</ele>
        <time>2013-02-08T11:52:13Z</time>
      </trkpt>
      <trkpt lat="45.32508" lon="5.7642">
        <ele>2039.801</ele>
        <time>2013-02-08T11:52:15Z</time>
      </trkpt>
      <trkpt lat="45.32507" lon="5.76423">
        <ele>2034.543</ele>
        <time>2013-02-08T11:52:19Z</time>
      </trkpt>
      <trkpt lat="45.32507" lon="5.76425">
        <ele>2034.129</ele>
        <time>2013-02-08T11:52:27Z</time>
      </trkpt>
      <trkpt lat="45.32506" lon="5.76426">
        <ele>2034.478</ele>
        <time>2013-02-08T11:53:01Z</time>
      </trkpt>
      <trkpt lat="45.32511" lon="5.76432">
        <ele>2033.415</ele>
        <time>2013-02-08T11:53:07Z</time>
      </trkpt>
      <trkpt lat="45.32521" lon="5.76444">
        <ele>2031.598</ele>
        <time>2013-02-08T11:53:13Z</time>
      </trkpt>
      <trkpt lat="45.32532" lon="5.76456">
        <ele>2028.048</ele>
        <time>2013-02-08T11:53:19Z</time>
      </trkpt>
      <trkpt lat="45.32534" lon="5.76457">
        <ele>2027.75</ele>
        <time>2013-02-08T11:53:20Z</time>
      </trkpt>
      <trkpt lat="45.32541" lon="5.76471">
        <ele>2023.697</ele>
        <time>2013-02-08T11:53:24Z</time>
      </trkpt>
      <trkpt lat="45.32545" lon="5.76474">
        <ele>2021.763</ele>
        <time>2013-02-08T11:53:27Z</time>
      </trkpt>
      <trkpt lat="45.32549" lon="5.76475">
        <ele>2020.888</ele>
        <time>2013-02-08T11:53:55Z</time>
      </trkpt>
      <trkpt lat="45.3255" lon="5.76471">
        <ele>2019.623</ele>
        <time>2013-02-08T11:54:00Z</time>
      </trkpt>
      <trkpt lat="45.3255" lon="5.76471">
        <ele>2019.776</ele>
        <time>2013-02-08T11:54:25Z</time>
      </trkpt>
      <trkpt lat="45.32548" lon="5.7647">
        <ele>2019.697</ele>
        <time>2013-02-08T11:54:49Z</time>
      </trkpt>
      <trkpt lat="45.32549" lon="5.76455">
        <ele>2017.698</ele>
        <time>2013-02-08T11:54:54Z</time>
      </trkpt>
      <trkpt lat="45.32548" lon="5.76454">
        <ele>2016.714</ele>
        <time>2013-02-08T11:54:58Z</time>
      </trkpt>
      <trkpt lat="45.32551" lon="5.76449">
        <ele>2015.333</ele>
        <time>2013-02-08T11:55:26Z</time>
      </trkpt>
      <trkpt lat="45.32549" lon="5.76446">
        <ele>2014.095</ele>
        <time>2013-02-08T11:55:31Z</time>
      </trkpt>
      <trkpt lat="45.32549" lon="5.76443">
        <ele>2011.483</ele>
        <time>2013-02-08T11:56:04Z</time>
      </trkpt>
      <trkpt lat="45.32549" lon="5.76443">
        <ele>2011.381</ele>
        <time>2013-02-08T11:56:05Z</time>
      </trkpt>
      <trkpt lat="45.3255" lon="5.76445">
        <ele>2009.817</ele>
        <time>2013-02-08T11:56:11Z</time>
      </trkpt>
      <trkpt lat="45.32552" lon="5.76449">
        <ele>2007.595</ele>
        <time>2013-02-08T11:56:18Z</time>
      </trkpt>
      <trkpt lat="45.32557" lon="5.76448">
        <ele>2003.742</ele>
        <time>2013-02-08T11:56:46Z</time>
      </trkpt>
      <trkpt lat="45.32561" lon="5.76447">
        <ele>2000.994</ele>
        <time>2013-02-08T11:57:17Z</time>
      </trkpt>
      <trkpt lat="45.32564" lon="5.76447">
        <ele>1999.343</ele>
        <time>2013-02-08T11:57:22Z</time>
      </trkpt>
      <trkpt lat="45.32565" lon="5.76448">
        <ele>1996.716</ele>
        <time>2013-02-08T11:57:44Z</time>
      </trkpt>
      <trkpt lat="45.32564" lon="5.76447">
        <ele>1997.005</ele>
        <time>2013-02-08T11:57:56Z</time>
      </trkpt>
      <trkpt lat="45.32566" lon="5.76448">
        <ele>1997.019</ele>
        <time>2013-02-08T11:58:33Z</time>
      </trkpt>
      <trkpt lat="45.32569" lon="5.76447">
        <ele>1995.309</ele>
        <time>2013-02-08T11:58:37Z</time>
      </trkpt>
      <trkpt lat="45.3257" lon="5.76448">
        <ele>1994.848</ele>
        <time>2013-02-08T11:59:06Z</time>
      </trkpt>
      <trkpt lat="45.32569" lon="5.76447">
        <ele>1995.473</ele>
        <time>2013-02-08T11:59:11Z</time>
      </trkpt>
      <trkpt lat="45.32572" lon="5.76446">
        <ele>1994.738</ele>
        <time>2013-02-08T11:59:50Z</time>
      </trkpt>
      <trkpt lat="45.32572" lon="5.76443">
        <ele>1992.99</ele>
        <time>2013-02-08T11:59:54Z</time>
      </trkpt>
      <trkpt lat="45.32575" lon="5.76437">
        <ele>1990.884</ele>
        <time>2013-02-08T11:59:58Z</time>
      </trkpt>
      <trkpt lat="45.3258" lon="5.7643">
        <ele>1985.09</ele>
        <time>2013-02-08T12:00:01Z</time>
      </trkpt>
      <trkpt lat="45.32584" lon="5.76421">
        <ele>1977.263</ele>
        <time>2013-02-08T12:00:06Z</time>
      </trkpt>
      <trkpt lat="45.32585" lon="5.76418">
        <ele>1975.893</ele>
        <time>2013-02-08T12:00:07Z</time>
      </trkpt>
      <trkpt lat="45.32589" lon="5.76403">
        <ele>1966.219</ele>
        <time>2013-02-08T12:00:12Z</time>
      </trkpt>
      <trkpt lat="45.32589" lon="5.76393">
        <ele>1959.404</ele>
        <time>2013-02-08T12:00:15Z</time>
      </trkpt>
      <trkpt lat="45.3259" lon="5.76391">
        <ele>1954.784</ele>
        <time>2013-02-08T12:00:20Z</time>
      </trkpt>
      <trkpt lat="45.32592" lon="5.76397">
        <ele>1952.395</ele>
        <time>2013-02-08T12:00:46Z</time>
      </trkpt>
      <trkpt lat="45.32597" lon="5.76396">
        <ele>1953.696</ele>
        <time>2013-02-08T12:01:35Z</time>
      </trkpt>
      <trkpt lat="45.32601" lon="5.7638">
        <ele>1946.727</ele>
        <time>2013-02-08T12:01:40Z</time>
      </trkpt>
      <trkpt lat="45.32605" lon="5.76361">
        <ele>1934.716</ele>
        <time>2013-02-08T12:01:45Z</time>
      </trkpt>
      <trkpt lat="45.32607" lon="5.76338">
        <ele>1922.43</ele>
        <time>2013-02-08T12:01:50Z</time>
      </trkpt>
      <trkpt lat="45.32606" lon="5.76321">
        <ele>1910.541</ele>
        <time>2013-02-08T12:01:54Z</time>
      </trkpt>
      <trkpt lat="45.32606" lon="5.76317">
        <ele>1908.782</ele>
        <time>2013-02-08T12:01:55Z</time>
      </trkpt>
      <trkpt lat="45.32608" lon="5.76297">
        <ele>1897.365</ele>
        <time>2013-02-08T12:01:59Z</time>
      </trkpt>
      <trkpt lat="45.32609" lon="5.76277">
        <ele>1887.172</ele>
        <time>2013-02-08T12:02:03Z</time>
      </trkpt>
      <trkpt lat="45.3261" lon="5.76254">
        <ele>1873.544</ele>
        <time>2013-02-08T12:02:08Z</time>
      </trkpt>
      <trkpt lat="45.32614" lon="5.76234">
        <ele>1862.936</ele>
        <time>2013-02-08T12:02:12Z</time>
      </trkpt>
      <trkpt lat="45.32614" lon="5.76229">
        <ele>1859.861</ele>
        <time>2013-02-08T12:02:13Z</time>
      </trkpt>
      <trkpt lat="45.32613" lon="5.76199">
        <ele>1843.603</ele>
        <time>2013-02-08T12:02:18Z</time>
      </trkpt>
      <trkpt lat="45.32609" lon="5.76188">
        <ele>1834.961</ele>
        <time>2013-02-08T12:02:21Z</time>
      </trkpt>
      <trkpt lat="45.32609" lon="5.76185">
        <ele>1831.937</ele>
        <time>2013-02-08T12:02:23Z</time>
      </trkpt>
      <trkpt lat="45.32631" lon="5.76176">
        <ele>1827.13</ele>
        <time>2013-02-08T12:02:28Z</time>
      </trkpt>
      <trkpt lat="45.32647" lon="5.76175">
        <ele>1827.186</ele>
        <time>2013-02-08T12:02:33Z</time>
      </trkpt>
      <trkpt lat="45.32649" lon="5.76176">
        <ele>1826.847</ele>
        <time>2013-02-08T12:02:51Z</time>
      </trkpt>
      <trkpt lat="45.32644" lon="5.76174">
        <ele>1827.117</ele>
        <time>2013-02-08T12:03:17Z</time>
      </trkpt>
      <trkpt lat="45.32639" lon="5.76179">
        <ele>1826.563</ele>
        <time>2013-02-08T12:04:01Z</time>
      </trkpt>
      <trkpt lat="45.32641" lon="5.76164">
        <ele>1823.756</ele>
        <time>2013-02-08T12:04:06Z</time>
      </trkpt>
      <trkpt lat="45.32634" lon="5.76149">
        <ele>1818.996</ele>
        <time>2013-02-08T12:04:09Z</time>
      </trkpt>
      <trkpt lat="45.32632" lon="5.76143">
        <ele>1815.874</ele>
        <time>2013-02-08T12:04:10Z</time>
      </trkpt>
      <trkpt lat="45.32624" lon="5.76105">
        <ele>1798.055</ele>
        <time>2013-02-08T12:04:16Z</time>
      </trkpt>
      <trkpt lat="45.32622" lon="5.76086">
        <ele>1788.453</ele>
        <time>2013-02-08T12:04:20Z</time>
      </trkpt>
      <trkpt lat="45.32629" lon="5.76078">
        <ele>1784.808</ele>
        <time>2013-02-08T12:04:22Z</time>
      </trkpt>
      <trkpt lat="45.32636" lon="5.76066">
        <ele>1782.456</ele>
        <time>2013-02-08T12:04:25Z</time>
      </trkpt>
      <trkpt lat="45.32633" lon="5.76057">
        <ele>1774.934</ele>
        <time>2013-02-08T12:04:29Z</time>
      </trkpt>
      <trkpt lat="45.32632" lon="5.76047">
        <ele>1768.964</ele>
        <time>2013-02-08T12:04:32Z</time>
      </trkpt>
      <trkpt lat="45.32633" lon="5.76043">
        <ele>1764.444</ele>
        <time>2013-02-08T12:04:34Z</time>
      </trkpt>
      <trkpt lat="45.32638" lon="5.7603">
        <ele>1759.595</ele>
        <time>2013-02-08T12:04:39Z</time>
      </trkpt>
      <trkpt lat="45.32648" lon="5.76008">
        <ele>1755.73</ele>
        <time>2013-02-08T12:04:44Z</time>
      </trkpt>
      <trkpt lat="45.32655" lon="5.75997">
        <ele>1753.805</ele>
        <time>2013-02-08T12:04:47Z</time>
      </trkpt>
      <trkpt lat="45.32663" lon="5.75985">
        <ele>1750.455</ele>
        <time>2013-02-08T12:04:50Z</time>
      </trkpt>
      <trkpt lat="45.32668" lon="5.75962">
        <ele>1742.028</ele>
        <time>2013-02-08T12:04:55Z</time>
      </trkpt>
      <trkpt lat="45.32665" lon="5.75944">
        <ele>1730.073</ele>
        <time>2013-02-08T12:04:59Z</time>
      </trkpt>
      <trkpt lat="45.32665" lon="5.7594">
        <ele>1727.107</ele>
        <time>2013-02-08T12:05:00Z</time>
      </trkpt>
      <trkpt lat="45.32654" lon="5.75918">
        <ele>1712.681</ele>
        <time>2013-02-08T12:05:05Z</time>
      </trkpt>
      <trkpt lat="45.32657" lon="5.75901">
        <ele>1701.75</ele>
        <time>2013-02-08T12:05:09Z</time>
      </trkpt>
      <trkpt lat="45.32659" lon="5.75882">
        <ele>1692.808</ele>
        <time>2013-02-08T12:05:12Z</time>
      </trkpt>
      <trkpt lat="45.32664" lon="5.75862">
        <ele>1684.25</ele>
        <time>2013-02-08T12:05:16Z</time>
      </trkpt>
      <trkpt lat="45.32667" lon="5.7585">
        <ele>1679.53</ele>
        <time>2013-02-08T12:05:18Z</time>
      </trkpt>
      <trkpt lat="45.32682" lon="5.75818">
        <ele>1674.363</ele>
        <time>2013-02-08T12:05:22Z</time>
      </trkpt>
      <trkpt lat="45.32684" lon="5.7581">
        <ele>1673.495</ele>
        <time>2013-02-08T12:05:23Z</time>
      </trkpt>
      <trkpt lat="45.32674" lon="5.75779">
        <ele>1671.164</ele>
        <time>2013-02-08T12:05:27Z</time>
      </trkpt>
      <trkpt lat="45.32662" lon="5.75772">
        <ele>1667.666</ele>
        <time>2013-02-08T12:05:29Z</time>
      </trkpt>
      <trkpt lat="45.32645" lon="5.75759">
        <ele>1660.647</ele>
        <time>2013-02-08T12:05:32Z</time>
      </trkpt>
      <trkpt lat="45.3263" lon="5.75743">
        <ele>1652.124</ele>
        <time>2013-02-08T12:05:37Z</time>
      </trkpt>
      <trkpt lat="45.32624" lon="5.75736">
        <ele>1648.548</ele>
        <time>2013-02-08T12:05:40Z</time>
      </trkpt>
      <trkpt lat="45.32623" lon="5.75733">
        <ele>1647.311</ele>
        <time>2013-02-08T12:05:41Z</time>
      </trkpt>
      <trkpt lat="45.32621" lon="5.75724">
        <ele>1644.414</ele>
        <time>2013-02-08T12:05:47Z</time>
      </trkpt>
      <trkpt lat="45.32612" lon="5.75728">
        <ele>1644.889</ele>
        <time>2013-02-08T12:07:34Z</time>
      </trkpt>
      <trkpt lat="45.32612" lon="5.75724">
        <ele>1644.081</ele>
        <time>2013-02-08T12:07:37Z</time>
      </trkpt>
      <trkpt lat="45.32604" lon="5.7571">
        <ele>1641.645</ele>
        <time>2013-02-08T12:07:42Z</time>
      </trkpt>
      <trkpt lat="45.32598" lon="5.75692">
        <ele>1638.348</ele>
        <time>2013-02-08T12:07:46Z</time>
      </trkpt>
      <trkpt lat="45.32592" lon="5.75671">
        <ele>1635.213</ele>
        <time>2013-02-08T12:07:51Z</time>
      </trkpt>
      <trkpt lat="45.32586" lon="5.75652">
        <ele>1632.703</ele>
        <time>2013-02-08T12:07:55Z</time>
      </trkpt>
      <trkpt lat="45.32593" lon="5.75636">
        <ele>1627.256</ele>
        <time>2013-02-08T12:07:59Z</time>
      </trkpt>
      <trkpt lat="45.32596" lon="5.75634">
        <ele>1626.14</ele>
        <time>2013-02-08T12:08:00Z</time>
      </trkpt>
      <trkpt lat="45.32618" lon="5.75618">
        <ele>1615.299</ele>
        <time>2013-02-08T12:08:05Z</time>
      </trkpt>
      <trkpt lat="45.3263" lon="5.75606">
        <ele>1607.683</ele>
        <time>2013-02-08T12:08:08Z</time>
      </trkpt>
      <trkpt lat="45.32652" lon="5.75588">
        <ele>1603.022</ele>
        <time>2013-02-08T12:08:12Z</time>
      </trkpt>
      <trkpt lat="45.32657" lon="5.75559">
        <ele>1596.712</ele>
        <time>2013-02-08T12:08:16Z</time>
      </trkpt>
      <trkpt lat="45.32656" lon="5.75551">
        <ele>1596.036</ele>
        <time>2013-02-08T12:08:17Z</time>
      </trkpt>
      <trkpt lat="45.32653" lon="5.75535">
        <ele>1595.23</ele>
        <time>2013-02-08T12:08:21Z</time>
      </trkpt>
      <trkpt lat="45.32651" lon="5.75528">
        <ele>1594.929</ele>
        <time>2013-02-08T12:08:27Z</time>
      </trkpt>
      <trkpt lat="45.32647" lon="5.7552">
        <ele>1593.926</ele>
        <time>2013-02-08T12:08:33Z</time>
      </trkpt>
      <trkpt lat="45.32643" lon="5.75509">
        <ele>1593.934</ele>
        <time>2013-02-08T12:08:55Z</time>
      </trkpt>
      <trkpt lat="45.32637" lon="5.75502">
        <ele>1592.929</ele>
        <time>2013-02-08T12:09:00Z</time>
      </trkpt>
      <trkpt lat="45.32626" lon="5.75476">
        <ele>1588.855</ele>
        <time>2013-02-08T12:09:06Z</time>
      </trkpt>
      <trkpt lat="45.32615" lon="5.75455">
        <ele>1585.061</ele>
        <time>2013-02-08T12:09:11Z</time>
      </trkpt>
      <trkpt lat="45.32606" lon="5.75436">
        <ele>1581.752</ele>
        <time>2013-02-08T12:09:15Z</time>
      </trkpt>
      <trkpt lat="45.32594" lon="5.75416">
        <ele>1577.039</ele>
        <time>2013-02-08T12:09:20Z</time>
      </trkpt>
      <trkpt lat="45.32581" lon="5.75387">
        <ele>1567.484</ele>
        <time>2013-02-08T12:09:25Z</time>
      </trkpt>
      <trkpt lat="45.32573" lon="5.75377">
        <ele>1564.836</ele>
        <time>2013-02-08T12:09:27Z</time>
      </trkpt>
      <trkpt lat="45.32561" lon="5.75353">
        <ele>1557.036</ele>
        <time>2013-02-08T12:09:33Z</time>
      </trkpt>
      <trkpt lat="45.32553" lon="5.75338">
        <ele>1551.595</ele>
        <time>2013-02-08T12:09:36Z</time>
      </trkpt>
      <trkpt lat="45.3255" lon="5.75301">
        <ele>1544.269</ele>
        <time>2013-02-08T12:09:41Z</time>
      </trkpt>
      <trkpt lat="45.32551" lon="5.753">
        <ele>1544.313</ele>
        <time>2013-02-08T12:09:44Z</time>
      </trkpt>
      <trkpt lat="45.32551" lon="5.75295">
        <ele>1544.238</ele>
        <time>2013-02-08T12:10:04Z</time>
      </trkpt>
      <trkpt lat="45.32537" lon="5.75285">
        <ele>1541.523</ele>
        <time>2013-02-08T12:10:09Z</time>
      </trkpt>
      <trkpt lat="45.32522" lon="5.75271">
        <ele>1537.422</ele>
        <time>2013-02-08T12:10:14Z</time>
      </trkpt>
      <trkpt lat="45.32517" lon="5.75263">
        <ele>1535.678</ele>
        <time>2013-02-08T12:10:17Z</time>
      </trkpt>
      <trkpt lat="45.3251" lon="5.75249">
        <ele>1533.042</ele>
        <time>2013-02-08T12:10:22Z</time>
      </trkpt>
      <trkpt lat="45.32503" lon="5.7523">
        <ele>1526.786</ele>
        <time>2013-02-08T12:10:27Z</time>
      </trkpt>
      <trkpt lat="45.32499" lon="5.75208">
        <ele>1522.114</ele>
        <time>2013-02-08T12:10:30Z</time>
      </trkpt>
      <trkpt lat="45.32506" lon="5.75174">
        <ele>1513.93</ele>
        <time>2013-02-08T12:10:35Z</time>
      </trkpt>
      <trkpt lat="45.32518" lon="5.75155">
        <ele>1509.787</ele>
        <time>2013-02-08T12:10:40Z</time>
      </trkpt>
      <trkpt lat="45.32518" lon="5.75151">
        <ele>1509.563</ele>
        <time>2013-02-08T12:10:41Z</time>
      </trkpt>
      <trkpt lat="45.32519" lon="5.75135">
        <ele>1506.655</ele>
        <time>2013-02-08T12:10:45Z</time>
      </trkpt>
      <trkpt lat="45.32516" lon="5.75126">
        <ele>1505.287</ele>
        <time>2013-02-08T12:10:47Z</time>
      </trkpt>
      <trkpt lat="45.32511" lon="5.75091">
        <ele>1499.34</ele>
        <time>2013-02-08T12:10:53Z</time>
      </trkpt>
      <trkpt lat="45.3251" lon="5.7507">
        <ele>1494.353</ele>
        <time>2013-02-08T12:10:58Z</time>
      </trkpt>
      <trkpt lat="45.32508" lon="5.75046">
        <ele>1487.677</ele>
        <time>2013-02-08T12:11:02Z</time>
      </trkpt>
      <trkpt lat="45.32513" lon="5.75028">
        <ele>1484.182</ele>
        <time>2013-02-08T12:11:05Z</time>
      </trkpt>
      <trkpt lat="45.32507" lon="5.75007">
        <ele>1479.525</ele>
        <time>2013-02-08T12:11:11Z</time>
      </trkpt>
      <trkpt lat="45.32501" lon="5.74992">
        <ele>1474.325</ele>
        <time>2013-02-08T12:11:14Z</time>
      </trkpt>
      <trkpt lat="45.32497" lon="5.74955">
        <ele>1466.201</ele>
        <time>2013-02-08T12:11:19Z</time>
      </trkpt>
      <trkpt lat="45.32498" lon="5.74952">
        <ele>1464.774</ele>
        <time>2013-02-08T12:11:20Z</time>
      </trkpt>
      <trkpt lat="45.32498" lon="5.7493">
        <ele>1458.867</ele>
        <time>2013-02-08T12:11:25Z</time>
      </trkpt>
      <trkpt lat="45.32493" lon="5.74914">
        <ele>1455.373</ele>
        <time>2013-02-08T12:11:28Z</time>
      </trkpt>
      <trkpt lat="45.32489" lon="5.74912">
        <ele>1454.255</ele>
        <time>2013-02-08T12:11:29Z</time>
      </trkpt>
      <trkpt lat="45.32481" lon="5.74886">
        <ele>1450.32</ele>
        <time>2013-02-08T12:11:34Z</time>
      </trkpt>
      <trkpt lat="45.3248" lon="5.7488">
        <ele>1449.371</ele>
        <time>2013-02-08T12:11:36Z</time>
      </trkpt>
      <trkpt lat="45.3247" lon="5.74863">
        <ele>1447.62</ele>
        <time>2013-02-08T12:11:40Z</time>
      </trkpt>
      <trkpt lat="45.32462" lon="5.74816">
        <ele>1441.076</ele>
        <time>2013-02-08T12:11:46Z</time>
      </trkpt>
      <trkpt lat="45.32462" lon="5.74797">
        <ele>1437.619</ele>
        <time>2013-02-08T12:11:49Z</time>
      </trkpt>
      <trkpt lat="45.32457" lon="5.74776">
        <ele>1434.582</ele>
        <time>2013-02-08T12:11:52Z</time>
      </trkpt>
      <trkpt lat="45.32447" lon="5.74735">
        <ele>1429.587</ele>
        <time>2013-02-08T12:11:57Z</time>
      </trkpt>
      <trkpt lat="45.32441" lon="5.74735">
        <ele>1428.601</ele>
        <time>2013-02-08T12:12:02Z</time>
      </trkpt>
      <trkpt lat="45.32442" lon="5.74733">
        <ele>1427.258</ele>
        <time>2013-02-08T12:12:04Z</time>
      </trkpt>
      <trkpt lat="45.32445" lon="5.74736">
        <ele>1428.606</ele>
        <time>2013-02-08T12:12:07Z</time>
      </trkpt>
      <trkpt lat="45.32447" lon="5.74739">
        <ele>1431.072</ele>
        <time>2013-02-08T12:12:11Z</time>
      </trkpt>
      <trkpt lat="45.3244" lon="5.74733">
        <ele>1429.045</ele>
        <time>2013-02-08T12:12:43Z</time>
      </trkpt>
      <trkpt lat="45.32435" lon="5.74731">
        <ele>1428.038</ele>
        <time>2013-02-08T12:12:47Z</time>
      </trkpt>
      <trkpt lat="45.32433" lon="5.74734">
        <ele>1427.096</ele>
        <time>2013-02-08T12:12:53Z</time>
      </trkpt>
      <trkpt lat="45.32432" lon="5.74743">
        <ele>1426.131</ele>
        <time>2013-02-08T12:12:58Z</time>
      </trkpt>
      <trkpt lat="45.3243" lon="5.74748">
        <ele>1426.356</ele>
        <time>2013-02-08T12:13:10Z</time>
      </trkpt>
      <trkpt lat="45.32427" lon="5.74739">
        <ele>1427.098</ele>
        <time>2013-02-08T12:13:47Z</time>
      </trkpt>
      <trkpt lat="45.32425" lon="5.74737">
        <ele>1426.589</ele>
        <time>2013-02-08T12:13:53Z</time>
      </trkpt>
      <trkpt lat="45.32425" lon="5.74733">
        <ele>1426.783</ele>
        <time>2013-02-08T12:13:59Z</time>
      </trkpt>
      <trkpt lat="45.32424" lon="5.74726">
        <ele>1426.245</ele>
        <time>2013-02-08T12:14:05Z</time>
      </trkpt>
      <trkpt lat="45.32423" lon="5.74724">
        <ele>1426.297</ele>
        <time>2013-02-08T12:14:11Z</time>
      </trkpt>
      <trkpt lat="45.32422" lon="5.74723">
        <ele>1426.583</ele>
        <time>2013-02-08T12:14:22Z</time>
      </trkpt>
      <trkpt lat="45.32419" lon="5.74721">
        <ele>1426.557</ele>
        <time>2013-02-08T12:14:43Z</time>
      </trkpt>
      <trkpt lat="45.32417" lon="5.74728">
        <ele>1423.012</ele>
        <time>2013-02-08T12:15:29Z</time>
      </trkpt>
      <trkpt lat="45.3242" lon="5.74728">
        <ele>1427.651</ele>
        <time>2013-02-08T12:15:38Z</time>
      </trkpt>
      <trkpt lat="45.3242" lon="5.74725">
        <ele>1427.997</ele>
        <time>2013-02-08T12:15:49Z</time>
      </trkpt>
      <trkpt lat="45.32419" lon="5.74724">
        <ele>1427.933</ele>
        <time>2013-02-08T12:16:04Z</time>
      </trkpt>
      <trkpt lat="45.32415" lon="5.74717">
        <ele>1427.55</ele>
        <time>2013-02-08T12:16:12Z</time>
      </trkpt>
      <trkpt lat="45.32414" lon="5.74715">
        <ele>1427.642</ele>
        <time>2013-02-08T12:16:16Z</time>
      </trkpt>
      <trkpt lat="45.32414" lon="5.74714">
        <ele>1428.317</ele>
        <time>2013-02-08T12:16:21Z</time>
      </trkpt>
      <trkpt lat="45.3241" lon="5.74708">
        <ele>1428.261</ele>
        <time>2013-02-08T12:16:27Z</time>
      </trkpt>
      <trkpt lat="45.32407" lon="5.74705">
        <ele>1428.51</ele>
        <time>2013-02-08T12:16:33Z</time>
      </trkpt>
      <trkpt lat="45.32418" lon="5.74708">
        <ele>1429.877</ele>
        <time>2013-02-08T12:17:08Z</time>
      </trkpt>
      <trkpt lat="45.32423" lon="5.74703">
        <ele>1323.48</ele>
        <time>2013-02-08T12:17:16Z</time>
      </trkpt>
      <trkpt lat="45.32423" lon="5.74703">
        <ele>1323.836</ele>
        <time>2013-02-08T12:17:17Z</time>
      </trkpt>
      <trkpt lat="45.32426" lon="5.74706">
        <ele>1324.167</ele>
        <time>2013-02-08T12:17:31Z</time>
      </trkpt>
      <trkpt lat="45.32433" lon="5.747">
        <ele>1325.316</ele>
        <time>2013-02-08T12:17:42Z</time>
      </trkpt>
      <trkpt lat="45.32429" lon="5.74706">
        <ele>1323.617</ele>
        <time>2013-02-08T12:17:46Z</time>
      </trkpt>
      <trkpt lat="45.32426" lon="5.74701">
        <ele>1324.647</ele>
        <time>2013-02-08T12:18:09Z</time>
      </trkpt>
      <trkpt lat="45.32415" lon="5.7471">
        <ele>1327.135</ele>
        <time>2013-02-08T12:18:45Z</time>
      </trkpt>
      <trkpt lat="45.32421" lon="5.74715">
        <ele>1327.946</ele>
        <time>2013-02-08T12:18:53Z</time>
      </trkpt>
      <trkpt lat="45.3242" lon="5.74713">
        <ele>1323.863</ele>
        <time>2013-02-08T12:19:05Z</time>
      </trkpt>
      <trkpt lat="45.32407" lon="5.74716">
        <ele>1325.405</ele>
        <time>2013-02-08T12:19:26Z</time>
      </trkpt>
      <trkpt lat="45.32404" lon="5.74714">
        <ele>1333.79</ele>
        <time>2013-02-08T12:21:01Z</time>
      </trkpt>
      <trkpt lat="45.32412" lon="5.74709">
        <ele>1334.025</ele>
        <time>2013-02-08T12:21:36Z</time>
      </trkpt>
      <trkpt lat="45.32417" lon="5.74708">
        <ele>1334.724</ele>
        <time>2013-02-08T12:21:46Z</time>
      </trkpt>
      <trkpt lat="45.3242" lon="5.74709">
        <ele>1336.46</ele>
        <time>2013-02-08T12:22:10Z</time>
      </trkpt>
      <trkpt lat="45.32416" lon="5.74708">
        <ele>1338.727</ele>
        <time>2013-02-08T12:22:13Z</time>
      </trkpt>
      <trkpt lat="45.32412" lon="5.74708">
        <ele>1337.033</ele>
        <time>2013-02-08T12:22:17Z</time>
      </trkpt>
      <trkpt lat="45.32417" lon="5.74712">
        <ele>1339.226</ele>
        <time>2013-02-08T12:22:44Z</time>
      </trkpt>
      <trkpt lat="45.32418" lon="5.74709">
        <ele>1339.665</ele>
        <time>2013-02-08T12:22:52Z</time>
      </trkpt>
      <trkpt lat="45.3241" lon="5.74699">
        <ele>1343.531</ele>
        <time>2013-02-08T12:23:44Z</time>
      </trkpt>
      <trkpt lat="45.32413" lon="5.74702">
        <ele>1344.231</ele>
        <time>2013-02-08T12:23:54Z</time>
      </trkpt>
      <trkpt lat="45.32403" lon="5.74709">
        <ele>1345.559</ele>
        <time>2013-02-08T12:24:07Z</time>
      </trkpt>
      <trkpt lat="45.32403" lon="5.74704">
        <ele>1324.045</ele>
        <time>2013-02-08T12:24:13Z</time>
      </trkpt>
      <trkpt lat="45.32405" lon="5.74704">
        <ele>1324.819</ele>
        <time>2013-02-08T12:24:14Z</time>
      </trkpt>
      <trkpt lat="45.32405" lon="5.74703">
        <ele>1325.451</ele>
        <time>2013-02-08T12:24:23Z</time>
      </trkpt>
      <trkpt lat="45.32407" lon="5.74699">
        <ele>1326.706</ele>
        <time>2013-02-08T12:24:44Z</time>
      </trkpt>
      <trkpt lat="45.32404" lon="5.74699">
        <ele>1327.303</ele>
        <time>2013-02-08T12:24:48Z</time>
      </trkpt>
      <trkpt lat="45.32399" lon="5.74698">
        <ele>1328.409</ele>
        <time>2013-02-08T12:24:58Z</time>
      </trkpt>
      <trkpt lat="45.32398" lon="5.74695">
        <ele>1329.134</ele>
        <time>2013-02-08T12:25:04Z</time>
      </trkpt>
      <trkpt lat="45.32395" lon="5.7469">
        <ele>1329.73</ele>
        <time>2013-02-08T12:25:12Z</time>
      </trkpt>
      <trkpt lat="45.32392" lon="5.74687">
        <ele>1329.875</ele>
        <time>2013-02-08T12:25:16Z</time>
      </trkpt>
      <trkpt lat="45.32388" lon="5.74682">
        <ele>1330.324</ele>
        <time>2013-02-08T12:25:21Z</time>
      </trkpt>
      <trkpt lat="45.32383" lon="5.74678">
        <ele>1330.839</ele>
        <time>2013-02-08T12:25:27Z</time>
      </trkpt>
      <trkpt lat="45.32379" lon="5.74673">
        <ele>1331.095</ele>
        <time>2013-02-08T12:25:32Z</time>
      </trkpt>
      <trkpt lat="45.32376" lon="5.74668">
        <ele>1331.363</ele>
        <time>2013-02-08T12:25:38Z</time>
      </trkpt>
      <trkpt lat="45.32372" lon="5.74663">
        <ele>1332.054</ele>
        <time>2013-02-08T12:25:44Z</time>
      </trkpt>
      <trkpt lat="45.32368" lon="5.74658">
        <ele>1332.765</ele>
        <time>2013-02-08T12:25:50Z</time>
      </trkpt>
      <trkpt lat="45.32364" lon="5.7465">
        <ele>1333.462</ele>
        <time>2013-02-08T12:25:57Z</time>
      </trkpt>
      <trkpt lat="45.32362" lon="5.74645">
        <ele>1333.688</ele>
        <time>2013-02-08T12:26:01Z</time>
      </trkpt>
      <trkpt lat="45.32362" lon="5.74638">
        <ele>1334.116</ele>
        <time>2013-02-08T12:26:06Z</time>
      </trkpt>
      <trkpt lat="45.32361" lon="5.74635">
        <ele>1334.261</ele>
        <time>2013-02-08T12:26:09Z</time>
      </trkpt>
      <trkpt lat="45.32356" lon="5.74626">
        <ele>1335.331</ele>
        <time>2013-02-08T12:26:17Z</time>
      </trkpt>
      <trkpt lat="45.32356" lon="5.74619">
        <ele>1335.84</ele>
        <time>2013-02-08T12:26:22Z</time>
      </trkpt>
      <trkpt lat="45.32354" lon="5.74612">
        <ele>1336.437</ele>
        <time>2013-02-08T12:26:27Z</time>
      </trkpt>
      <trkpt lat="45.32354" lon="5.74608">
        <ele>1337.03</ele>
        <time>2013-02-08T12:26:31Z</time>
      </trkpt>
      <trkpt lat="45.32354" lon="5.74605">
        <ele>1337.319</ele>
        <time>2013-02-08T12:26:33Z</time>
      </trkpt>
      <trkpt lat="45.32352" lon="5.746">
        <ele>1338.231</ele>
        <time>2013-02-08T12:26:38Z</time>
      </trkpt>
      <trkpt lat="45.32352" lon="5.74594">
        <ele>1338.992</ele>
        <time>2013-02-08T12:26:43Z</time>
      </trkpt>
      <trkpt lat="45.32349" lon="5.7459">
        <ele>1339.479</ele>
        <time>2013-02-08T12:26:47Z</time>
      </trkpt>
      <trkpt lat="45.32346" lon="5.74585">
        <ele>1340.075</ele>
        <time>2013-02-08T12:26:52Z</time>
      </trkpt>
      <trkpt lat="45.32346" lon="5.7458">
        <ele>1341.084</ele>
        <time>2013-02-08T12:26:57Z</time>
      </trkpt>
      <trkpt lat="45.32346" lon="5.74576">
        <ele>1341.778</ele>
        <time>2013-02-08T12:27:00Z</time>
      </trkpt>
      <trkpt lat="45.32347" lon="5.74565">
        <ele>1342.518</ele>
        <time>2013-02-08T12:27:08Z</time>
      </trkpt>
      <trkpt lat="45.32346" lon="5.74559">
        <ele>1343.225</ele>
        <time>2013-02-08T12:27:13Z</time>
      </trkpt>
      <trkpt lat="45.32344" lon="5.74553">
        <ele>1343.788</ele>
        <time>2013-02-08T12:27:18Z</time>
      </trkpt>
      <trkpt lat="45.32345" lon="5.74548">
        <ele>1344.316</ele>
        <time>2013-02-08T12:27:22Z</time>
      </trkpt>
      <trkpt lat="45.32344" lon="5.74542">
        <ele>1344.828</ele>
        <time>2013-02-08T12:27:27Z</time>
      </trkpt>
      <trkpt lat="45.32339" lon="5.74533">
        <ele>1344.921</ele>
        <time>2013-02-08T12:27:33Z</time>
      </trkpt>
      <trkpt lat="45.32336" lon="5.7453">
        <ele>1345.175</ele>
        <time>2013-02-08T12:27:37Z</time>
      </trkpt>
      <trkpt lat="45.32332" lon="5.74524">
        <ele>1345.887</ele>
        <time>2013-02-08T12:27:50Z</time>
      </trkpt>
      <trkpt lat="45.32331" lon="5.74521">
        <ele>1346.069</ele>
        <time>2013-02-08T12:27:53Z</time>
      </trkpt>
      <trkpt lat="45.3233" lon="5.74514">
        <ele>1346.222</ele>
        <time>2013-02-08T12:27:59Z</time>
      </trkpt>
      <trkpt lat="45.32329" lon="5.74507">
        <ele>1345.918</ele>
        <time>2013-02-08T12:28:04Z</time>
      </trkpt>
      <trkpt lat="45.32328" lon="5.745">
        <ele>1345.648</ele>
        <time>2013-02-08T12:28:09Z</time>
      </trkpt>
      <trkpt lat="45.32329" lon="5.74497">
        <ele>1345.847</ele>
        <time>2013-02-08T12:28:11Z</time>
      </trkpt>
      <trkpt lat="45.32329" lon="5.74494">
        <ele>1345.934</ele>
        <time>2013-02-08T12:28:17Z</time>
      </trkpt>
      <trkpt lat="45.32327" lon="5.74491">
        <ele>1346.13</ele>
        <time>2013-02-08T12:28:26Z</time>
      </trkpt>
      <trkpt lat="45.32325" lon="5.74487">
        <ele>1346.452</ele>
        <time>2013-02-08T12:28:33Z</time>
      </trkpt>
      <trkpt lat="45.32325" lon="5.74483">
        <ele>1346.281</ele>
        <time>2013-02-08T12:28:37Z</time>
      </trkpt>
      <trkpt lat="45.32325" lon="5.74481">
        <ele>1346.171</ele>
        <time>2013-02-08T12:28:38Z</time>
      </trkpt>
      <trkpt lat="45.32323" lon="5.74473">
        <ele>1346.111</ele>
        <time>2013-02-08T12:28:44Z</time>
      </trkpt>
      <trkpt lat="45.32321" lon="5.74465">
        <ele>1345.641</ele>
        <time>2013-02-08T12:28:49Z</time>
      </trkpt>
      <trkpt lat="45.32321" lon="5.74458">
        <ele>1345.315</ele>
        <time>2013-02-08T12:28:53Z</time>
      </trkpt>
      <trkpt lat="45.32318" lon="5.74448">
        <ele>1345.143</ele>
        <time>2013-02-08T12:28:59Z</time>
      </trkpt>
      <trkpt lat="45.32316" lon="5.74439">
        <ele>1344.65</ele>
        <time>2013-02-08T12:29:05Z</time>
      </trkpt>
      <trkpt lat="45.32309" lon="5.74432">
        <ele>1344.079</ele>
        <time>2013-02-08T12:29:10Z</time>
      </trkpt>
      <trkpt lat="45.32306" lon="5.74427">
        <ele>1343.663</ele>
        <time>2013-02-08T12:29:13Z</time>
      </trkpt>
      <trkpt lat="45.32299" lon="5.74417">
        <ele>1342.67</ele>
        <time>2013-02-08T12:29:20Z</time>
      </trkpt>
      <trkpt lat="45.32296" lon="5.74409">
        <ele>1342.443</ele>
        <time>2013-02-08T12:29:25Z</time>
      </trkpt>
      <trkpt lat="45.32293" lon="5.744">
        <ele>1341.675</ele>
        <time>2013-02-08T12:29:32Z</time>
      </trkpt>
      <trkpt lat="45.32293" lon="5.74396">
        <ele>1341.555</ele>
        <time>2013-02-08T12:29:34Z</time>
      </trkpt>
      <trkpt lat="45.32296" lon="5.74383">
        <ele>1341.089</ele>
        <time>2013-02-08T12:29:40Z</time>
      </trkpt>
      <trkpt lat="45.32294" lon="5.74372">
        <ele>1341.144</ele>
        <time>2013-02-08T12:29:46Z</time>
      </trkpt>
      <trkpt lat="45.32295" lon="5.74364">
        <ele>1341.038</ele>
        <time>2013-02-08T12:29:50Z</time>
      </trkpt>
      <trkpt lat="45.32298" lon="5.74352">
        <ele>1341.302</ele>
        <time>2013-02-08T12:29:56Z</time>
      </trkpt>
      <trkpt lat="45.32296" lon="5.74348">
        <ele>1341.022</ele>
        <time>2013-02-08T12:30:01Z</time>
      </trkpt>
      <trkpt lat="45.32291" lon="5.74343">
        <ele>1341.289</ele>
        <time>2013-02-08T12:30:08Z</time>
      </trkpt>
      <trkpt lat="45.32288" lon="5.74335">
        <ele>1341.557</ele>
        <time>2013-02-08T12:30:13Z</time>
      </trkpt>
      <trkpt lat="45.32285" lon="5.74331">
        <ele>1341.662</ele>
        <time>2013-02-08T12:30:16Z</time>
      </trkpt>
      <trkpt lat="45.32284" lon="5.74326">
        <ele>1341.519</ele>
        <time>2013-02-08T12:30:19Z</time>
      </trkpt>
      <trkpt lat="45.32283" lon="5.74317">
        <ele>1341.883</ele>
        <time>2013-02-08T12:30:25Z</time>
      </trkpt>
      <trkpt lat="45.32281" lon="5.74309">
        <ele>1342.061</ele>
        <time>2013-02-08T12:30:30Z</time>
      </trkpt>
      <trkpt lat="45.32282" lon="5.74301">
        <ele>1341.882</ele>
        <time>2013-02-08T12:30:35Z</time>
      </trkpt>
      <trkpt lat="45.32282" lon="5.74299">
        <ele>1341.983</ele>
        <time>2013-02-08T12:30:36Z</time>
      </trkpt>
      <trkpt lat="45.32278" lon="5.74291">
        <ele>1342.047</ele>
        <time>2013-02-08T12:30:41Z</time>
      </trkpt>
      <trkpt lat="45.32278" lon="5.74289">
        <ele>1341.667</ele>
        <time>2013-02-08T12:30:42Z</time>
      </trkpt>
      <trkpt lat="45.32274" lon="5.74279">
        <ele>1341.931</ele>
        <time>2013-02-08T12:30:49Z</time>
      </trkpt>
      <trkpt lat="45.3227" lon="5.74274">
        <ele>1341.888</ele>
        <time>2013-02-08T12:30:53Z</time>
      </trkpt>
      <trkpt lat="45.32268" lon="5.74265">
        <ele>1341.952</ele>
        <time>2013-02-08T12:30:58Z</time>
      </trkpt>
      <trkpt lat="45.32265" lon="5.74256">
        <ele>1341.464</ele>
        <time>2013-02-08T12:31:03Z</time>
      </trkpt>
      <trkpt lat="45.32264" lon="5.74247">
        <ele>1341.541</ele>
        <time>2013-02-08T12:31:07Z</time>
      </trkpt>
      <trkpt lat="45.32265" lon="5.7424">
        <ele>1340.965</ele>
        <time>2013-02-08T12:31:11Z</time>
      </trkpt>
      <trkpt lat="45.3226" lon="5.74229">
        <ele>1341.225</ele>
        <time>2013-02-08T12:31:17Z</time>
      </trkpt>
      <trkpt lat="45.32255" lon="5.74222">
        <ele>1340.309</ele>
        <time>2013-02-08T12:31:23Z</time>
      </trkpt>
      <trkpt lat="45.32253" lon="5.74218">
        <ele>1339.969</ele>
        <time>2013-02-08T12:31:27Z</time>
      </trkpt>
      <trkpt lat="45.3225" lon="5.74209">
        <ele>1339.407</ele>
        <time>2013-02-08T12:31:32Z</time>
      </trkpt>
      <trkpt lat="45.32249" lon="5.74201">
        <ele>1339.858</ele>
        <time>2013-02-08T12:31:38Z</time>
      </trkpt>
      <trkpt lat="45.32246" lon="5.74194">
        <ele>1339.577</ele>
        <time>2013-02-08T12:31:43Z</time>
      </trkpt>
      <trkpt lat="45.32246" lon="5.74183">
        <ele>1339.43</ele>
        <time>2013-02-08T12:31:49Z</time>
      </trkpt>
      <trkpt lat="45.32244" lon="5.74176">
        <ele>1339.154</ele>
        <time>2013-02-08T12:31:54Z</time>
      </trkpt>
      <trkpt lat="45.32244" lon="5.74167">
        <ele>1339.218</ele>
        <time>2013-02-08T12:31:59Z</time>
      </trkpt>
      <trkpt lat="45.32241" lon="5.74158">
        <ele>1338.988</ele>
        <time>2013-02-08T12:32:05Z</time>
      </trkpt>
      <trkpt lat="45.32242" lon="5.74161">
        <ele>1339.138</ele>
        <time>2013-02-08T12:32:11Z</time>
      </trkpt>
      <trkpt lat="45.32238" lon="5.7416">
        <ele>1340.563</ele>
        <time>2013-02-08T12:32:38Z</time>
      </trkpt>
      <trkpt lat="45.32236" lon="5.74157">
        <ele>1341.048</ele>
        <time>2013-02-08T12:32:55Z</time>
      </trkpt>
      <trkpt lat="45.32235" lon="5.74151">
        <ele>1341.92</ele>
        <time>2013-02-08T12:33:10Z</time>
      </trkpt>
      <trkpt lat="45.32238" lon="5.74145">
        <ele>1342.594</ele>
        <time>2013-02-08T12:33:30Z</time>
      </trkpt>
      <trkpt lat="45.32236" lon="5.7414">
        <ele>1342.556</ele>
        <time>2013-02-08T12:33:35Z</time>
      </trkpt>
      <trkpt lat="45.32233" lon="5.74134">
        <ele>1342.458</ele>
        <time>2013-02-08T12:33:40Z</time>
      </trkpt>
      <trkpt lat="45.3223" lon="5.74128">
        <ele>1341.974</ele>
        <time>2013-02-08T12:33:45Z</time>
      </trkpt>
      <trkpt lat="45.32225" lon="5.74121">
        <ele>1341.836</ele>
        <time>2013-02-08T12:33:51Z</time>
      </trkpt>
      <trkpt lat="45.32222" lon="5.74115">
        <ele>1342.244</ele>
        <time>2013-02-08T12:33:57Z</time>
      </trkpt>
      <trkpt lat="45.3222" lon="5.74109">
        <ele>1342.979</ele>
        <time>2013-02-08T12:34:02Z</time>
      </trkpt>
      <trkpt lat="45.32218" lon="5.74104">
        <ele>1343.231</ele>
        <time>2013-02-08T12:34:07Z</time>
      </trkpt>
      <trkpt lat="45.32213" lon="5.74097">
        <ele>1342.913</ele>
        <time>2013-02-08T12:34:13Z</time>
      </trkpt>
      <trkpt lat="45.3221" lon="5.74092">
        <ele>1343.172</ele>
        <time>2013-02-08T12:34:18Z</time>
      </trkpt>
      <trkpt lat="45.32207" lon="5.74088">
        <ele>1343.335</ele>
        <time>2013-02-08T12:34:22Z</time>
      </trkpt>
      <trkpt lat="45.32204" lon="5.74081">
        <ele>1343.34</ele>
        <time>2013-02-08T12:34:27Z</time>
      </trkpt>
      <trkpt lat="45.32202" lon="5.74074">
        <ele>1343.577</ele>
        <time>2013-02-08T12:34:32Z</time>
      </trkpt>
      <trkpt lat="45.32199" lon="5.74067">
        <ele>1343.896</ele>
        <time>2013-02-08T12:34:37Z</time>
      </trkpt>
      <trkpt lat="45.32196" lon="5.74063">
        <ele>1344.034</ele>
        <time>2013-02-08T12:34:42Z</time>
      </trkpt>
      <trkpt lat="45.32193" lon="5.74057">
        <ele>1344.125</ele>
        <time>2013-02-08T12:34:47Z</time>
      </trkpt>
      <trkpt lat="45.32191" lon="5.74051">
        <ele>1344.297</ele>
        <time>2013-02-08T12:34:52Z</time>
      </trkpt>
      <trkpt lat="45.32189" lon="5.74047">
        <ele>1344.168</ele>
        <time>2013-02-08T12:34:56Z</time>
      </trkpt>
      <trkpt lat="45.32188" lon="5.74044">
        <ele>1344.272</ele>
        <time>2013-02-08T12:34:59Z</time>
      </trkpt>
      <trkpt lat="45.32187" lon="5.74043">
        <ele>1344.474</ele>
        <time>2013-02-08T12:35:01Z</time>
      </trkpt>
      <trkpt lat="45.32184" lon="5.74043">
        <ele>1345.099</ele>
        <time>2013-02-08T12:35:06Z</time>
      </trkpt>
      <trkpt lat="45.32183" lon="5.74043">
        <ele>1345.398</ele>
        <time>2013-02-08T12:35:08Z</time>
      </trkpt>
      <trkpt lat="45.32178" lon="5.74044">
        <ele>1346.066</ele>
        <time>2013-02-08T12:35:14Z</time>
      </trkpt>
      <trkpt lat="45.32174" lon="5.74045">
        <ele>1347.237</ele>
        <time>2013-02-08T12:35:20Z</time>
      </trkpt>
      <trkpt lat="45.32173" lon="5.74045">
        <ele>1347.333</ele>
        <time>2013-02-08T12:35:22Z</time>
      </trkpt>
      <trkpt lat="45.32172" lon="5.74046">
        <ele>1348.198</ele>
        <time>2013-02-08T12:35:27Z</time>
      </trkpt>
      <trkpt lat="45.32172" lon="5.74046">
        <ele>1348.704</ele>
        <time>2013-02-08T12:35:36Z</time>
      </trkpt>
      <trkpt lat="45.32173" lon="5.74046">
        <ele>1350.147</ele>
        <time>2013-02-08T12:35:56Z</time>
      </trkpt>
      <trkpt lat="45.32164" lon="5.74051">
        <ele>1359.896</ele>
        <time>2013-02-08T12:39:16Z</time>
      </trkpt>
      <trkpt lat="45.32165" lon="5.74057">
        <ele>1360.965</ele>
        <time>2013-02-08T12:39:21Z</time>
      </trkpt>
      <trkpt lat="45.32168" lon="5.74068">
        <ele>1362.317</ele>
        <time>2013-02-08T12:39:29Z</time>
      </trkpt>
      <trkpt lat="45.32169" lon="5.74075">
        <ele>1363.703</ele>
        <time>2013-02-08T12:39:35Z</time>
      </trkpt>
      <trkpt lat="45.32169" lon="5.7408">
        <ele>1365.088</ele>
        <time>2013-02-08T12:39:40Z</time>
      </trkpt>
      <trkpt lat="45.3217" lon="5.74088">
        <ele>1366.051</ele>
        <time>2013-02-08T12:39:45Z</time>
      </trkpt>
      <trkpt lat="45.32171" lon="5.74093">
        <ele>1366.617</ele>
        <time>2013-02-08T12:39:49Z</time>
      </trkpt>
      <trkpt lat="45.32172" lon="5.74096">
        <ele>1367.268</ele>
        <time>2013-02-08T12:39:53Z</time>
      </trkpt>
      <trkpt lat="45.32172" lon="5.741">
        <ele>1368.151</ele>
        <time>2013-02-08T12:39:58Z</time>
      </trkpt>
      <trkpt lat="45.32171" lon="5.74107">
        <ele>1369.212</ele>
        <time>2013-02-08T12:40:04Z</time>
      </trkpt>
      <trkpt lat="45.32171" lon="5.7411">
        <ele>1369.87</ele>
        <time>2013-02-08T12:40:07Z</time>
      </trkpt>
      <trkpt lat="45.3217" lon="5.74117">
        <ele>1371.081</ele>
        <time>2013-02-08T12:40:13Z</time>
      </trkpt>
      <trkpt lat="45.32167" lon="5.74119">
        <ele>1371.904</ele>
        <time>2013-02-08T12:40:18Z</time>
      </trkpt>
      <trkpt lat="45.32164" lon="5.7412">
        <ele>1372.211</ele>
        <time>2013-02-08T12:40:23Z</time>
      </trkpt>
      <trkpt lat="45.32161" lon="5.74119">
        <ele>1373.247</ele>
        <time>2013-02-08T12:40:26Z</time>
      </trkpt>
      <trkpt lat="45.32158" lon="5.74119">
        <ele>1373.686</ele>
        <time>2013-02-08T12:40:31Z</time>
      </trkpt>
      <trkpt lat="45.32154" lon="5.74121">
        <ele>1375.191</ele>
        <time>2013-02-08T12:40:38Z</time>
      </trkpt>
      <trkpt lat="45.3215" lon="5.7412">
        <ele>1376.277</ele>
        <time>2013-02-08T12:40:43Z</time>
      </trkpt>
      <trkpt lat="45.32146" lon="5.74123">
        <ele>1377.119</ele>
        <time>2013-02-08T12:40:48Z</time>
      </trkpt>
      <trkpt lat="45.32143" lon="5.74125">
        <ele>1378.105</ele>
        <time>2013-02-08T12:40:53Z</time>
      </trkpt>
      <trkpt lat="45.3214" lon="5.74123">
        <ele>1379.247</ele>
        <time>2013-02-08T12:40:58Z</time>
      </trkpt>
      <trkpt lat="45.32137" lon="5.74127">
        <ele>1380.472</ele>
        <time>2013-02-08T12:41:03Z</time>
      </trkpt>
      <trkpt lat="45.32134" lon="5.74128">
        <ele>1380.989</ele>
        <time>2013-02-08T12:41:07Z</time>
      </trkpt>
      <trkpt lat="45.32131" lon="5.74132">
        <ele>1381.895</ele>
        <time>2013-02-08T12:41:13Z</time>
      </trkpt>
      <trkpt lat="45.3213" lon="5.74132">
        <ele>1382.228</ele>
        <time>2013-02-08T12:41:14Z</time>
      </trkpt>
      <trkpt lat="45.32129" lon="5.74137">
        <ele>1382.986</ele>
        <time>2013-02-08T12:41:19Z</time>
      </trkpt>
      <trkpt lat="45.32128" lon="5.7414">
        <ele>1383.052</ele>
        <time>2013-02-08T12:41:21Z</time>
      </trkpt>
      <trkpt lat="45.32127" lon="5.74145">
        <ele>1384.29</ele>
        <time>2013-02-08T12:41:26Z</time>
      </trkpt>
      <trkpt lat="45.32125" lon="5.74148">
        <ele>1384.963</ele>
        <time>2013-02-08T12:41:31Z</time>
      </trkpt>
      <trkpt lat="45.32128" lon="5.74156">
        <ele>1386.411</ele>
        <time>2013-02-08T12:41:37Z</time>
      </trkpt>
      <trkpt lat="45.32126" lon="5.74162">
        <ele>1387.111</ele>
        <time>2013-02-08T12:41:43Z</time>
      </trkpt>
      <trkpt lat="45.32124" lon="5.74164">
        <ele>1387.683</ele>
        <time>2013-02-08T12:41:46Z</time>
      </trkpt>
      <trkpt lat="45.32121" lon="5.74164">
        <ele>1388.784</ele>
        <time>2013-02-08T12:41:51Z</time>
      </trkpt>
      <trkpt lat="45.32119" lon="5.74165">
        <ele>1389.042</ele>
        <time>2013-02-08T12:41:53Z</time>
      </trkpt>
      <trkpt lat="45.32119" lon="5.74167">
        <ele>1389.405</ele>
        <time>2013-02-08T12:41:55Z</time>
      </trkpt>
      <trkpt lat="45.32119" lon="5.7417">
        <ele>1389.766</ele>
        <time>2013-02-08T12:41:57Z</time>
      </trkpt>
      <trkpt lat="45.32121" lon="5.74179">
        <ele>1390.721</ele>
        <time>2013-02-08T12:42:04Z</time>
      </trkpt>
      <trkpt lat="45.32122" lon="5.74183">
        <ele>1391.821</ele>
        <time>2013-02-08T12:42:08Z</time>
      </trkpt>
      <trkpt lat="45.32122" lon="5.74188">
        <ele>1392.282</ele>
        <time>2013-02-08T12:42:12Z</time>
      </trkpt>
      <trkpt lat="45.32122" lon="5.74192">
        <ele>1392.927</ele>
        <time>2013-02-08T12:42:16Z</time>
      </trkpt>
      <trkpt lat="45.32122" lon="5.74198">
        <ele>1393.82</ele>
        <time>2013-02-08T12:42:21Z</time>
      </trkpt>
      <trkpt lat="45.32123" lon="5.74201">
        <ele>1394.655</ele>
        <time>2013-02-08T12:42:25Z</time>
      </trkpt>
      <trkpt lat="45.32123" lon="5.74203">
        <ele>1395.263</ele>
        <time>2013-02-08T12:42:29Z</time>
      </trkpt>
      <trkpt lat="45.32122" lon="5.7421">
        <ele>1395.934</ele>
        <time>2013-02-08T12:42:35Z</time>
      </trkpt>
      <trkpt lat="45.32122" lon="5.74214">
        <ele>1396.641</ele>
        <time>2013-02-08T12:42:39Z</time>
      </trkpt>
      <trkpt lat="45.32124" lon="5.74217">
        <ele>1397.421</ele>
        <time>2013-02-08T12:42:44Z</time>
      </trkpt>
      <trkpt lat="45.32125" lon="5.74221">
        <ele>1398.159</ele>
        <time>2013-02-08T12:42:48Z</time>
      </trkpt>
      <trkpt lat="45.32126" lon="5.74226">
        <ele>1398.905</ele>
        <time>2013-02-08T12:42:54Z</time>
      </trkpt>
      <trkpt lat="45.32126" lon="5.7423">
        <ele>1399.342</ele>
        <time>2013-02-08T12:42:58Z</time>
      </trkpt>
      <trkpt lat="45.32126" lon="5.74234">
        <ele>1400.101</ele>
        <time>2013-02-08T12:43:05Z</time>
      </trkpt>
      <trkpt lat="45.32125" lon="5.74235">
        <ele>1400.891</ele>
        <time>2013-02-08T12:43:11Z</time>
      </trkpt>
      <trkpt lat="45.32126" lon="5.74232">
        <ele>1401.841</ele>
        <time>2013-02-08T12:43:16Z</time>
      </trkpt>
      <trkpt lat="45.32126" lon="5.7423">
        <ele>1402.177</ele>
        <time>2013-02-08T12:43:18Z</time>
      </trkpt>
      <trkpt lat="45.32124" lon="5.74229">
        <ele>1403.069</ele>
        <time>2013-02-08T12:43:23Z</time>
      </trkpt>
      <trkpt lat="45.32123" lon="5.74232">
        <ele>1404.025</ele>
        <time>2013-02-08T12:43:27Z</time>
      </trkpt>
      <trkpt lat="45.32122" lon="5.74236">
        <ele>1404.348</ele>
        <time>2013-02-08T12:43:31Z</time>
      </trkpt>
      <trkpt lat="45.32121" lon="5.74239">
        <ele>1405.221</ele>
        <time>2013-02-08T12:43:36Z</time>
      </trkpt>
      <trkpt lat="45.3212" lon="5.74238">
        <ele>1406.545</ele>
        <time>2013-02-08T12:43:41Z</time>
      </trkpt>
      <trkpt lat="45.32117" lon="5.74234">
        <ele>1407.423</ele>
        <time>2013-02-08T12:43:48Z</time>
      </trkpt>
      <trkpt lat="45.32115" lon="5.74232">
        <ele>1408.366</ele>
        <time>2013-02-08T12:43:52Z</time>
      </trkpt>
      <trkpt lat="45.32114" lon="5.74231">
        <ele>1409.144</ele>
        <time>2013-02-08T12:43:56Z</time>
      </trkpt>
      <trkpt lat="45.32112" lon="5.7423">
        <ele>1409.611</ele>
        <time>2013-02-08T12:44:00Z</time>
      </trkpt>
      <trkpt lat="45.32111" lon="5.74231">
        <ele>1410.474</ele>
        <time>2013-02-08T12:44:04Z</time>
      </trkpt>
      <trkpt lat="45.32109" lon="5.74233">
        <ele>1411.415</ele>
        <time>2013-02-08T12:44:08Z</time>
      </trkpt>
      <trkpt lat="45.32107" lon="5.74238">
        <ele>1412.111</ele>
        <time>2013-02-08T12:44:13Z</time>
      </trkpt>
      <trkpt lat="45.32105" lon="5.74244">
        <ele>1413.082</ele>
        <time>2013-02-08T12:44:18Z</time>
      </trkpt>
      <trkpt lat="45.32102" lon="5.74246">
        <ele>1413.97</ele>
        <time>2013-02-08T12:44:23Z</time>
      </trkpt>
      <trkpt lat="45.321" lon="5.74246">
        <ele>1414.51</ele>
        <time>2013-02-08T12:44:27Z</time>
      </trkpt>
      <trkpt lat="45.32099" lon="5.74248">
        <ele>1415.412</ele>
        <time>2013-02-08T12:44:32Z</time>
      </trkpt>
      <trkpt lat="45.32099" lon="5.74251">
        <ele>1416.262</ele>
        <time>2013-02-08T12:44:37Z</time>
      </trkpt>
      <trkpt lat="45.321" lon="5.74254">
        <ele>1417.331</ele>
        <time>2013-02-08T12:44:42Z</time>
      </trkpt>
      <trkpt lat="45.32098" lon="5.74255">
        <ele>1417.92</ele>
        <time>2013-02-08T12:44:50Z</time>
      </trkpt>
      <trkpt lat="45.32096" lon="5.74253">
        <ele>1419.173</ele>
        <time>2013-02-08T12:44:55Z</time>
      </trkpt>
      <trkpt lat="45.32095" lon="5.74252">
        <ele>1419.891</ele>
        <time>2013-02-08T12:44:59Z</time>
      </trkpt>
      <trkpt lat="45.32093" lon="5.74251">
        <ele>1420.659</ele>
        <time>2013-02-08T12:45:04Z</time>
      </trkpt>
      <trkpt lat="45.3209" lon="5.74254">
        <ele>1421.88</ele>
        <time>2013-02-08T12:45:14Z</time>
      </trkpt>
      <trkpt lat="45.32088" lon="5.74258">
        <ele>1422.631</ele>
        <time>2013-02-08T12:45:19Z</time>
      </trkpt>
      <trkpt lat="45.32088" lon="5.74264">
        <ele>1424.205</ele>
        <time>2013-02-08T12:45:25Z</time>
      </trkpt>
      <trkpt lat="45.32087" lon="5.74266">
        <ele>1424.229</ele>
        <time>2013-02-08T12:45:29Z</time>
      </trkpt>
      <trkpt lat="45.32085" lon="5.74267">
        <ele>1424.808</ele>
        <time>2013-02-08T12:45:33Z</time>
      </trkpt>
      <trkpt lat="45.32084" lon="5.74267">
        <ele>1425.973</ele>
        <time>2013-02-08T12:45:40Z</time>
      </trkpt>
      <trkpt lat="45.3208" lon="5.74269">
        <ele>1427.078</ele>
        <time>2013-02-08T12:45:46Z</time>
      </trkpt>
      <trkpt lat="45.32079" lon="5.74275">
        <ele>1427.885</ele>
        <time>2013-02-08T12:45:50Z</time>
      </trkpt>
      <trkpt lat="45.32078" lon="5.74283">
        <ele>1428.216</ele>
        <time>2013-02-08T12:45:55Z</time>
      </trkpt>
      <trkpt lat="45.32079" lon="5.74287">
        <ele>1429.37</ele>
        <time>2013-02-08T12:46:00Z</time>
      </trkpt>
      <trkpt lat="45.32079" lon="5.74292">
        <ele>1430.367</ele>
        <time>2013-02-08T12:46:06Z</time>
      </trkpt>
      <trkpt lat="45.32082" lon="5.74298">
        <ele>1431.186</ele>
        <time>2013-02-08T12:46:18Z</time>
      </trkpt>
      <trkpt lat="45.3208" lon="5.74306">
        <ele>1432.767</ele>
        <time>2013-02-08T12:46:25Z</time>
      </trkpt>
      <trkpt lat="45.3208" lon="5.74309">
        <ele>1433.578</ele>
        <time>2013-02-08T12:46:30Z</time>
      </trkpt>
      <trkpt lat="45.3208" lon="5.74309">
        <ele>1434.249</ele>
        <time>2013-02-08T12:46:31Z</time>
      </trkpt>
      <trkpt lat="45.32083" lon="5.7431">
        <ele>1434.85</ele>
        <time>2013-02-08T12:46:36Z</time>
      </trkpt>
      <trkpt lat="45.32083" lon="5.74311">
        <ele>1435.624</ele>
        <time>2013-02-08T12:46:42Z</time>
      </trkpt>
      <trkpt lat="45.32082" lon="5.7431">
        <ele>1436.785</ele>
        <time>2013-02-08T12:46:47Z</time>
      </trkpt>
      <trkpt lat="45.3208" lon="5.74308">
        <ele>1437.23</ele>
        <time>2013-02-08T12:46:51Z</time>
      </trkpt>
      <trkpt lat="45.32078" lon="5.74307">
        <ele>1437.713</ele>
        <time>2013-02-08T12:46:55Z</time>
      </trkpt>
      <trkpt lat="45.32075" lon="5.74306">
        <ele>1438.547</ele>
        <time>2013-02-08T12:47:00Z</time>
      </trkpt>
      <trkpt lat="45.32072" lon="5.74306">
        <ele>1439.474</ele>
        <time>2013-02-08T12:47:05Z</time>
      </trkpt>
      <trkpt lat="45.32071" lon="5.74309">
        <ele>1440.018</ele>
        <time>2013-02-08T12:47:10Z</time>
      </trkpt>
      <trkpt lat="45.32069" lon="5.74311">
        <ele>1441.095</ele>
        <time>2013-02-08T12:47:15Z</time>
      </trkpt>
      <trkpt lat="45.32066" lon="5.74314">
        <ele>1442.498</ele>
        <time>2013-02-08T12:47:22Z</time>
      </trkpt>
      <trkpt lat="45.32067" lon="5.7432">
        <ele>1443.567</ele>
        <time>2013-02-08T12:47:27Z</time>
      </trkpt>
      <trkpt lat="45.32068" lon="5.74327">
        <ele>1444.005</ele>
        <time>2013-02-08T12:47:32Z</time>
      </trkpt>
      <trkpt lat="45.32067" lon="5.74333">
        <ele>1445.255</ele>
        <time>2013-02-08T12:47:40Z</time>
      </trkpt>
      <trkpt lat="45.32068" lon="5.74337">
        <ele>1446.967</ele>
        <time>2013-02-08T12:47:48Z</time>
      </trkpt>
      <trkpt lat="45.32066" lon="5.74337">
        <ele>1447.81</ele>
        <time>2013-02-08T12:47:53Z</time>
      </trkpt>
      <trkpt lat="45.32067" lon="5.74341">
        <ele>1448.792</ele>
        <time>2013-02-08T12:48:00Z</time>
      </trkpt>
      <trkpt lat="45.32068" lon="5.74346">
        <ele>1449.755</ele>
        <time>2013-02-08T12:48:04Z</time>
      </trkpt>
      <trkpt lat="45.32068" lon="5.74351">
        <ele>1451.213</ele>
        <time>2013-02-08T12:48:12Z</time>
      </trkpt>
      <trkpt lat="45.32066" lon="5.74352">
        <ele>1452.233</ele>
        <time>2013-02-08T12:48:18Z</time>
      </trkpt>
      <trkpt lat="45.32063" lon="5.74353">
        <ele>1452.856</ele>
        <time>2013-02-08T12:48:22Z</time>
      </trkpt>
      <trkpt lat="45.32063" lon="5.74354">
        <ele>1454.265</ele>
        <time>2013-02-08T12:48:30Z</time>
      </trkpt>
      <trkpt lat="45.32061" lon="5.74355">
        <ele>1455.088</ele>
        <time>2013-02-08T12:48:34Z</time>
      </trkpt>
      <trkpt lat="45.3206" lon="5.7436">
        <ele>1456.528</ele>
        <time>2013-02-08T12:48:42Z</time>
      </trkpt>
      <trkpt lat="45.32059" lon="5.74366">
        <ele>1457.585</ele>
        <time>2013-02-08T12:48:49Z</time>
      </trkpt>
      <trkpt lat="45.32059" lon="5.74386">
        <ele>1461.089</ele>
        <time>2013-02-08T12:49:07Z</time>
      </trkpt>
      <trkpt lat="45.3206" lon="5.74391">
        <ele>1461.99</ele>
        <time>2013-02-08T12:49:12Z</time>
      </trkpt>
      <trkpt lat="45.32061" lon="5.74394">
        <ele>1462.579</ele>
        <time>2013-02-08T12:49:16Z</time>
      </trkpt>
      <trkpt lat="45.3206" lon="5.74393">
        <ele>1463.348</ele>
        <time>2013-02-08T12:49:21Z</time>
      </trkpt>
      <trkpt lat="45.32059" lon="5.74393">
        <ele>1463.617</ele>
        <time>2013-02-08T12:49:25Z</time>
      </trkpt>
      <trkpt lat="45.32057" lon="5.74391">
        <ele>1465.199</ele>
        <time>2013-02-08T12:49:32Z</time>
      </trkpt>
      <trkpt lat="45.32055" lon="5.74391">
        <ele>1465.793</ele>
        <time>2013-02-08T12:49:36Z</time>
      </trkpt>
      <trkpt lat="45.32052" lon="5.7439">
        <ele>1466.522</ele>
        <time>2013-02-08T12:49:40Z</time>
      </trkpt>
      <trkpt lat="45.32047" lon="5.74392">
        <ele>1466.838</ele>
        <time>2013-02-08T12:49:45Z</time>
      </trkpt>
      <trkpt lat="45.32043" lon="5.74394">
        <ele>1468.231</ele>
        <time>2013-02-08T12:49:53Z</time>
      </trkpt>
      <trkpt lat="45.32041" lon="5.74397">
        <ele>1468.65</ele>
        <time>2013-02-08T12:49:58Z</time>
      </trkpt>
      <trkpt lat="45.32042" lon="5.74399">
        <ele>1469.319</ele>
        <time>2013-02-08T12:50:02Z</time>
      </trkpt>
      <trkpt lat="45.32042" lon="5.74402">
        <ele>1470.21</ele>
        <time>2013-02-08T12:50:06Z</time>
      </trkpt>
      <trkpt lat="45.32043" lon="5.74402">
        <ele>1471.311</ele>
        <time>2013-02-08T12:50:12Z</time>
      </trkpt>
      <trkpt lat="45.32041" lon="5.74398">
        <ele>1473.176</ele>
        <time>2013-02-08T12:50:20Z</time>
      </trkpt>
      <trkpt lat="45.32038" lon="5.74398">
        <ele>1474.135</ele>
        <time>2013-02-08T12:50:26Z</time>
      </trkpt>
      <trkpt lat="45.32036" lon="5.74397">
        <ele>1474.88</ele>
        <time>2013-02-08T12:50:30Z</time>
      </trkpt>
      <trkpt lat="45.32033" lon="5.74397">
        <ele>1475.437</ele>
        <time>2013-02-08T12:50:35Z</time>
      </trkpt>
      <trkpt lat="45.3203" lon="5.74398">
        <ele>1476.467</ele>
        <time>2013-02-08T12:50:39Z</time>
      </trkpt>
      <trkpt lat="45.32027" lon="5.744">
        <ele>1476.927</ele>
        <time>2013-02-08T12:50:43Z</time>
      </trkpt>
      <trkpt lat="45.32024" lon="5.74398">
        <ele>1478.022</ele>
        <time>2013-02-08T12:50:47Z</time>
      </trkpt>
      <trkpt lat="45.32022" lon="5.74399">
        <ele>1478.969</ele>
        <time>2013-02-08T12:50:52Z</time>
      </trkpt>
      <trkpt lat="45.3202" lon="5.74403">
        <ele>1479.51</ele>
        <time>2013-02-08T12:50:56Z</time>
      </trkpt>
      <trkpt lat="45.3202" lon="5.74409">
        <ele>1480.168</ele>
        <time>2013-02-08T12:51:01Z</time>
      </trkpt>
      <trkpt lat="45.32019" lon="5.74411">
        <ele>1481.051</ele>
        <time>2013-02-08T12:51:05Z</time>
      </trkpt>
      <trkpt lat="45.32014" lon="5.74416">
        <ele>1482.272</ele>
        <time>2013-02-08T12:51:14Z</time>
      </trkpt>
      <trkpt lat="45.32013" lon="5.74418">
        <ele>1482.7</ele>
        <time>2013-02-08T12:51:16Z</time>
      </trkpt>
      <trkpt lat="45.3201" lon="5.74419">
        <ele>1483.409</ele>
        <time>2013-02-08T12:51:21Z</time>
      </trkpt>
      <trkpt lat="45.32009" lon="5.74421">
        <ele>1484.7</ele>
        <time>2013-02-08T12:51:27Z</time>
      </trkpt>
      <trkpt lat="45.32008" lon="5.7443">
        <ele>1486.437</ele>
        <time>2013-02-08T12:51:36Z</time>
      </trkpt>
      <trkpt lat="45.32009" lon="5.74435">
        <ele>1486.776</ele>
        <time>2013-02-08T12:51:40Z</time>
      </trkpt>
      <trkpt lat="45.32009" lon="5.74437">
        <ele>1486.947</ele>
        <time>2013-02-08T12:51:42Z</time>
      </trkpt>
      <trkpt lat="45.32008" lon="5.74444">
        <ele>1487.211</ele>
        <time>2013-02-08T12:51:47Z</time>
      </trkpt>
      <trkpt lat="45.32005" lon="5.74445">
        <ele>1487.864</ele>
        <time>2013-02-08T12:51:52Z</time>
      </trkpt>
      <trkpt lat="45.32001" lon="5.74445">
        <ele>1488.293</ele>
        <time>2013-02-08T12:51:57Z</time>
      </trkpt>
      <trkpt lat="45.31998" lon="5.74446">
        <ele>1489.053</ele>
        <time>2013-02-08T12:52:02Z</time>
      </trkpt>
      <trkpt lat="45.31995" lon="5.74449">
        <ele>1489.693</ele>
        <time>2013-02-08T12:52:08Z</time>
      </trkpt>
      <trkpt lat="45.31994" lon="5.74451">
        <ele>1490.514</ele>
        <time>2013-02-08T12:52:12Z</time>
      </trkpt>
      <trkpt lat="45.31993" lon="5.74454">
        <ele>1491.221</ele>
        <time>2013-02-08T12:52:16Z</time>
      </trkpt>
      <trkpt lat="45.31992" lon="5.74457">
        <ele>1491.834</ele>
        <time>2013-02-08T12:52:20Z</time>
      </trkpt>
      <trkpt lat="45.3199" lon="5.74458">
        <ele>1492.655</ele>
        <time>2013-02-08T12:52:24Z</time>
      </trkpt>
      <trkpt lat="45.31988" lon="5.74459">
        <ele>1493.223</ele>
        <time>2013-02-08T12:52:28Z</time>
      </trkpt>
      <trkpt lat="45.31984" lon="5.74458">
        <ele>1494.678</ele>
        <time>2013-02-08T12:52:36Z</time>
      </trkpt>
      <trkpt lat="45.31984" lon="5.74464">
        <ele>1495.728</ele>
        <time>2013-02-08T12:52:43Z</time>
      </trkpt>
      <trkpt lat="45.31985" lon="5.7447">
        <ele>1496.676</ele>
        <time>2013-02-08T12:52:48Z</time>
      </trkpt>
      <trkpt lat="45.31985" lon="5.74476">
        <ele>1498.121</ele>
        <time>2013-02-08T12:52:55Z</time>
      </trkpt>
      <trkpt lat="45.31985" lon="5.74484">
        <ele>1499.062</ele>
        <time>2013-02-08T12:53:02Z</time>
      </trkpt>
      <trkpt lat="45.31984" lon="5.7449">
        <ele>1499.984</ele>
        <time>2013-02-08T12:53:10Z</time>
      </trkpt>
      <trkpt lat="45.31982" lon="5.7449">
        <ele>1501.93</ele>
        <time>2013-02-08T12:53:21Z</time>
      </trkpt>
      <trkpt lat="45.31981" lon="5.7449">
        <ele>1502.346</ele>
        <time>2013-02-08T12:53:26Z</time>
      </trkpt>
      <trkpt lat="45.31979" lon="5.7449">
        <ele>1503.257</ele>
        <time>2013-02-08T12:53:31Z</time>
      </trkpt>
      <trkpt lat="45.31976" lon="5.7449">
        <ele>1504.258</ele>
        <time>2013-02-08T12:53:37Z</time>
      </trkpt>
      <trkpt lat="45.31974" lon="5.74493">
        <ele>1505.028</ele>
        <time>2013-02-08T12:53:42Z</time>
      </trkpt>
      <trkpt lat="45.31972" lon="5.74495">
        <ele>1506.083</ele>
        <time>2013-02-08T12:53:46Z</time>
      </trkpt>
      <trkpt lat="45.31969" lon="5.74495">
        <ele>1506.801</ele>
        <time>2013-02-08T12:53:51Z</time>
      </trkpt>
      <trkpt lat="45.31965" lon="5.74496">
        <ele>1507.205</ele>
        <time>2013-02-08T12:53:56Z</time>
      </trkpt>
      <trkpt lat="45.31961" lon="5.74493">
        <ele>1507.785</ele>
        <time>2013-02-08T12:54:02Z</time>
      </trkpt>
      <trkpt lat="45.31957" lon="5.74491">
        <ele>1508.501</ele>
        <time>2013-02-08T12:54:08Z</time>
      </trkpt>
      <trkpt lat="45.31953" lon="5.74489">
        <ele>1508.917</ele>
        <time>2013-02-08T12:54:13Z</time>
      </trkpt>
      <trkpt lat="45.31949" lon="5.74488">
        <ele>1509.264</ele>
        <time>2013-02-08T12:54:18Z</time>
      </trkpt>
      <trkpt lat="45.31944" lon="5.74487">
        <ele>1509.29</ele>
        <time>2013-02-08T12:54:24Z</time>
      </trkpt>
      <trkpt lat="45.31943" lon="5.74487">
        <ele>1509.454</ele>
        <time>2013-02-08T12:54:25Z</time>
      </trkpt>
      <trkpt lat="45.31937" lon="5.74484">
        <ele>1509.863</ele>
        <time>2013-02-08T12:54:33Z</time>
      </trkpt>
      <trkpt lat="45.31931" lon="5.74477">
        <ele>1510.602</ele>
        <time>2013-02-08T12:54:38Z</time>
      </trkpt>
      <trkpt lat="45.31926" lon="5.74471">
        <ele>1511.372</ele>
        <time>2013-02-08T12:54:43Z</time>
      </trkpt>
      <trkpt lat="45.31921" lon="5.74469">
        <ele>1512.079</ele>
        <time>2013-02-08T12:54:50Z</time>
      </trkpt>
      <trkpt lat="45.31918" lon="5.74467">
        <ele>1512.481</ele>
        <time>2013-02-08T12:54:53Z</time>
      </trkpt>
      <trkpt lat="45.31914" lon="5.74462">
        <ele>1512.777</ele>
        <time>2013-02-08T12:55:00Z</time>
      </trkpt>
      <trkpt lat="45.31916" lon="5.74466">
        <ele>1513.562</ele>
        <time>2013-02-08T12:55:31Z</time>
      </trkpt>
      <trkpt lat="45.31909" lon="5.74464">
        <ele>1513.902</ele>
        <time>2013-02-08T12:55:36Z</time>
      </trkpt>
      <trkpt lat="45.31907" lon="5.74463">
        <ele>1513.795</ele>
        <time>2013-02-08T12:55:37Z</time>
      </trkpt>
      <trkpt lat="45.31899" lon="5.7446">
        <ele>1513.968</ele>
        <time>2013-02-08T12:55:43Z</time>
      </trkpt>
      <trkpt lat="45.31895" lon="5.74458">
        <ele>1514.188</ele>
        <time>2013-02-08T12:55:46Z</time>
      </trkpt>
      <trkpt lat="45.31889" lon="5.74454">
        <ele>1513.812</ele>
        <time>2013-02-08T12:55:52Z</time>
      </trkpt>
      <trkpt lat="45.31881" lon="5.74451">
        <ele>1513.848</ele>
        <time>2013-02-08T12:55:59Z</time>
      </trkpt>
      <trkpt lat="45.31878" lon="5.74447">
        <ele>1513.773</ele>
        <time>2013-02-08T12:56:03Z</time>
      </trkpt>
      <trkpt lat="45.31876" lon="5.74443">
        <ele>1514.325</ele>
        <time>2013-02-08T12:56:07Z</time>
      </trkpt>
      <trkpt lat="45.3187" lon="5.74441">
        <ele>1514.489</ele>
        <time>2013-02-08T12:56:12Z</time>
      </trkpt>
      <trkpt lat="45.31866" lon="5.74441">
        <ele>1514.745</ele>
        <time>2013-02-08T12:56:15Z</time>
      </trkpt>
      <trkpt lat="45.3186" lon="5.74437">
        <ele>1514.69</ele>
        <time>2013-02-08T12:56:20Z</time>
      </trkpt>
      <trkpt lat="45.31854" lon="5.74432">
        <ele>1515.083</ele>
        <time>2013-02-08T12:56:25Z</time>
      </trkpt>
      <trkpt lat="45.31849" lon="5.74428">
        <ele>1515.336</ele>
        <time>2013-02-08T12:56:29Z</time>
      </trkpt>
      <trkpt lat="45.31841" lon="5.74427">
        <ele>1515.529</ele>
        <time>2013-02-08T12:56:36Z</time>
      </trkpt>
      <trkpt lat="45.31835" lon="5.74427">
        <ele>1515.964</ele>
        <time>2013-02-08T12:56:41Z</time>
      </trkpt>
      <trkpt lat="45.31833" lon="5.74427">
        <ele>1516.482</ele>
        <time>2013-02-08T12:56:46Z</time>
      </trkpt>
      <trkpt lat="45.31831" lon="5.74427">
        <ele>1516.618</ele>
        <time>2013-02-08T12:56:50Z</time>
      </trkpt>
      <trkpt lat="45.31824" lon="5.74425">
        <ele>1516.87</ele>
        <time>2013-02-08T12:56:56Z</time>
      </trkpt>
      <trkpt lat="45.31819" lon="5.74426">
        <ele>1517.124</ele>
        <time>2013-02-08T12:57:01Z</time>
      </trkpt>
      <trkpt lat="45.31815" lon="5.74427">
        <ele>1517.259</ele>
        <time>2013-02-08T12:57:05Z</time>
      </trkpt>
      <trkpt lat="45.31811" lon="5.74427">
        <ele>1517.801</ele>
        <time>2013-02-08T12:57:09Z</time>
      </trkpt>
      <trkpt lat="45.31804" lon="5.74423">
        <ele>1517.958</ele>
        <time>2013-02-08T12:57:15Z</time>
      </trkpt>
      <trkpt lat="45.318" lon="5.74416">
        <ele>1518.165</ele>
        <time>2013-02-08T12:57:19Z</time>
      </trkpt>
      <trkpt lat="45.31797" lon="5.74413">
        <ele>1518.347</ele>
        <time>2013-02-08T12:57:22Z</time>
      </trkpt>
      <trkpt lat="45.31793" lon="5.74411">
        <ele>1518.412</ele>
        <time>2013-02-08T12:57:25Z</time>
      </trkpt>
      <trkpt lat="45.31788" lon="5.74411">
        <ele>1518.774</ele>
        <time>2013-02-08T12:57:30Z</time>
      </trkpt>
      <trkpt lat="45.3178" lon="5.74409">
        <ele>1518.786</ele>
        <time>2013-02-08T12:57:36Z</time>
      </trkpt>
      <trkpt lat="45.31775" lon="5.74408">
        <ele>1518.552</ele>
        <time>2013-02-08T12:57:40Z</time>
      </trkpt>
      <trkpt lat="45.31769" lon="5.74407">
        <ele>1518.335</ele>
        <time>2013-02-08T12:57:44Z</time>
      </trkpt>
      <trkpt lat="45.31763" lon="5.74406">
        <ele>1518.569</ele>
        <time>2013-02-08T12:57:48Z</time>
      </trkpt>
      <trkpt lat="45.31762" lon="5.74406">
        <ele>1518.679</ele>
        <time>2013-02-08T12:57:49Z</time>
      </trkpt>
      <trkpt lat="45.31757" lon="5.74405">
        <ele>1518.845</ele>
        <time>2013-02-08T12:57:53Z</time>
      </trkpt>
      <trkpt lat="45.31753" lon="5.74408">
        <ele>1519.05</ele>
        <time>2013-02-08T12:57:58Z</time>
      </trkpt>
      <trkpt lat="45.3175" lon="5.74409">
        <ele>1519.177</ele>
        <time>2013-02-08T12:58:01Z</time>
      </trkpt>
      <trkpt lat="45.31745" lon="5.7441">
        <ele>1519.548</ele>
        <time>2013-02-08T12:58:06Z</time>
      </trkpt>
      <trkpt lat="45.31744" lon="5.74411">
        <ele>1519.494</ele>
        <time>2013-02-08T12:58:08Z</time>
      </trkpt>
      <trkpt lat="45.3174" lon="5.74411">
        <ele>1519.69</ele>
        <time>2013-02-08T12:58:13Z</time>
      </trkpt>
      <trkpt lat="45.31736" lon="5.7441">
        <ele>1520.116</ele>
        <time>2013-02-08T12:58:17Z</time>
      </trkpt>
      <trkpt lat="45.31729" lon="5.74412">
        <ele>1520.327</ele>
        <time>2013-02-08T12:58:23Z</time>
      </trkpt>
      <trkpt lat="45.31724" lon="5.74413">
        <ele>1520.686</ele>
        <time>2013-02-08T12:58:28Z</time>
      </trkpt>
      <trkpt lat="45.3172" lon="5.74414">
        <ele>1521.014</ele>
        <time>2013-02-08T12:58:33Z</time>
      </trkpt>
      <trkpt lat="45.31714" lon="5.74413">
        <ele>1521.983</ele>
        <time>2013-02-08T12:58:47Z</time>
      </trkpt>
      <trkpt lat="45.31712" lon="5.74415">
        <ele>1521.344</ele>
        <time>2013-02-08T12:58:54Z</time>
      </trkpt>
      <trkpt lat="45.31707" lon="5.74418">
        <ele>1522.302</ele>
        <time>2013-02-08T12:59:02Z</time>
      </trkpt>
      <trkpt lat="45.31702" lon="5.74423">
        <ele>1523.052</ele>
        <time>2013-02-08T12:59:10Z</time>
      </trkpt>
      <trkpt lat="45.317" lon="5.74423">
        <ele>1522.804</ele>
        <time>2013-02-08T12:59:12Z</time>
      </trkpt>
      <trkpt lat="45.31694" lon="5.74425">
        <ele>1523.227</ele>
        <time>2013-02-08T12:59:20Z</time>
      </trkpt>
      <trkpt lat="45.31689" lon="5.74428">
        <ele>1523.505</ele>
        <time>2013-02-08T12:59:28Z</time>
      </trkpt>
      <trkpt lat="45.31684" lon="5.74432">
        <ele>1523.855</ele>
        <time>2013-02-08T12:59:35Z</time>
      </trkpt>
      <trkpt lat="45.31682" lon="5.74434">
        <ele>1524.042</ele>
        <time>2013-02-08T12:59:40Z</time>
      </trkpt>
      <trkpt lat="45.31677" lon="5.74437">
        <ele>1524.243</ele>
        <time>2013-02-08T12:59:46Z</time>
      </trkpt>
      <trkpt lat="45.31672" lon="5.74441">
        <ele>1524.474</ele>
        <time>2013-02-08T12:59:56Z</time>
      </trkpt>
      <trkpt lat="45.3167" lon="5.74441">
        <ele>1524.509</ele>
        <time>2013-02-08T12:59:58Z</time>
      </trkpt>
      <trkpt lat="45.31666" lon="5.74439">
        <ele>1525.126</ele>
        <time>2013-02-08T13:00:08Z</time>
      </trkpt>
      <trkpt lat="45.31665" lon="5.74438">
        <ele>1523.317</ele>
        <time>2013-02-08T13:00:14Z</time>
      </trkpt>
      <trkpt lat="45.31665" lon="5.74438">
        <ele>1522.55</ele>
        <time>2013-02-08T13:00:16Z</time>
      </trkpt>
      <trkpt lat="45.31667" lon="5.74438">
        <ele>1525.684</ele>
        <time>2013-02-08T13:00:20Z</time>
      </trkpt>
      <trkpt lat="45.31668" lon="5.74439">
        <ele>1525.001</ele>
        <time>2013-02-08T13:01:29Z</time>
      </trkpt>
      <trkpt lat="45.31667" lon="5.7444">
        <ele>1527.392</ele>
        <time>2013-02-08T13:01:34Z</time>
      </trkpt>
      <trkpt lat="45.31664" lon="5.74438">
        <ele>1527.033</ele>
        <time>2013-02-08T13:02:05Z</time>
      </trkpt>
      <trkpt lat="45.31664" lon="5.74438">
        <ele>1524.612</ele>
        <time>2013-02-08T13:02:12Z</time>
      </trkpt>
      <trkpt lat="45.31665" lon="5.7444">
        <ele>1526.816</ele>
        <time>2013-02-08T13:02:16Z</time>
      </trkpt>
      <trkpt lat="45.31669" lon="5.74439">
        <ele>1529.883</ele>
        <time>2013-02-08T13:05:15Z</time>
      </trkpt>
      <trkpt lat="45.31666" lon="5.7443">
        <ele>1530.708</ele>
        <time>2013-02-08T13:05:21Z</time>
      </trkpt>
      <trkpt lat="45.31666" lon="5.74426">
        <ele>1530.835</ele>
        <time>2013-02-08T13:05:25Z</time>
      </trkpt>
      <trkpt lat="45.31665" lon="5.74427">
        <ele>1530.983</ele>
        <time>2013-02-08T13:05:26Z</time>
      </trkpt>
      <trkpt lat="45.31661" lon="5.74427">
        <ele>1530.652</ele>
        <time>2013-02-08T13:05:28Z</time>
      </trkpt>
      <trkpt lat="45.31651" lon="5.74427">
        <ele>1530.561</ele>
        <time>2013-02-08T13:05:35Z</time>
      </trkpt>
      <trkpt lat="45.31644" lon="5.7443">
        <ele>1531.413</ele>
        <time>2013-02-08T13:05:41Z</time>
      </trkpt>
      <trkpt lat="45.31636" lon="5.74429">
        <ele>1531.229</ele>
        <time>2013-02-08T13:05:46Z</time>
      </trkpt>
      <trkpt lat="45.3163" lon="5.74433">
        <ele>1531.076</ele>
        <time>2013-02-08T13:05:53Z</time>
      </trkpt>
      <trkpt lat="45.31622" lon="5.74435">
        <ele>1531.616</ele>
        <time>2013-02-08T13:05:59Z</time>
      </trkpt>
      <trkpt lat="45.31619" lon="5.74437">
        <ele>1531.567</ele>
        <time>2013-02-08T13:06:02Z</time>
      </trkpt>
      <trkpt lat="45.31613" lon="5.7444">
        <ele>1531.116</ele>
        <time>2013-02-08T13:06:09Z</time>
      </trkpt>
      <trkpt lat="45.31611" lon="5.74442">
        <ele>1531.001</ele>
        <time>2013-02-08T13:06:11Z</time>
      </trkpt>
      <trkpt lat="45.31601" lon="5.74443">
        <ele>1530.614</ele>
        <time>2013-02-08T13:06:17Z</time>
      </trkpt>
      <trkpt lat="45.316" lon="5.74443">
        <ele>1530.218</ele>
        <time>2013-02-08T13:06:18Z</time>
      </trkpt>
      <trkpt lat="45.31594" lon="5.74449">
        <ele>1530.469</ele>
        <time>2013-02-08T13:06:24Z</time>
      </trkpt>
      <trkpt lat="45.31589" lon="5.74452">
        <ele>1530.455</ele>
        <time>2013-02-08T13:06:30Z</time>
      </trkpt>
      <trkpt lat="45.31587" lon="5.74457">
        <ele>1530.429</ele>
        <time>2013-02-08T13:06:34Z</time>
      </trkpt>
      <trkpt lat="45.31587" lon="5.74458">
        <ele>1530.638</ele>
        <time>2013-02-08T13:06:35Z</time>
      </trkpt>
      <trkpt lat="45.31585" lon="5.74459">
        <ele>1531.044</ele>
        <time>2013-02-08T13:06:37Z</time>
      </trkpt>
      <trkpt lat="45.31584" lon="5.7446">
        <ele>1531.539</ele>
        <time>2013-02-08T13:06:39Z</time>
      </trkpt>
      <trkpt lat="45.31577" lon="5.74464">
        <ele>1531.256</ele>
        <time>2013-02-08T13:06:46Z</time>
      </trkpt>
      <trkpt lat="45.31571" lon="5.74464">
        <ele>1531.748</ele>
        <time>2013-02-08T13:06:52Z</time>
      </trkpt>
      <trkpt lat="45.3157" lon="5.74464">
        <ele>1531.652</ele>
        <time>2013-02-08T13:06:53Z</time>
      </trkpt>
      <trkpt lat="45.31567" lon="5.74464">
        <ele>1531.613</ele>
        <time>2013-02-08T13:06:56Z</time>
      </trkpt>
      <trkpt lat="45.3156" lon="5.74468">
        <ele>1532.083</ele>
        <time>2013-02-08T13:07:02Z</time>
      </trkpt>
      <trkpt lat="45.31558" lon="5.74469">
        <ele>1531.634</ele>
        <time>2013-02-08T13:07:04Z</time>
      </trkpt>
      <trkpt lat="45.31552" lon="5.74469">
        <ele>1531.768</ele>
        <time>2013-02-08T13:07:10Z</time>
      </trkpt>
      <trkpt lat="45.31546" lon="5.74472">
        <ele>1531.752</ele>
        <time>2013-02-08T13:07:15Z</time>
      </trkpt>
      <trkpt lat="45.31543" lon="5.74476">
        <ele>1532.212</ele>
        <time>2013-02-08T13:07:19Z</time>
      </trkpt>
      <trkpt lat="45.31542" lon="5.74476">
        <ele>1532.049</ele>
        <time>2013-02-08T13:07:20Z</time>
      </trkpt>
      <trkpt lat="45.31537" lon="5.74481">
        <ele>1532.124</ele>
        <time>2013-02-08T13:07:26Z</time>
      </trkpt>
      <trkpt lat="45.31534" lon="5.74481">
        <ele>1531.984</ele>
        <time>2013-02-08T13:07:28Z</time>
      </trkpt>
      <trkpt lat="45.31529" lon="5.74482">
        <ele>1531.891</ele>
        <time>2013-02-08T13:07:34Z</time>
      </trkpt>
      <trkpt lat="45.31528" lon="5.74486">
        <ele>1532.14</ele>
        <time>2013-02-08T13:07:38Z</time>
      </trkpt>
      <trkpt lat="45.31527" lon="5.7449">
        <ele>1532.392</ele>
        <time>2013-02-08T13:07:42Z</time>
      </trkpt>
      <trkpt lat="45.31524" lon="5.74497">
        <ele>1532.711</ele>
        <time>2013-02-08T13:07:47Z</time>
      </trkpt>
      <trkpt lat="45.31522" lon="5.74496">
        <ele>1532.938</ele>
        <time>2013-02-08T13:07:49Z</time>
      </trkpt>
      <trkpt lat="45.31513" lon="5.74495">
        <ele>1533.842</ele>
        <time>2013-02-08T13:07:54Z</time>
      </trkpt>
      <trkpt lat="45.31509" lon="5.74496">
        <ele>1533.22</ele>
        <time>2013-02-08T13:07:58Z</time>
      </trkpt>
      <trkpt lat="45.31502" lon="5.74493">
        <ele>1532.464</ele>
        <time>2013-02-08T13:08:04Z</time>
      </trkpt>
      <trkpt lat="45.31495" lon="5.74493">
        <ele>1531.705</ele>
        <time>2013-02-08T13:08:10Z</time>
      </trkpt>
      <trkpt lat="45.31493" lon="5.74494">
        <ele>1531.856</ele>
        <time>2013-02-08T13:08:13Z</time>
      </trkpt>
      <trkpt lat="45.31484" lon="5.74492">
        <ele>1532.442</ele>
        <time>2013-02-08T13:08:19Z</time>
      </trkpt>
      <trkpt lat="45.3148" lon="5.74495">
        <ele>1532.622</ele>
        <time>2013-02-08T13:08:23Z</time>
      </trkpt>
      <trkpt lat="45.31474" lon="5.74493">
        <ele>1533.42</ele>
        <time>2013-02-08T13:08:28Z</time>
      </trkpt>
      <trkpt lat="45.31472" lon="5.7449">
        <ele>1533.372</ele>
        <time>2013-02-08T13:08:30Z</time>
      </trkpt>
      <trkpt lat="45.3147" lon="5.74491">
        <ele>1533.926</ele>
        <time>2013-02-08T13:08:33Z</time>
      </trkpt>
      <trkpt lat="45.31467" lon="5.74494">
        <ele>1534.572</ele>
        <time>2013-02-08T13:08:38Z</time>
      </trkpt>
      <trkpt lat="45.31467" lon="5.74494">
        <ele>1534.729</ele>
        <time>2013-02-08T13:08:39Z</time>
      </trkpt>
      <trkpt lat="45.31461" lon="5.74498">
        <ele>1534.956</ele>
        <time>2013-02-08T13:08:46Z</time>
      </trkpt>
      <trkpt lat="45.3146" lon="5.74501">
        <ele>1535.207</ele>
        <time>2013-02-08T13:08:50Z</time>
      </trkpt>
      <trkpt lat="45.31455" lon="5.74501">
        <ele>1536.335</ele>
        <time>2013-02-08T13:08:55Z</time>
      </trkpt>
      <trkpt lat="45.31453" lon="5.74503">
        <ele>1536.762</ele>
        <time>2013-02-08T13:09:00Z</time>
      </trkpt>
      <trkpt lat="45.3145" lon="5.74505">
        <ele>1537.27</ele>
        <time>2013-02-08T13:09:03Z</time>
      </trkpt>
      <trkpt lat="45.31447" lon="5.74509">
        <ele>1538.019</ele>
        <time>2013-02-08T13:09:08Z</time>
      </trkpt>
      <trkpt lat="45.31446" lon="5.74511">
        <ele>1538.461</ele>
        <time>2013-02-08T13:09:10Z</time>
      </trkpt>
      <trkpt lat="45.31442" lon="5.74509">
        <ele>1538.69</ele>
        <time>2013-02-08T13:09:13Z</time>
      </trkpt>
      <trkpt lat="45.3144" lon="5.74509">
        <ele>1538.727</ele>
        <time>2013-02-08T13:09:15Z</time>
      </trkpt>
      <trkpt lat="45.31438" lon="5.74509">
        <ele>1539.389</ele>
        <time>2013-02-08T13:09:20Z</time>
      </trkpt>
      <trkpt lat="45.31433" lon="5.74506">
        <ele>1538.711</ele>
        <time>2013-02-08T13:09:29Z</time>
      </trkpt>
      <trkpt lat="45.3143" lon="5.74505">
        <ele>1540.619</ele>
        <time>2013-02-08T13:09:36Z</time>
      </trkpt>
      <trkpt lat="45.31429" lon="5.7451">
        <ele>1540.979</ele>
        <time>2013-02-08T13:09:40Z</time>
      </trkpt>
      <trkpt lat="45.31427" lon="5.74511">
        <ele>1541.476</ele>
        <time>2013-02-08T13:09:44Z</time>
      </trkpt>
      <trkpt lat="45.31425" lon="5.74513">
        <ele>1542.257</ele>
        <time>2013-02-08T13:09:48Z</time>
      </trkpt>
      <trkpt lat="45.31423" lon="5.74514">
        <ele>1542.787</ele>
        <time>2013-02-08T13:09:53Z</time>
      </trkpt>
      <trkpt lat="45.31421" lon="5.74513">
        <ele>1543.677</ele>
        <time>2013-02-08T13:09:57Z</time>
      </trkpt>
      <trkpt lat="45.31416" lon="5.7451">
        <ele>1544.669</ele>
        <time>2013-02-08T13:10:00Z</time>
      </trkpt>
      <trkpt lat="45.31411" lon="5.74511">
        <ele>1545.059</ele>
        <time>2013-02-08T13:10:04Z</time>
      </trkpt>
      <trkpt lat="45.31408" lon="5.74515">
        <ele>1546.052</ele>
        <time>2013-02-08T13:10:09Z</time>
      </trkpt>
      <trkpt lat="45.31407" lon="5.7452">
        <ele>1546.92</ele>
        <time>2013-02-08T13:10:14Z</time>
      </trkpt>
      <trkpt lat="45.31405" lon="5.74523">
        <ele>1547.793</ele>
        <time>2013-02-08T13:10:18Z</time>
      </trkpt>
      <trkpt lat="45.31402" lon="5.74522">
        <ele>1548.371</ele>
        <time>2013-02-08T13:10:23Z</time>
      </trkpt>
      <trkpt lat="45.31402" lon="5.74521">
        <ele>1549.054</ele>
        <time>2013-02-08T13:10:27Z</time>
      </trkpt>
      <trkpt lat="45.314" lon="5.74522">
        <ele>1550.524</ele>
        <time>2013-02-08T13:10:33Z</time>
      </trkpt>
      <trkpt lat="45.31395" lon="5.7452">
        <ele>1552.073</ele>
        <time>2013-02-08T13:10:40Z</time>
      </trkpt>
      <trkpt lat="45.31388" lon="5.7452">
        <ele>1553.808</ele>
        <time>2013-02-08T13:10:46Z</time>
      </trkpt>
      <trkpt lat="45.31387" lon="5.74525">
        <ele>1554.683</ele>
        <time>2013-02-08T13:10:51Z</time>
      </trkpt>
      <trkpt lat="45.31384" lon="5.74528">
        <ele>1555.046</ele>
        <time>2013-02-08T13:10:55Z</time>
      </trkpt>
      <trkpt lat="45.31378" lon="5.74527">
        <ele>1555.526</ele>
        <time>2013-02-08T13:11:01Z</time>
      </trkpt>
      <trkpt lat="45.31374" lon="5.74532">
        <ele>1556.237</ele>
        <time>2013-02-08T13:11:06Z</time>
      </trkpt>
      <trkpt lat="45.31374" lon="5.74533">
        <ele>1556.495</ele>
        <time>2013-02-08T13:11:07Z</time>
      </trkpt>
      <trkpt lat="45.31372" lon="5.74538">
        <ele>1556.546</ele>
        <time>2013-02-08T13:11:12Z</time>
      </trkpt>
      <trkpt lat="45.31367" lon="5.74543">
        <ele>1556.474</ele>
        <time>2013-02-08T13:11:18Z</time>
      </trkpt>
      <trkpt lat="45.31365" lon="5.74546">
        <ele>1557.212</ele>
        <time>2013-02-08T13:11:23Z</time>
      </trkpt>
      <trkpt lat="45.31365" lon="5.74548">
        <ele>1557.428</ele>
        <time>2013-02-08T13:11:25Z</time>
      </trkpt>
      <trkpt lat="45.31364" lon="5.74548">
        <ele>1557.764</ele>
        <time>2013-02-08T13:11:28Z</time>
      </trkpt>
      <trkpt lat="45.31362" lon="5.74556">
        <ele>1557.892</ele>
        <time>2013-02-08T13:11:33Z</time>
      </trkpt>
      <trkpt lat="45.31355" lon="5.74555">
        <ele>1558.626</ele>
        <time>2013-02-08T13:11:40Z</time>
      </trkpt>
      <trkpt lat="45.31353" lon="5.74557">
        <ele>1559.161</ele>
        <time>2013-02-08T13:11:42Z</time>
      </trkpt>
      <trkpt lat="45.31351" lon="5.7456">
        <ele>1560.054</ele>
        <time>2013-02-08T13:11:48Z</time>
      </trkpt>
      <trkpt lat="45.31352" lon="5.74563">
        <ele>1561.343</ele>
        <time>2013-02-08T13:11:54Z</time>
      </trkpt>
      <trkpt lat="45.31346" lon="5.74565">
        <ele>1562.867</ele>
        <time>2013-02-08T13:12:03Z</time>
      </trkpt>
      <trkpt lat="45.31344" lon="5.74567">
        <ele>1563.707</ele>
        <time>2013-02-08T13:12:08Z</time>
      </trkpt>
      <trkpt lat="45.31342" lon="5.7457">
        <ele>1563.968</ele>
        <time>2013-02-08T13:12:12Z</time>
      </trkpt>
      <trkpt lat="45.31341" lon="5.74569">
        <ele>1565.376</ele>
        <time>2013-02-08T13:12:17Z</time>
      </trkpt>
      <trkpt lat="45.31338" lon="5.74574">
        <ele>1566.208</ele>
        <time>2013-02-08T13:12:23Z</time>
      </trkpt>
      <trkpt lat="45.31338" lon="5.74577">
        <ele>1566.659</ele>
        <time>2013-02-08T13:12:26Z</time>
      </trkpt>
      <trkpt lat="45.31335" lon="5.74578">
        <ele>1567.677</ele>
        <time>2013-02-08T13:12:32Z</time>
      </trkpt>
      <trkpt lat="45.31331" lon="5.74581">
        <ele>1568.428</ele>
        <time>2013-02-08T13:12:36Z</time>
      </trkpt>
      <trkpt lat="45.3133" lon="5.74582">
        <ele>1569.107</ele>
        <time>2013-02-08T13:12:40Z</time>
      </trkpt>
      <trkpt lat="45.31329" lon="5.74586">
        <ele>1569.725</ele>
        <time>2013-02-08T13:12:44Z</time>
      </trkpt>
      <trkpt lat="45.31326" lon="5.74586">
        <ele>1570.253</ele>
        <time>2013-02-08T13:12:48Z</time>
      </trkpt>
      <trkpt lat="45.31324" lon="5.74589">
        <ele>1570.845</ele>
        <time>2013-02-08T13:12:52Z</time>
      </trkpt>
      <trkpt lat="45.31323" lon="5.74596">
        <ele>1572.709</ele>
        <time>2013-02-08T13:12:57Z</time>
      </trkpt>
      <trkpt lat="45.31322" lon="5.74601">
        <ele>1573.457</ele>
        <time>2013-02-08T13:13:04Z</time>
      </trkpt>
      <trkpt lat="45.31323" lon="5.74608">
        <ele>1574.471</ele>
        <time>2013-02-08T13:13:11Z</time>
      </trkpt>
      <trkpt lat="45.31324" lon="5.74609">
        <ele>1575.117</ele>
        <time>2013-02-08T13:13:13Z</time>
      </trkpt>
      <trkpt lat="45.31322" lon="5.74611">
        <ele>1575.57</ele>
        <time>2013-02-08T13:13:18Z</time>
      </trkpt>
      <trkpt lat="45.31321" lon="5.74615">
        <ele>1577.512</ele>
        <time>2013-02-08T13:13:28Z</time>
      </trkpt>
      <trkpt lat="45.3132" lon="5.74622">
        <ele>1579.419</ele>
        <time>2013-02-08T13:13:37Z</time>
      </trkpt>
      <trkpt lat="45.31318" lon="5.74626">
        <ele>1580.833</ele>
        <time>2013-02-08T13:13:46Z</time>
      </trkpt>
      <trkpt lat="45.31312" lon="5.74624">
        <ele>1583.378</ele>
        <time>2013-02-08T13:14:01Z</time>
      </trkpt>
      <trkpt lat="45.31313" lon="5.74626">
        <ele>1584.01</ele>
        <time>2013-02-08T13:14:06Z</time>
      </trkpt>
      <trkpt lat="45.31312" lon="5.74626">
        <ele>1584.486</ele>
        <time>2013-02-08T13:14:07Z</time>
      </trkpt>
      <trkpt lat="45.3131" lon="5.7463">
        <ele>1585.228</ele>
        <time>2013-02-08T13:14:12Z</time>
      </trkpt>
      <trkpt lat="45.31309" lon="5.74632">
        <ele>1586.428</ele>
        <time>2013-02-08T13:14:17Z</time>
      </trkpt>
      <trkpt lat="45.31307" lon="5.74635">
        <ele>1587.684</ele>
        <time>2013-02-08T13:14:24Z</time>
      </trkpt>
      <trkpt lat="45.31307" lon="5.74639">
        <ele>1588.93</ele>
        <time>2013-02-08T13:14:29Z</time>
      </trkpt>
      <trkpt lat="45.31308" lon="5.74642">
        <ele>1589.606</ele>
        <time>2013-02-08T13:14:33Z</time>
      </trkpt>
      <trkpt lat="45.31305" lon="5.74646">
        <ele>1591.051</ele>
        <time>2013-02-08T13:14:42Z</time>
      </trkpt>
      <trkpt lat="45.31306" lon="5.74652">
        <ele>1592.615</ele>
        <time>2013-02-08T13:14:51Z</time>
      </trkpt>
      <trkpt lat="45.31303" lon="5.74656">
        <ele>1593.856</ele>
        <time>2013-02-08T13:14:56Z</time>
      </trkpt>
      <trkpt lat="45.31299" lon="5.74659">
        <ele>1594.24</ele>
        <time>2013-02-08T13:15:00Z</time>
      </trkpt>
      <trkpt lat="45.31299" lon="5.74662">
        <ele>1594.727</ele>
        <time>2013-02-08T13:15:04Z</time>
      </trkpt>
      <trkpt lat="45.313" lon="5.74666">
        <ele>1595.773</ele>
        <time>2013-02-08T13:15:09Z</time>
      </trkpt>
      <trkpt lat="45.31298" lon="5.74672">
        <ele>1595.925</ele>
        <time>2013-02-08T13:15:14Z</time>
      </trkpt>
      <trkpt lat="45.31296" lon="5.74679">
        <ele>1596.252</ele>
        <time>2013-02-08T13:15:19Z</time>
      </trkpt>
      <trkpt lat="45.31294" lon="5.74686">
        <ele>1596.84</ele>
        <time>2013-02-08T13:15:25Z</time>
      </trkpt>
      <trkpt lat="45.31291" lon="5.74689">
        <ele>1597.284</ele>
        <time>2013-02-08T13:15:29Z</time>
      </trkpt>
      <trkpt lat="45.31288" lon="5.74693">
        <ele>1597.328</ele>
        <time>2013-02-08T13:15:33Z</time>
      </trkpt>
      <trkpt lat="45.31286" lon="5.74698">
        <ele>1597.541</ele>
        <time>2013-02-08T13:15:37Z</time>
      </trkpt>
      <trkpt lat="45.31284" lon="5.74701">
        <ele>1597.752</ele>
        <time>2013-02-08T13:15:40Z</time>
      </trkpt>
      <trkpt lat="45.3128" lon="5.74703">
        <ele>1598.1</ele>
        <time>2013-02-08T13:15:45Z</time>
      </trkpt>
      <trkpt lat="45.31278" lon="5.74705">
        <ele>1598.155</ele>
        <time>2013-02-08T13:15:47Z</time>
      </trkpt>
      <trkpt lat="45.3127" lon="5.74711">
        <ele>1598.535</ele>
        <time>2013-02-08T13:15:54Z</time>
      </trkpt>
      <trkpt lat="45.31267" lon="5.74714">
        <ele>1598.705</ele>
        <time>2013-02-08T13:15:59Z</time>
      </trkpt>
      <trkpt lat="45.31266" lon="5.74718">
        <ele>1599.187</ele>
        <time>2013-02-08T13:16:02Z</time>
      </trkpt>
      <trkpt lat="45.31261" lon="5.74726">
        <ele>1600.235</ele>
        <time>2013-02-08T13:16:09Z</time>
      </trkpt>
      <trkpt lat="45.31255" lon="5.74729">
        <ele>1600.01</ele>
        <time>2013-02-08T13:16:14Z</time>
      </trkpt>
      <trkpt lat="45.31251" lon="5.74728">
        <ele>1600.244</ele>
        <time>2013-02-08T13:16:20Z</time>
      </trkpt>
      <trkpt lat="45.31251" lon="5.74728">
        <ele>1600.881</ele>
        <time>2013-02-08T13:16:25Z</time>
      </trkpt>
      <trkpt lat="45.31243" lon="5.74729">
        <ele>1600.938</ele>
        <time>2013-02-08T13:16:31Z</time>
      </trkpt>
      <trkpt lat="45.31246" lon="5.74733">
        <ele>1601.341</ele>
        <time>2013-02-08T13:16:35Z</time>
      </trkpt>
      <trkpt lat="45.31248" lon="5.74731">
        <ele>1601.923</ele>
        <time>2013-02-08T13:16:48Z</time>
      </trkpt>
      <trkpt lat="45.31246" lon="5.74735">
        <ele>1602.862</ele>
        <time>2013-02-08T13:16:53Z</time>
      </trkpt>
      <trkpt lat="45.31245" lon="5.74742">
        <ele>1604.071</ele>
        <time>2013-02-08T13:17:01Z</time>
      </trkpt>
      <trkpt lat="45.3124" lon="5.74746">
        <ele>1604.629</ele>
        <time>2013-02-08T13:17:12Z</time>
      </trkpt>
      <trkpt lat="45.31235" lon="5.74751">
        <ele>1605.989</ele>
        <time>2013-02-08T13:17:33Z</time>
      </trkpt>
      <trkpt lat="45.31237" lon="5.74752">
        <ele>1606.486</ele>
        <time>2013-02-08T13:17:36Z</time>
      </trkpt>
      <trkpt lat="45.31238" lon="5.74756">
        <ele>1607.345</ele>
        <time>2013-02-08T13:17:41Z</time>
      </trkpt>
      <trkpt lat="45.31239" lon="5.74759">
        <ele>1608.189</ele>
        <time>2013-02-08T13:17:46Z</time>
      </trkpt>
      <trkpt lat="45.31239" lon="5.74764">
        <ele>1608.882</ele>
        <time>2013-02-08T13:17:52Z</time>
      </trkpt>
      <trkpt lat="45.31241" lon="5.74768">
        <ele>1609.138</ele>
        <time>2013-02-08T13:17:57Z</time>
      </trkpt>
      <trkpt lat="45.31243" lon="5.74771">
        <ele>1609.947</ele>
        <time>2013-02-08T13:18:01Z</time>
      </trkpt>
      <trkpt lat="45.31246" lon="5.74775">
        <ele>1610.779</ele>
        <time>2013-02-08T13:18:07Z</time>
      </trkpt>
      <trkpt lat="45.31247" lon="5.74777">
        <ele>1610.986</ele>
        <time>2013-02-08T13:18:08Z</time>
      </trkpt>
      <trkpt lat="45.31247" lon="5.7478">
        <ele>1612.097</ele>
        <time>2013-02-08T13:18:13Z</time>
      </trkpt>
      <trkpt lat="45.31248" lon="5.74782">
        <ele>1612.36</ele>
        <time>2013-02-08T13:18:17Z</time>
      </trkpt>
      <trkpt lat="45.3125" lon="5.74788">
        <ele>1613.156</ele>
        <time>2013-02-08T13:18:23Z</time>
      </trkpt>
      <trkpt lat="45.31253" lon="5.74788">
        <ele>1613.512</ele>
        <time>2013-02-08T13:18:24Z</time>
      </trkpt>
      <trkpt lat="45.31254" lon="5.74789">
        <ele>1613.819</ele>
        <time>2013-02-08T13:18:26Z</time>
      </trkpt>
      <trkpt lat="45.31251" lon="5.74795">
        <ele>1613.315</ele>
        <time>2013-02-08T13:18:32Z</time>
      </trkpt>
      <trkpt lat="45.31249" lon="5.74797">
        <ele>1613.783</ele>
        <time>2013-02-08T13:18:35Z</time>
      </trkpt>
      <trkpt lat="45.31247" lon="5.74803">
        <ele>1614.597</ele>
        <time>2013-02-08T13:18:41Z</time>
      </trkpt>
      <trkpt lat="45.31246" lon="5.74809">
        <ele>1614.782</ele>
        <time>2013-02-08T13:18:45Z</time>
      </trkpt>
      <trkpt lat="45.31247" lon="5.74811">
        <ele>1614.938</ele>
        <time>2013-02-08T13:18:47Z</time>
      </trkpt>
      <trkpt lat="45.31248" lon="5.74819">
        <ele>1615.578</ele>
        <time>2013-02-08T13:18:54Z</time>
      </trkpt>
      <trkpt lat="45.31247" lon="5.74822">
        <ele>1616.452</ele>
        <time>2013-02-08T13:18:58Z</time>
      </trkpt>
      <trkpt lat="45.31245" lon="5.74827">
        <ele>1616.866</ele>
        <time>2013-02-08T13:19:03Z</time>
      </trkpt>
      <trkpt lat="45.31242" lon="5.74836">
        <ele>1617.012</ele>
        <time>2013-02-08T13:19:08Z</time>
      </trkpt>
      <trkpt lat="45.31242" lon="5.74843">
        <ele>1617.903</ele>
        <time>2013-02-08T13:19:13Z</time>
      </trkpt>
      <trkpt lat="45.3124" lon="5.74844">
        <ele>1618.266</ele>
        <time>2013-02-08T13:19:15Z</time>
      </trkpt>
      <trkpt lat="45.3124" lon="5.74848">
        <ele>1618.118</ele>
        <time>2013-02-08T13:19:17Z</time>
      </trkpt>
      <trkpt lat="45.31239" lon="5.74854">
        <ele>1618.779</ele>
        <time>2013-02-08T13:19:22Z</time>
      </trkpt>
      <trkpt lat="45.3124" lon="5.74859">
        <ele>1619.641</ele>
        <time>2013-02-08T13:19:27Z</time>
      </trkpt>
      <trkpt lat="45.31243" lon="5.74865">
        <ele>1620.443</ele>
        <time>2013-02-08T13:19:34Z</time>
      </trkpt>
      <trkpt lat="45.31245" lon="5.74869">
        <ele>1620.713</ele>
        <time>2013-02-08T13:19:37Z</time>
      </trkpt>
      <trkpt lat="45.31244" lon="5.74879">
        <ele>1621.78</ele>
        <time>2013-02-08T13:19:44Z</time>
      </trkpt>
      <trkpt lat="45.31244" lon="5.74881">
        <ele>1622.206</ele>
        <time>2013-02-08T13:19:48Z</time>
      </trkpt>
      <trkpt lat="45.31244" lon="5.74884">
        <ele>1623.29</ele>
        <time>2013-02-08T13:19:52Z</time>
      </trkpt>
      <trkpt lat="45.31245" lon="5.74885">
        <ele>1623.978</ele>
        <time>2013-02-08T13:19:58Z</time>
      </trkpt>
      <trkpt lat="45.31244" lon="5.74888">
        <ele>1625.224</ele>
        <time>2013-02-08T13:20:01Z</time>
      </trkpt>
      <trkpt lat="45.31243" lon="5.74893">
        <ele>1625.508</ele>
        <time>2013-02-08T13:20:08Z</time>
      </trkpt>
      <trkpt lat="45.31244" lon="5.74895">
        <ele>1627.241</ele>
        <time>2013-02-08T13:20:13Z</time>
      </trkpt>
      <trkpt lat="45.31245" lon="5.74897">
        <ele>1627.877</ele>
        <time>2013-02-08T13:20:20Z</time>
      </trkpt>
      <trkpt lat="45.31243" lon="5.74897">
        <ele>1627.94</ele>
        <time>2013-02-08T13:20:23Z</time>
      </trkpt>
      <trkpt lat="45.31241" lon="5.74901">
        <ele>1628.442</ele>
        <time>2013-02-08T13:20:28Z</time>
      </trkpt>
      <trkpt lat="45.3124" lon="5.74906">
        <ele>1628.693</ele>
        <time>2013-02-08T13:20:35Z</time>
      </trkpt>
      <trkpt lat="45.31239" lon="5.74909">
        <ele>1629.625</ele>
        <time>2013-02-08T13:20:39Z</time>
      </trkpt>
      <trkpt lat="45.3124" lon="5.74909">
        <ele>1630.309</ele>
        <time>2013-02-08T13:20:43Z</time>
      </trkpt>
      <trkpt lat="45.31236" lon="5.7491">
        <ele>1631.593</ele>
        <time>2013-02-08T13:20:49Z</time>
      </trkpt>
      <trkpt lat="45.31234" lon="5.74915">
        <ele>1631.634</ele>
        <time>2013-02-08T13:20:53Z</time>
      </trkpt>
      <trkpt lat="45.31232" lon="5.7492">
        <ele>1632.302</ele>
        <time>2013-02-08T13:20:58Z</time>
      </trkpt>
      <trkpt lat="45.3123" lon="5.74924">
        <ele>1633.217</ele>
        <time>2013-02-08T13:21:03Z</time>
      </trkpt>
      <trkpt lat="45.31225" lon="5.74935">
        <ele>1633.235</ele>
        <time>2013-02-08T13:21:10Z</time>
      </trkpt>
      <trkpt lat="45.3122" lon="5.74935">
        <ele>1633.585</ele>
        <time>2013-02-08T13:21:15Z</time>
      </trkpt>
      <trkpt lat="45.31215" lon="5.74936">
        <ele>1633.641</ele>
        <time>2013-02-08T13:21:20Z</time>
      </trkpt>
      <trkpt lat="45.31215" lon="5.74937">
        <ele>1633.617</ele>
        <time>2013-02-08T13:21:24Z</time>
      </trkpt>
      <trkpt lat="45.31214" lon="5.74935">
        <ele>1634.834</ele>
        <time>2013-02-08T13:21:33Z</time>
      </trkpt>
      <trkpt lat="45.31211" lon="5.74933">
        <ele>1635.024</ele>
        <time>2013-02-08T13:21:39Z</time>
      </trkpt>
      <trkpt lat="45.31208" lon="5.74938">
        <ele>1635.876</ele>
        <time>2013-02-08T13:21:51Z</time>
      </trkpt>
      <trkpt lat="45.31203" lon="5.74941">
        <ele>1635.572</ele>
        <time>2013-02-08T13:22:01Z</time>
      </trkpt>
      <trkpt lat="45.31202" lon="5.74941">
        <ele>1637.369</ele>
        <time>2013-02-08T13:22:05Z</time>
      </trkpt>
      <trkpt lat="45.312" lon="5.74942">
        <ele>1636.972</ele>
        <time>2013-02-08T13:22:10Z</time>
      </trkpt>
      <trkpt lat="45.31197" lon="5.74942">
        <ele>1637.953</ele>
        <time>2013-02-08T13:22:25Z</time>
      </trkpt>
      <trkpt lat="45.31196" lon="5.74952">
        <ele>1638.357</ele>
        <time>2013-02-08T13:22:33Z</time>
      </trkpt>
      <trkpt lat="45.31193" lon="5.74952">
        <ele>1638.536</ele>
        <time>2013-02-08T13:22:37Z</time>
      </trkpt>
      <trkpt lat="45.31189" lon="5.74951">
        <ele>1639.404</ele>
        <time>2013-02-08T13:22:43Z</time>
      </trkpt>
      <trkpt lat="45.31188" lon="5.7495">
        <ele>1639.436</ele>
        <time>2013-02-08T13:22:49Z</time>
      </trkpt>
      <trkpt lat="45.31186" lon="5.74952">
        <ele>1640.873</ele>
        <time>2013-02-08T13:22:55Z</time>
      </trkpt>
      <trkpt lat="45.31181" lon="5.7495">
        <ele>1641.378</ele>
        <time>2013-02-08T13:23:03Z</time>
      </trkpt>
      <trkpt lat="45.3118" lon="5.74952">
        <ele>1642.063</ele>
        <time>2013-02-08T13:23:07Z</time>
      </trkpt>
      <trkpt lat="45.31178" lon="5.74954">
        <ele>1641.963</ele>
        <time>2013-02-08T13:23:11Z</time>
      </trkpt>
      <trkpt lat="45.31179" lon="5.74958">
        <ele>1642.97</ele>
        <time>2013-02-08T13:23:16Z</time>
      </trkpt>
      <trkpt lat="45.31178" lon="5.74962">
        <ele>1643.736</ele>
        <time>2013-02-08T13:23:21Z</time>
      </trkpt>
      <trkpt lat="45.31174" lon="5.74963">
        <ele>1644.4</ele>
        <time>2013-02-08T13:23:26Z</time>
      </trkpt>
      <trkpt lat="45.31172" lon="5.74961">
        <ele>1644.869</ele>
        <time>2013-02-08T13:23:31Z</time>
      </trkpt>
      <trkpt lat="45.31168" lon="5.74964">
        <ele>1646.136</ele>
        <time>2013-02-08T13:23:36Z</time>
      </trkpt>
      <trkpt lat="45.31166" lon="5.74972">
        <ele>1647.019</ele>
        <time>2013-02-08T13:23:41Z</time>
      </trkpt>
      <trkpt lat="45.31166" lon="5.74973">
        <ele>1647.601</ele>
        <time>2013-02-08T13:23:44Z</time>
      </trkpt>
      <trkpt lat="45.31161" lon="5.74976">
        <ele>1648.438</ele>
        <time>2013-02-08T13:23:49Z</time>
      </trkpt>
      <trkpt lat="45.31158" lon="5.74976">
        <ele>1648.996</ele>
        <time>2013-02-08T13:23:53Z</time>
      </trkpt>
      <trkpt lat="45.31155" lon="5.74973">
        <ele>1649.951</ele>
        <time>2013-02-08T13:23:58Z</time>
      </trkpt>
      <trkpt lat="45.31147" lon="5.7497">
        <ele>1650.581</ele>
        <time>2013-02-08T13:24:04Z</time>
      </trkpt>
      <trkpt lat="45.31146" lon="5.74974">
        <ele>1651.806</ele>
        <time>2013-02-08T13:24:11Z</time>
      </trkpt>
      <trkpt lat="45.31143" lon="5.74978">
        <ele>1653.21</ele>
        <time>2013-02-08T13:24:22Z</time>
      </trkpt>
      <trkpt lat="45.31145" lon="5.74986">
        <ele>1654.729</ele>
        <time>2013-02-08T13:24:31Z</time>
      </trkpt>
      <trkpt lat="45.3114" lon="5.74983">
        <ele>1656.473</ele>
        <time>2013-02-08T13:24:39Z</time>
      </trkpt>
      <trkpt lat="45.31134" lon="5.74986">
        <ele>1657.903</ele>
        <time>2013-02-08T13:24:48Z</time>
      </trkpt>
      <trkpt lat="45.31132" lon="5.74984">
        <ele>1658.997</ele>
        <time>2013-02-08T13:24:53Z</time>
      </trkpt>
      <trkpt lat="45.31129" lon="5.74981">
        <ele>1659.443</ele>
        <time>2013-02-08T13:24:56Z</time>
      </trkpt>
      <trkpt lat="45.31126" lon="5.74991">
        <ele>1660.072</ele>
        <time>2013-02-08T13:25:02Z</time>
      </trkpt>
      <trkpt lat="45.31125" lon="5.74991">
        <ele>1660.893</ele>
        <time>2013-02-08T13:25:06Z</time>
      </trkpt>
      <trkpt lat="45.31125" lon="5.75001">
        <ele>1661.108</ele>
        <time>2013-02-08T13:25:11Z</time>
      </trkpt>
      <trkpt lat="45.31124" lon="5.75002">
        <ele>1661.477</ele>
        <time>2013-02-08T13:25:12Z</time>
      </trkpt>
      <trkpt lat="45.3112" lon="5.75001">
        <ele>1661.64</ele>
        <time>2013-02-08T13:25:18Z</time>
      </trkpt>
      <trkpt lat="45.31115" lon="5.75005">
        <ele>1662.425</ele>
        <time>2013-02-08T13:25:23Z</time>
      </trkpt>
      <trkpt lat="45.31111" lon="5.75007">
        <ele>1663.344</ele>
        <time>2013-02-08T13:25:29Z</time>
      </trkpt>
      <trkpt lat="45.3111" lon="5.75006">
        <ele>1664.088</ele>
        <time>2013-02-08T13:25:35Z</time>
      </trkpt>
      <trkpt lat="45.31104" lon="5.75007">
        <ele>1664.408</ele>
        <time>2013-02-08T13:25:39Z</time>
      </trkpt>
      <trkpt lat="45.31103" lon="5.75008">
        <ele>1665.166</ele>
        <time>2013-02-08T13:25:43Z</time>
      </trkpt>
      <trkpt lat="45.31102" lon="5.75011">
        <ele>1665.582</ele>
        <time>2013-02-08T13:25:47Z</time>
      </trkpt>
      <trkpt lat="45.311" lon="5.75018">
        <ele>1666.121</ele>
        <time>2013-02-08T13:25:52Z</time>
      </trkpt>
      <trkpt lat="45.311" lon="5.75019">
        <ele>1666.057</ele>
        <time>2013-02-08T13:25:53Z</time>
      </trkpt>
      <trkpt lat="45.31097" lon="5.75021">
        <ele>1666.667</ele>
        <time>2013-02-08T13:25:59Z</time>
      </trkpt>
      <trkpt lat="45.31094" lon="5.75021">
        <ele>1667.612</ele>
        <time>2013-02-08T13:26:03Z</time>
      </trkpt>
      <trkpt lat="45.31089" lon="5.75018">
        <ele>1668.093</ele>
        <time>2013-02-08T13:26:07Z</time>
      </trkpt>
      <trkpt lat="45.3109" lon="5.7502">
        <ele>1669.37</ele>
        <time>2013-02-08T13:26:13Z</time>
      </trkpt>
      <trkpt lat="45.31085" lon="5.75028">
        <ele>1672.272</ele>
        <time>2013-02-08T13:26:38Z</time>
      </trkpt>
      <trkpt lat="45.31084" lon="5.75031">
        <ele>1673.675</ele>
        <time>2013-02-08T13:26:46Z</time>
      </trkpt>
      <trkpt lat="45.31085" lon="5.75033">
        <ele>1674.881</ele>
        <time>2013-02-08T13:26:50Z</time>
      </trkpt>
      <trkpt lat="45.31083" lon="5.75036">
        <ele>1675.481</ele>
        <time>2013-02-08T13:26:54Z</time>
      </trkpt>
      <trkpt lat="45.31083" lon="5.75043">
        <ele>1676.06</ele>
        <time>2013-02-08T13:27:01Z</time>
      </trkpt>
      <trkpt lat="45.31078" lon="5.7504">
        <ele>1676.501</ele>
        <time>2013-02-08T13:27:05Z</time>
      </trkpt>
      <trkpt lat="45.31074" lon="5.75038">
        <ele>1677.162</ele>
        <time>2013-02-08T13:27:12Z</time>
      </trkpt>
      <trkpt lat="45.31075" lon="5.75032">
        <ele>1678.234</ele>
        <time>2013-02-08T13:27:23Z</time>
      </trkpt>
      <trkpt lat="45.31079" lon="5.75034">
        <ele>1678.935</ele>
        <time>2013-02-08T13:27:29Z</time>
      </trkpt>
      <trkpt lat="45.31082" lon="5.75034">
        <ele>1679.789</ele>
        <time>2013-02-08T13:27:33Z</time>
      </trkpt>
      <trkpt lat="45.31083" lon="5.75034">
        <ele>1679.991</ele>
        <time>2013-02-08T13:27:35Z</time>
      </trkpt>
      <trkpt lat="45.31088" lon="5.75033">
        <ele>1680.847</ele>
        <time>2013-02-08T13:27:39Z</time>
      </trkpt>
      <trkpt lat="45.31092" lon="5.75037">
        <ele>1681.147</ele>
        <time>2013-02-08T13:27:44Z</time>
      </trkpt>
      <trkpt lat="45.31096" lon="5.7504">
        <ele>1682.027</ele>
        <time>2013-02-08T13:27:49Z</time>
      </trkpt>
      <trkpt lat="45.311" lon="5.75039">
        <ele>1683.211</ele>
        <time>2013-02-08T13:27:55Z</time>
      </trkpt>
      <trkpt lat="45.31103" lon="5.75036">
        <ele>1684.029</ele>
        <time>2013-02-08T13:28:02Z</time>
      </trkpt>
      <trkpt lat="45.31108" lon="5.75038">
        <ele>1684.851</ele>
        <time>2013-02-08T13:28:13Z</time>
      </trkpt>
      <trkpt lat="45.31113" lon="5.75044">
        <ele>1686.197</ele>
        <time>2013-02-08T13:28:18Z</time>
      </trkpt>
      <trkpt lat="45.31114" lon="5.75049">
        <ele>1687.059</ele>
        <time>2013-02-08T13:28:23Z</time>
      </trkpt>
      <trkpt lat="45.31115" lon="5.75052">
        <ele>1688.06</ele>
        <time>2013-02-08T13:28:31Z</time>
      </trkpt>
      <trkpt lat="45.31119" lon="5.75056">
        <ele>1688.806</ele>
        <time>2013-02-08T13:28:36Z</time>
      </trkpt>
      <trkpt lat="45.31119" lon="5.75055">
        <ele>1689.799</ele>
        <time>2013-02-08T13:28:43Z</time>
      </trkpt>
      <trkpt lat="45.31124" lon="5.75049">
        <ele>1690.389</ele>
        <time>2013-02-08T13:28:50Z</time>
      </trkpt>
      <trkpt lat="45.31121" lon="5.75052">
        <ele>1691.607</ele>
        <time>2013-02-08T13:29:01Z</time>
      </trkpt>
      <trkpt lat="45.31119" lon="5.75056">
        <ele>1692.577</ele>
        <time>2013-02-08T13:29:06Z</time>
      </trkpt>
      <trkpt lat="45.31121" lon="5.75058">
        <ele>1693.422</ele>
        <time>2013-02-08T13:29:12Z</time>
      </trkpt>
      <trkpt lat="45.31122" lon="5.75059">
        <ele>1694.015</ele>
        <time>2013-02-08T13:29:17Z</time>
      </trkpt>
      <trkpt lat="45.31125" lon="5.75059">
        <ele>1694.812</ele>
        <time>2013-02-08T13:29:22Z</time>
      </trkpt>
      <trkpt lat="45.31129" lon="5.75059">
        <ele>1695.987</ele>
        <time>2013-02-08T13:29:29Z</time>
      </trkpt>
      <trkpt lat="45.31132" lon="5.75057">
        <ele>1696.66</ele>
        <time>2013-02-08T13:29:34Z</time>
      </trkpt>
      <trkpt lat="45.31135" lon="5.75057">
        <ele>1697.563</ele>
        <time>2013-02-08T13:29:39Z</time>
      </trkpt>
      <trkpt lat="45.31136" lon="5.75061">
        <ele>1698.52</ele>
        <time>2013-02-08T13:29:44Z</time>
      </trkpt>
      <trkpt lat="45.31136" lon="5.75063">
        <ele>1698.68</ele>
        <time>2013-02-08T13:29:45Z</time>
      </trkpt>
      <trkpt lat="45.31137" lon="5.75069">
        <ele>1699.673</ele>
        <time>2013-02-08T13:29:50Z</time>
      </trkpt>
      <trkpt lat="45.31139" lon="5.75073">
        <ele>1700.029</ele>
        <time>2013-02-08T13:29:54Z</time>
      </trkpt>
      <trkpt lat="45.31139" lon="5.75076">
        <ele>1700.284</ele>
        <time>2013-02-08T13:29:57Z</time>
      </trkpt>
      <trkpt lat="45.3114" lon="5.75079">
        <ele>1700.792</ele>
        <time>2013-02-08T13:30:01Z</time>
      </trkpt>
      <trkpt lat="45.3114" lon="5.75083">
        <ele>1701.265</ele>
        <time>2013-02-08T13:30:05Z</time>
      </trkpt>
      <trkpt lat="45.31141" lon="5.75086">
        <ele>1701.932</ele>
        <time>2013-02-08T13:30:09Z</time>
      </trkpt>
      <trkpt lat="45.31141" lon="5.75088">
        <ele>1702.618</ele>
        <time>2013-02-08T13:30:13Z</time>
      </trkpt>
      <trkpt lat="45.3114" lon="5.75091">
        <ele>1703.025</ele>
        <time>2013-02-08T13:30:17Z</time>
      </trkpt>
      <trkpt lat="45.31141" lon="5.75093">
        <ele>1703.513</ele>
        <time>2013-02-08T13:30:21Z</time>
      </trkpt>
      <trkpt lat="45.31139" lon="5.75095">
        <ele>1704.603</ele>
        <time>2013-02-08T13:30:25Z</time>
      </trkpt>
      <trkpt lat="45.3114" lon="5.75099">
        <ele>1705.247</ele>
        <time>2013-02-08T13:30:29Z</time>
      </trkpt>
      <trkpt lat="45.31137" lon="5.75103">
        <ele>1705.825</ele>
        <time>2013-02-08T13:30:34Z</time>
      </trkpt>
      <trkpt lat="45.31136" lon="5.75106">
        <ele>1706.312</ele>
        <time>2013-02-08T13:30:38Z</time>
      </trkpt>
      <trkpt lat="45.31134" lon="5.75109">
        <ele>1706.535</ele>
        <time>2013-02-08T13:30:42Z</time>
      </trkpt>
      <trkpt lat="45.31132" lon="5.7511">
        <ele>1707.209</ele>
        <time>2013-02-08T13:30:45Z</time>
      </trkpt>
      <trkpt lat="45.3113" lon="5.75112">
        <ele>1707.719</ele>
        <time>2013-02-08T13:30:49Z</time>
      </trkpt>
      <trkpt lat="45.31127" lon="5.75118">
        <ele>1708.374</ele>
        <time>2013-02-08T13:30:54Z</time>
      </trkpt>
      <trkpt lat="45.31126" lon="5.7512">
        <ele>1708.83</ele>
        <time>2013-02-08T13:30:58Z</time>
      </trkpt>
      <trkpt lat="45.31125" lon="5.75123">
        <ele>1709.344</ele>
        <time>2013-02-08T13:31:03Z</time>
      </trkpt>
      <trkpt lat="45.31124" lon="5.75126">
        <ele>1710.057</ele>
        <time>2013-02-08T13:31:07Z</time>
      </trkpt>
      <trkpt lat="45.3112" lon="5.7513">
        <ele>1710.675</ele>
        <time>2013-02-08T13:31:14Z</time>
      </trkpt>
      <trkpt lat="45.31117" lon="5.75133">
        <ele>1710.965</ele>
        <time>2013-02-08T13:31:18Z</time>
      </trkpt>
      <trkpt lat="45.31115" lon="5.75137">
        <ele>1711.494</ele>
        <time>2013-02-08T13:31:23Z</time>
      </trkpt>
      <trkpt lat="45.31115" lon="5.75139">
        <ele>1712.373</ele>
        <time>2013-02-08T13:31:27Z</time>
      </trkpt>
      <trkpt lat="45.31112" lon="5.75143">
        <ele>1713.049</ele>
        <time>2013-02-08T13:31:33Z</time>
      </trkpt>
      <trkpt lat="45.3111" lon="5.75147">
        <ele>1713.359</ele>
        <time>2013-02-08T13:31:37Z</time>
      </trkpt>
      <trkpt lat="45.31107" lon="5.75151">
        <ele>1713.335</ele>
        <time>2013-02-08T13:31:47Z</time>
      </trkpt>
      <trkpt lat="45.31112" lon="5.75144">
        <ele>1713.866</ele>
        <time>2013-02-08T13:33:33Z</time>
      </trkpt>
      <trkpt lat="45.3111" lon="5.75153">
        <ele>1714.772</ele>
        <time>2013-02-08T13:34:14Z</time>
      </trkpt>
      <trkpt lat="45.31109" lon="5.75158">
        <ele>1714.806</ele>
        <time>2013-02-08T13:34:18Z</time>
      </trkpt>
      <trkpt lat="45.31109" lon="5.75164">
        <ele>1714.179</ele>
        <time>2013-02-08T13:34:23Z</time>
      </trkpt>
      <trkpt lat="45.31104" lon="5.75171">
        <ele>1713.97</ele>
        <time>2013-02-08T13:34:38Z</time>
      </trkpt>
      <trkpt lat="45.31102" lon="5.75177">
        <ele>1713.223</ele>
        <time>2013-02-08T13:34:43Z</time>
      </trkpt>
      <trkpt lat="45.311" lon="5.7518">
        <ele>1713.487</ele>
        <time>2013-02-08T13:34:48Z</time>
      </trkpt>
      <trkpt lat="45.31099" lon="5.75183">
        <ele>1714.065</ele>
        <time>2013-02-08T13:34:52Z</time>
      </trkpt>
      <trkpt lat="45.31097" lon="5.75186">
        <ele>1714.388</ele>
        <time>2013-02-08T13:34:56Z</time>
      </trkpt>
      <trkpt lat="45.31094" lon="5.7519">
        <ele>1715.221</ele>
        <time>2013-02-08T13:35:02Z</time>
      </trkpt>
      <trkpt lat="45.31091" lon="5.75194">
        <ele>1715.635</ele>
        <time>2013-02-08T13:35:07Z</time>
      </trkpt>
      <trkpt lat="45.31087" lon="5.75197">
        <ele>1716.732</ele>
        <time>2013-02-08T13:35:13Z</time>
      </trkpt>
      <trkpt lat="45.31083" lon="5.75201">
        <ele>1717.092</ele>
        <time>2013-02-08T13:35:19Z</time>
      </trkpt>
      <trkpt lat="45.3108" lon="5.75203">
        <ele>1717.841</ele>
        <time>2013-02-08T13:35:23Z</time>
      </trkpt>
      <trkpt lat="45.31075" lon="5.75205">
        <ele>1719.507</ele>
        <time>2013-02-08T13:35:31Z</time>
      </trkpt>
      <trkpt lat="45.31074" lon="5.75207">
        <ele>1720.326</ele>
        <time>2013-02-08T13:35:35Z</time>
      </trkpt>
      <trkpt lat="45.31071" lon="5.75208">
        <ele>1720.754</ele>
        <time>2013-02-08T13:35:39Z</time>
      </trkpt>
      <trkpt lat="45.31069" lon="5.7521">
        <ele>1721.223</ele>
        <time>2013-02-08T13:35:43Z</time>
      </trkpt>
      <trkpt lat="45.31068" lon="5.75212">
        <ele>1722.22</ele>
        <time>2013-02-08T13:35:47Z</time>
      </trkpt>
      <trkpt lat="45.31066" lon="5.75213">
        <ele>1722.62</ele>
        <time>2013-02-08T13:35:51Z</time>
      </trkpt>
      <trkpt lat="45.31068" lon="5.75215">
        <ele>1723.544</ele>
        <time>2013-02-08T13:35:57Z</time>
      </trkpt>
      <trkpt lat="45.3107" lon="5.75218">
        <ele>1724.222</ele>
        <time>2013-02-08T13:36:02Z</time>
      </trkpt>
      <trkpt lat="45.31071" lon="5.75221">
        <ele>1724.947</ele>
        <time>2013-02-08T13:36:06Z</time>
      </trkpt>
      <trkpt lat="45.31072" lon="5.75224">
        <ele>1726.078</ele>
        <time>2013-02-08T13:36:10Z</time>
      </trkpt>
      <trkpt lat="45.31073" lon="5.75231">
        <ele>1727.134</ele>
        <time>2013-02-08T13:36:18Z</time>
      </trkpt>
      <trkpt lat="45.31074" lon="5.75234">
        <ele>1727.882</ele>
        <time>2013-02-08T13:36:22Z</time>
      </trkpt>
      <trkpt lat="45.31074" lon="5.75238">
        <ele>1728.745</ele>
        <time>2013-02-08T13:36:26Z</time>
      </trkpt>
      <trkpt lat="45.31075" lon="5.7524">
        <ele>1729.187</ele>
        <time>2013-02-08T13:36:30Z</time>
      </trkpt>
      <trkpt lat="45.31075" lon="5.75242">
        <ele>1729.732</ele>
        <time>2013-02-08T13:36:34Z</time>
      </trkpt>
      <trkpt lat="45.31076" lon="5.75245">
        <ele>1730.729</ele>
        <time>2013-02-08T13:36:38Z</time>
      </trkpt>
      <trkpt lat="45.31076" lon="5.75247">
        <ele>1731.6</ele>
        <time>2013-02-08T13:36:42Z</time>
      </trkpt>
      <trkpt lat="45.31077" lon="5.75249">
        <ele>1731.844</ele>
        <time>2013-02-08T13:36:46Z</time>
      </trkpt>
      <trkpt lat="45.31077" lon="5.75251">
        <ele>1733.121</ele>
        <time>2013-02-08T13:36:50Z</time>
      </trkpt>
      <trkpt lat="45.31077" lon="5.75254">
        <ele>1733.348</ele>
        <time>2013-02-08T13:36:54Z</time>
      </trkpt>
      <trkpt lat="45.31078" lon="5.75256">
        <ele>1734.281</ele>
        <time>2013-02-08T13:36:58Z</time>
      </trkpt>
      <trkpt lat="45.31078" lon="5.75259">
        <ele>1734.772</ele>
        <time>2013-02-08T13:37:03Z</time>
      </trkpt>
      <trkpt lat="45.31078" lon="5.75262">
        <ele>1735.868</ele>
        <time>2013-02-08T13:37:07Z</time>
      </trkpt>
      <trkpt lat="45.31077" lon="5.75264">
        <ele>1736.219</ele>
        <time>2013-02-08T13:37:11Z</time>
      </trkpt>
      <trkpt lat="45.31076" lon="5.75267">
        <ele>1737.231</ele>
        <time>2013-02-08T13:37:16Z</time>
      </trkpt>
      <trkpt lat="45.31071" lon="5.75268">
        <ele>1738.545</ele>
        <time>2013-02-08T13:37:22Z</time>
      </trkpt>
      <trkpt lat="45.31068" lon="5.75267">
        <ele>1739.171</ele>
        <time>2013-02-08T13:37:27Z</time>
      </trkpt>
      <trkpt lat="45.31066" lon="5.75266">
        <ele>1739.958</ele>
        <time>2013-02-08T13:37:31Z</time>
      </trkpt>
      <trkpt lat="45.31062" lon="5.75264">
        <ele>1741.301</ele>
        <time>2013-02-08T13:37:38Z</time>
      </trkpt>
      <trkpt lat="45.3106" lon="5.75263">
        <ele>1742.125</ele>
        <time>2013-02-08T13:37:42Z</time>
      </trkpt>
      <trkpt lat="45.31058" lon="5.75262">
        <ele>1742.892</ele>
        <time>2013-02-08T13:37:46Z</time>
      </trkpt>
      <trkpt lat="45.31055" lon="5.75262">
        <ele>1743.41</ele>
        <time>2013-02-08T13:37:50Z</time>
      </trkpt>
      <trkpt lat="45.31053" lon="5.75262">
        <ele>1744.012</ele>
        <time>2013-02-08T13:37:54Z</time>
      </trkpt>
      <trkpt lat="45.31049" lon="5.75262">
        <ele>1745.213</ele>
        <time>2013-02-08T13:38:00Z</time>
      </trkpt>
      <trkpt lat="45.31044" lon="5.75263">
        <ele>1745.752</ele>
        <time>2013-02-08T13:38:04Z</time>
      </trkpt>
      <trkpt lat="45.31041" lon="5.75265">
        <ele>1746.489</ele>
        <time>2013-02-08T13:38:10Z</time>
      </trkpt>
      <trkpt lat="45.31039" lon="5.75266">
        <ele>1746.89</ele>
        <time>2013-02-08T13:38:14Z</time>
      </trkpt>
      <trkpt lat="45.31035" lon="5.75266">
        <ele>1747.528</ele>
        <time>2013-02-08T13:38:18Z</time>
      </trkpt>
      <trkpt lat="45.31032" lon="5.75267">
        <ele>1748.074</ele>
        <time>2013-02-08T13:38:22Z</time>
      </trkpt>
      <trkpt lat="45.3103" lon="5.75267">
        <ele>1748.808</ele>
        <time>2013-02-08T13:38:27Z</time>
      </trkpt>
      <trkpt lat="45.31026" lon="5.75266">
        <ele>1749.74</ele>
        <time>2013-02-08T13:38:35Z</time>
      </trkpt>
      <trkpt lat="45.31024" lon="5.75268">
        <ele>1751.003</ele>
        <time>2013-02-08T13:38:39Z</time>
      </trkpt>
      <trkpt lat="45.31022" lon="5.75267">
        <ele>1751.374</ele>
        <time>2013-02-08T13:38:43Z</time>
      </trkpt>
      <trkpt lat="45.31019" lon="5.75266">
        <ele>1752.365</ele>
        <time>2013-02-08T13:38:48Z</time>
      </trkpt>
      <trkpt lat="45.31017" lon="5.75266">
        <ele>1753.029</ele>
        <time>2013-02-08T13:38:53Z</time>
      </trkpt>
      <trkpt lat="45.31012" lon="5.75268">
        <ele>1754.128</ele>
        <time>2013-02-08T13:39:00Z</time>
      </trkpt>
      <trkpt lat="45.3101" lon="5.75269">
        <ele>1754.826</ele>
        <time>2013-02-08T13:39:04Z</time>
      </trkpt>
      <trkpt lat="45.31011" lon="5.75271">
        <ele>1755.687</ele>
        <time>2013-02-08T13:39:09Z</time>
      </trkpt>
      <trkpt lat="45.31005" lon="5.75275">
        <ele>1755.911</ele>
        <time>2013-02-08T13:39:20Z</time>
      </trkpt>
      <trkpt lat="45.31004" lon="5.75274">
        <ele>1757.595</ele>
        <time>2013-02-08T13:39:25Z</time>
      </trkpt>
      <trkpt lat="45.31003" lon="5.75273">
        <ele>1757.544</ele>
        <time>2013-02-08T13:39:26Z</time>
      </trkpt>
      <trkpt lat="45.31003" lon="5.75274">
        <ele>1758.557</ele>
        <time>2013-02-08T13:39:31Z</time>
      </trkpt>
      <trkpt lat="45.31001" lon="5.75275">
        <ele>1759.059</ele>
        <time>2013-02-08T13:39:36Z</time>
      </trkpt>
      <trkpt lat="45.31001" lon="5.75275">
        <ele>1759.13</ele>
        <time>2013-02-08T13:39:37Z</time>
      </trkpt>
      <trkpt lat="45.30999" lon="5.75276">
        <ele>1759.96</ele>
        <time>2013-02-08T13:39:42Z</time>
      </trkpt>
      <trkpt lat="45.31003" lon="5.75276">
        <ele>1761.388</ele>
        <time>2013-02-08T13:39:51Z</time>
      </trkpt>
      <trkpt lat="45.31005" lon="5.75275">
        <ele>1762.853</ele>
        <time>2013-02-08T13:39:57Z</time>
      </trkpt>
      <trkpt lat="45.31006" lon="5.75277">
        <ele>1763.33</ele>
        <time>2013-02-08T13:40:02Z</time>
      </trkpt>
      <trkpt lat="45.31007" lon="5.75278">
        <ele>1763.696</ele>
        <time>2013-02-08T13:40:03Z</time>
      </trkpt>
      <trkpt lat="45.31009" lon="5.75285">
        <ele>1764.55</ele>
        <time>2013-02-08T13:40:09Z</time>
      </trkpt>
      <trkpt lat="45.31011" lon="5.75286">
        <ele>1764.708</ele>
        <time>2013-02-08T13:40:13Z</time>
      </trkpt>
      <trkpt lat="45.31014" lon="5.75289">
        <ele>1765.884</ele>
        <time>2013-02-08T13:40:17Z</time>
      </trkpt>
      <trkpt lat="45.31016" lon="5.7529">
        <ele>1766.302</ele>
        <time>2013-02-08T13:40:21Z</time>
      </trkpt>
      <trkpt lat="45.31018" lon="5.7529">
        <ele>1766.983</ele>
        <time>2013-02-08T13:40:25Z</time>
      </trkpt>
      <trkpt lat="45.31019" lon="5.75292">
        <ele>1767.781</ele>
        <time>2013-02-08T13:40:29Z</time>
      </trkpt>
      <trkpt lat="45.3102" lon="5.75295">
        <ele>1768.306</ele>
        <time>2013-02-08T13:40:33Z</time>
      </trkpt>
      <trkpt lat="45.31022" lon="5.75298">
        <ele>1768.81</ele>
        <time>2013-02-08T13:40:37Z</time>
      </trkpt>
      <trkpt lat="45.31022" lon="5.753">
        <ele>1769.347</ele>
        <time>2013-02-08T13:40:45Z</time>
      </trkpt>
      <trkpt lat="45.31023" lon="5.75302">
        <ele>1770.739</ele>
        <time>2013-02-08T13:40:54Z</time>
      </trkpt>
      <trkpt lat="45.31023" lon="5.75303">
        <ele>1771.125</ele>
        <time>2013-02-08T13:41:00Z</time>
      </trkpt>
      <trkpt lat="45.31022" lon="5.75304">
        <ele>1771.673</ele>
        <time>2013-02-08T13:41:03Z</time>
      </trkpt>
      <trkpt lat="45.31019" lon="5.75305">
        <ele>1772.496</ele>
        <time>2013-02-08T13:41:08Z</time>
      </trkpt>
      <trkpt lat="45.31017" lon="5.75307">
        <ele>1773.659</ele>
        <time>2013-02-08T13:41:12Z</time>
      </trkpt>
      <trkpt lat="45.31014" lon="5.75308">
        <ele>1774.196</ele>
        <time>2013-02-08T13:41:18Z</time>
      </trkpt>
      <trkpt lat="45.31011" lon="5.75309">
        <ele>1774.649</ele>
        <time>2013-02-08T13:41:22Z</time>
      </trkpt>
      <trkpt lat="45.31008" lon="5.75309">
        <ele>1775.413</ele>
        <time>2013-02-08T13:41:26Z</time>
      </trkpt>
      <trkpt lat="45.31004" lon="5.75309">
        <ele>1776.209</ele>
        <time>2013-02-08T13:41:32Z</time>
      </trkpt>
      <trkpt lat="45.31003" lon="5.75311">
        <ele>1776.816</ele>
        <time>2013-02-08T13:41:36Z</time>
      </trkpt>
      <trkpt lat="45.30998" lon="5.75311">
        <ele>1777.482</ele>
        <time>2013-02-08T13:41:42Z</time>
      </trkpt>
      <trkpt lat="45.30995" lon="5.75311">
        <ele>1777.811</ele>
        <time>2013-02-08T13:41:46Z</time>
      </trkpt>
      <trkpt lat="45.30991" lon="5.75311">
        <ele>1778.825</ele>
        <time>2013-02-08T13:41:52Z</time>
      </trkpt>
      <trkpt lat="45.30988" lon="5.75311">
        <ele>1779.422</ele>
        <time>2013-02-08T13:41:56Z</time>
      </trkpt>
      <trkpt lat="45.30985" lon="5.75312">
        <ele>1780.009</ele>
        <time>2013-02-08T13:42:00Z</time>
      </trkpt>
      <trkpt lat="45.30981" lon="5.75311">
        <ele>1781.447</ele>
        <time>2013-02-08T13:42:07Z</time>
      </trkpt>
      <trkpt lat="45.30978" lon="5.75312">
        <ele>1782.206</ele>
        <time>2013-02-08T13:42:11Z</time>
      </trkpt>
      <trkpt lat="45.30976" lon="5.75312">
        <ele>1783.034</ele>
        <time>2013-02-08T13:42:15Z</time>
      </trkpt>
      <trkpt lat="45.30973" lon="5.75311">
        <ele>1783.668</ele>
        <time>2013-02-08T13:42:21Z</time>
      </trkpt>
      <trkpt lat="45.3097" lon="5.75311">
        <ele>1784.349</ele>
        <time>2013-02-08T13:42:25Z</time>
      </trkpt>
      <trkpt lat="45.30966" lon="5.7531">
        <ele>1785.353</ele>
        <time>2013-02-08T13:42:30Z</time>
      </trkpt>
      <trkpt lat="45.30963" lon="5.7531">
        <ele>1786.174</ele>
        <time>2013-02-08T13:42:35Z</time>
      </trkpt>
      <trkpt lat="45.30961" lon="5.7531">
        <ele>1786.895</ele>
        <time>2013-02-08T13:42:39Z</time>
      </trkpt>
      <trkpt lat="45.30959" lon="5.7531">
        <ele>1787.377</ele>
        <time>2013-02-08T13:42:43Z</time>
      </trkpt>
      <trkpt lat="45.30956" lon="5.7531">
        <ele>1788.313</ele>
        <time>2013-02-08T13:42:49Z</time>
      </trkpt>
      <trkpt lat="45.30955" lon="5.7531">
        <ele>1788.761</ele>
        <time>2013-02-08T13:42:53Z</time>
      </trkpt>
      <trkpt lat="45.30953" lon="5.75309">
        <ele>1789.103</ele>
        <time>2013-02-08T13:42:58Z</time>
      </trkpt>
      <trkpt lat="45.3095" lon="5.75308">
        <ele>1789.956</ele>
        <time>2013-02-08T13:43:02Z</time>
      </trkpt>
      <trkpt lat="45.30947" lon="5.75307">
        <ele>1789.75</ele>
        <time>2013-02-08T13:43:07Z</time>
      </trkpt>
      <trkpt lat="45.30942" lon="5.75303">
        <ele>1790.028</ele>
        <time>2013-02-08T13:43:13Z</time>
      </trkpt>
      <trkpt lat="45.3094" lon="5.75302">
        <ele>1790.57</ele>
        <time>2013-02-08T13:43:17Z</time>
      </trkpt>
      <trkpt lat="45.30935" lon="5.75299">
        <ele>1790.756</ele>
        <time>2013-02-08T13:43:22Z</time>
      </trkpt>
      <trkpt lat="45.30933" lon="5.75295">
        <ele>1791.401</ele>
        <time>2013-02-08T13:43:27Z</time>
      </trkpt>
      <trkpt lat="45.3093" lon="5.75291">
        <ele>1791.546</ele>
        <time>2013-02-08T13:43:32Z</time>
      </trkpt>
      <trkpt lat="45.3093" lon="5.7529">
        <ele>1791.971</ele>
        <time>2013-02-08T13:43:33Z</time>
      </trkpt>
      <trkpt lat="45.30925" lon="5.75286">
        <ele>1792.419</ele>
        <time>2013-02-08T13:43:39Z</time>
      </trkpt>
      <trkpt lat="45.30923" lon="5.75283">
        <ele>1793.431</ele>
        <time>2013-02-08T13:43:43Z</time>
      </trkpt>
      <trkpt lat="45.30921" lon="5.75281">
        <ele>1794.185</ele>
        <time>2013-02-08T13:43:47Z</time>
      </trkpt>
      <trkpt lat="45.30917" lon="5.75276">
        <ele>1794.935</ele>
        <time>2013-02-08T13:43:52Z</time>
      </trkpt>
      <trkpt lat="45.30915" lon="5.75272">
        <ele>1795.49</ele>
        <time>2013-02-08T13:43:57Z</time>
      </trkpt>
      <trkpt lat="45.30912" lon="5.75268">
        <ele>1796.224</ele>
        <time>2013-02-08T13:44:02Z</time>
      </trkpt>
      <trkpt lat="45.3091" lon="5.75266">
        <ele>1796.401</ele>
        <time>2013-02-08T13:44:09Z</time>
      </trkpt>
      <trkpt lat="45.30908" lon="5.75262">
        <ele>1797.117</ele>
        <time>2013-02-08T13:44:13Z</time>
      </trkpt>
      <trkpt lat="45.30905" lon="5.75257">
        <ele>1796.526</ele>
        <time>2013-02-08T13:44:19Z</time>
      </trkpt>
      <trkpt lat="45.30902" lon="5.75252">
        <ele>1796.937</ele>
        <time>2013-02-08T13:44:24Z</time>
      </trkpt>
      <trkpt lat="45.309" lon="5.75246">
        <ele>1797.023</ele>
        <time>2013-02-08T13:44:29Z</time>
      </trkpt>
      <trkpt lat="45.30899" lon="5.75239">
        <ele>1797.505</ele>
        <time>2013-02-08T13:44:34Z</time>
      </trkpt>
      <trkpt lat="45.30898" lon="5.75233">
        <ele>1798.318</ele>
        <time>2013-02-08T13:44:39Z</time>
      </trkpt>
      <trkpt lat="45.30896" lon="5.75228">
        <ele>1798.535</ele>
        <time>2013-02-08T13:44:44Z</time>
      </trkpt>
      <trkpt lat="45.30894" lon="5.75224">
        <ele>1799.057</ele>
        <time>2013-02-08T13:44:49Z</time>
      </trkpt>
      <trkpt lat="45.30894" lon="5.75223">
        <ele>1798.928</ele>
        <time>2013-02-08T13:44:50Z</time>
      </trkpt>
      <trkpt lat="45.30891" lon="5.75217">
        <ele>1798.94</ele>
        <time>2013-02-08T13:44:56Z</time>
      </trkpt>
      <trkpt lat="45.30889" lon="5.75212">
        <ele>1798.55</ele>
        <time>2013-02-08T13:45:02Z</time>
      </trkpt>
      <trkpt lat="45.30889" lon="5.75211">
        <ele>1798.519</ele>
        <time>2013-02-08T13:45:08Z</time>
      </trkpt>
      <trkpt lat="45.30892" lon="5.75208">
        <ele>1798.36</ele>
        <time>2013-02-08T13:46:20Z</time>
      </trkpt>
      <trkpt lat="45.3089" lon="5.75207">
        <ele>1802.062</ele>
        <time>2013-02-08T13:53:02Z</time>
      </trkpt>
      <trkpt lat="45.30889" lon="5.75205">
        <ele>1796.058</ele>
        <time>2013-02-08T13:53:20Z</time>
      </trkpt>
      <trkpt lat="45.30897" lon="5.75206">
        <ele>1799.527</ele>
        <time>2013-02-08T13:55:01Z</time>
      </trkpt>
      <trkpt lat="45.30894" lon="5.75197">
        <ele>1798.814</ele>
        <time>2013-02-08T13:55:09Z</time>
      </trkpt>
      <trkpt lat="45.30888" lon="5.75185">
        <ele>1797.456</ele>
        <time>2013-02-08T13:55:15Z</time>
      </trkpt>
      <trkpt lat="45.30885" lon="5.75172">
        <ele>1796.578</ele>
        <time>2013-02-08T13:55:21Z</time>
      </trkpt>
      <trkpt lat="45.30881" lon="5.75162">
        <ele>1796.967</ele>
        <time>2013-02-08T13:55:29Z</time>
      </trkpt>
      <trkpt lat="45.30875" lon="5.75154">
        <ele>1798.334</ele>
        <time>2013-02-08T13:55:36Z</time>
      </trkpt>
      <trkpt lat="45.3087" lon="5.75145">
        <ele>1799.132</ele>
        <time>2013-02-08T13:55:44Z</time>
      </trkpt>
      <trkpt lat="45.30866" lon="5.75137">
        <ele>1800.26</ele>
        <time>2013-02-08T13:55:53Z</time>
      </trkpt>
      <trkpt lat="45.30867" lon="5.75129">
        <ele>1801.959</ele>
        <time>2013-02-08T13:56:02Z</time>
      </trkpt>
      <trkpt lat="45.30863" lon="5.75126">
        <ele>1803.394</ele>
        <time>2013-02-08T13:56:09Z</time>
      </trkpt>
      <trkpt lat="45.30861" lon="5.75124">
        <ele>1803.871</ele>
        <time>2013-02-08T13:56:15Z</time>
      </trkpt>
      <trkpt lat="45.3086" lon="5.75126">
        <ele>1804.855</ele>
        <time>2013-02-08T13:56:26Z</time>
      </trkpt>
      <trkpt lat="45.30854" lon="5.75122">
        <ele>1804.906</ele>
        <time>2013-02-08T13:56:41Z</time>
      </trkpt>
      <trkpt lat="45.30853" lon="5.75116">
        <ele>1805.672</ele>
        <time>2013-02-08T13:56:48Z</time>
      </trkpt>
      <trkpt lat="45.30853" lon="5.75114">
        <ele>1805.552</ele>
        <time>2013-02-08T13:56:52Z</time>
      </trkpt>
      <trkpt lat="45.30854" lon="5.75106">
        <ele>1806.186</ele>
        <time>2013-02-08T13:56:58Z</time>
      </trkpt>
      <trkpt lat="45.30853" lon="5.75104">
        <ele>1807.077</ele>
        <time>2013-02-08T13:57:03Z</time>
      </trkpt>
      <trkpt lat="45.3085" lon="5.75101">
        <ele>1808.178</ele>
        <time>2013-02-08T13:57:10Z</time>
      </trkpt>
      <trkpt lat="45.30846" lon="5.75094">
        <ele>1809.833</ele>
        <time>2013-02-08T13:57:19Z</time>
      </trkpt>
      <trkpt lat="45.3084" lon="5.75088">
        <ele>1811.806</ele>
        <time>2013-02-08T13:57:29Z</time>
      </trkpt>
      <trkpt lat="45.30838" lon="5.75084">
        <ele>1813.087</ele>
        <time>2013-02-08T13:57:37Z</time>
      </trkpt>
      <trkpt lat="45.30838" lon="5.75083">
        <ele>1813.924</ele>
        <time>2013-02-08T13:57:42Z</time>
      </trkpt>
      <trkpt lat="45.3084" lon="5.75082">
        <ele>1814.881</ele>
        <time>2013-02-08T13:57:50Z</time>
      </trkpt>
      <trkpt lat="45.30844" lon="5.75076">
        <ele>1816.22</ele>
        <time>2013-02-08T13:58:00Z</time>
      </trkpt>
      <trkpt lat="45.30844" lon="5.75072">
        <ele>1817.585</ele>
        <time>2013-02-08T13:58:06Z</time>
      </trkpt>
      <trkpt lat="45.30845" lon="5.75068">
        <ele>1818.784</ele>
        <time>2013-02-08T13:58:13Z</time>
      </trkpt>
      <trkpt lat="45.30841" lon="5.75064">
        <ele>1819.843</ele>
        <time>2013-02-08T13:58:19Z</time>
      </trkpt>
      <trkpt lat="45.30839" lon="5.75059">
        <ele>1821.366</ele>
        <time>2013-02-08T13:58:25Z</time>
      </trkpt>
      <trkpt lat="45.30835" lon="5.75055">
        <ele>1821.938</ele>
        <time>2013-02-08T13:58:31Z</time>
      </trkpt>
      <trkpt lat="45.30829" lon="5.75049">
        <ele>1823.09</ele>
        <time>2013-02-08T13:58:39Z</time>
      </trkpt>
      <trkpt lat="45.30825" lon="5.75047">
        <ele>1824.026</ele>
        <time>2013-02-08T13:58:46Z</time>
      </trkpt>
      <trkpt lat="45.30825" lon="5.75044">
        <ele>1825.851</ele>
        <time>2013-02-08T13:58:55Z</time>
      </trkpt>
      <trkpt lat="45.30826" lon="5.75039">
        <ele>1827.261</ele>
        <time>2013-02-08T13:59:03Z</time>
      </trkpt>
      <trkpt lat="45.30824" lon="5.75035">
        <ele>1828.925</ele>
        <time>2013-02-08T13:59:11Z</time>
      </trkpt>
      <trkpt lat="45.3082" lon="5.75032">
        <ele>1830.46</ele>
        <time>2013-02-08T13:59:17Z</time>
      </trkpt>
      <trkpt lat="45.30815" lon="5.7503">
        <ele>1831.79</ele>
        <time>2013-02-08T13:59:24Z</time>
      </trkpt>
      <trkpt lat="45.30814" lon="5.75028">
        <ele>1832.582</ele>
        <time>2013-02-08T13:59:29Z</time>
      </trkpt>
      <trkpt lat="45.30813" lon="5.75023">
        <ele>1833.851</ele>
        <time>2013-02-08T13:59:37Z</time>
      </trkpt>
      <trkpt lat="45.3081" lon="5.7502">
        <ele>1835.011</ele>
        <time>2013-02-08T13:59:43Z</time>
      </trkpt>
      <trkpt lat="45.3081" lon="5.75018">
        <ele>1836.002</ele>
        <time>2013-02-08T13:59:49Z</time>
      </trkpt>
      <trkpt lat="45.30808" lon="5.75021">
        <ele>1837.085</ele>
        <time>2013-02-08T13:59:55Z</time>
      </trkpt>
      <trkpt lat="45.3081" lon="5.75021">
        <ele>1837.989</ele>
        <time>2013-02-08T14:00:01Z</time>
      </trkpt>
      <trkpt lat="45.30812" lon="5.75013">
        <ele>1839.531</ele>
        <time>2013-02-08T14:00:08Z</time>
      </trkpt>
      <trkpt lat="45.30811" lon="5.75008">
        <ele>1840.618</ele>
        <time>2013-02-08T14:00:13Z</time>
      </trkpt>
      <trkpt lat="45.3081" lon="5.75003">
        <ele>1841.476</ele>
        <time>2013-02-08T14:00:18Z</time>
      </trkpt>
      <trkpt lat="45.30807" lon="5.74996">
        <ele>1843.623</ele>
        <time>2013-02-08T14:00:29Z</time>
      </trkpt>
      <trkpt lat="45.30808" lon="5.74988">
        <ele>1844.934</ele>
        <time>2013-02-08T14:00:37Z</time>
      </trkpt>
      <trkpt lat="45.30803" lon="5.74979">
        <ele>1846.026</ele>
        <time>2013-02-08T14:00:47Z</time>
      </trkpt>
      <trkpt lat="45.308" lon="5.74972">
        <ele>1846.721</ele>
        <time>2013-02-08T14:00:55Z</time>
      </trkpt>
      <trkpt lat="45.30795" lon="5.74966">
        <ele>1847.915</ele>
        <time>2013-02-08T14:01:02Z</time>
      </trkpt>
      <trkpt lat="45.30792" lon="5.74961">
        <ele>1848.351</ele>
        <time>2013-02-08T14:01:09Z</time>
      </trkpt>
      <trkpt lat="45.30792" lon="5.74955">
        <ele>1850.021</ele>
        <time>2013-02-08T14:01:17Z</time>
      </trkpt>
      <trkpt lat="45.30792" lon="5.7495">
        <ele>1850.72</ele>
        <time>2013-02-08T14:01:22Z</time>
      </trkpt>
      <trkpt lat="45.30791" lon="5.74942">
        <ele>1851.818</ele>
        <time>2013-02-08T14:01:28Z</time>
      </trkpt>
      <trkpt lat="45.30787" lon="5.74934">
        <ele>1852.455</ele>
        <time>2013-02-08T14:01:35Z</time>
      </trkpt>
      <trkpt lat="45.30783" lon="5.74928">
        <ele>1853.737</ele>
        <time>2013-02-08T14:01:43Z</time>
      </trkpt>
      <trkpt lat="45.30782" lon="5.74925">
        <ele>1854.967</ele>
        <time>2013-02-08T14:01:48Z</time>
      </trkpt>
      <trkpt lat="45.30782" lon="5.74919">
        <ele>1855.502</ele>
        <time>2013-02-08T14:01:55Z</time>
      </trkpt>
      <trkpt lat="45.30784" lon="5.74914">
        <ele>1856.705</ele>
        <time>2013-02-08T14:02:01Z</time>
      </trkpt>
      <trkpt lat="45.30782" lon="5.74908">
        <ele>1857.302</ele>
        <time>2013-02-08T14:02:07Z</time>
      </trkpt>
      <trkpt lat="45.30778" lon="5.749">
        <ele>1858.349</ele>
        <time>2013-02-08T14:02:17Z</time>
      </trkpt>
      <trkpt lat="45.30772" lon="5.74891">
        <ele>1858.881</ele>
        <time>2013-02-08T14:02:34Z</time>
      </trkpt>
      <trkpt lat="45.30772" lon="5.74886">
        <ele>1859.062</ele>
        <time>2013-02-08T14:02:39Z</time>
      </trkpt>
      <trkpt lat="45.3077" lon="5.74884">
        <ele>1858.921</ele>
        <time>2013-02-08T14:02:41Z</time>
      </trkpt>
      <trkpt lat="45.30766" lon="5.74874">
        <ele>1857.486</ele>
        <time>2013-02-08T14:02:48Z</time>
      </trkpt>
      <trkpt lat="45.30759" lon="5.74863">
        <ele>1857.146</ele>
        <time>2013-02-08T14:02:57Z</time>
      </trkpt>
      <trkpt lat="45.30757" lon="5.74859">
        <ele>1857.284</ele>
        <time>2013-02-08T14:03:01Z</time>
      </trkpt>
      <trkpt lat="45.30748" lon="5.7485">
        <ele>1856.897</ele>
        <time>2013-02-08T14:03:08Z</time>
      </trkpt>
      <trkpt lat="45.30741" lon="5.74846">
        <ele>1856.174</ele>
        <time>2013-02-08T14:03:13Z</time>
      </trkpt>
      <trkpt lat="45.30738" lon="5.7484">
        <ele>1857.104</ele>
        <time>2013-02-08T14:03:21Z</time>
      </trkpt>
      <trkpt lat="45.30736" lon="5.74834">
        <ele>1857.606</ele>
        <time>2013-02-08T14:03:27Z</time>
      </trkpt>
      <trkpt lat="45.30733" lon="5.74824">
        <ele>1857.607</ele>
        <time>2013-02-08T14:03:35Z</time>
      </trkpt>
      <trkpt lat="45.30731" lon="5.74818">
        <ele>1858.391</ele>
        <time>2013-02-08T14:03:43Z</time>
      </trkpt>
      <trkpt lat="45.30722" lon="5.74815">
        <ele>1859.079</ele>
        <time>2013-02-08T14:04:06Z</time>
      </trkpt>
      <trkpt lat="45.30716" lon="5.74818">
        <ele>1859.118</ele>
        <time>2013-02-08T14:10:36Z</time>
      </trkpt>
      <trkpt lat="45.30716" lon="5.74817">
        <ele>1859.37</ele>
        <time>2013-02-08T14:10:47Z</time>
      </trkpt>
      <trkpt lat="45.30716" lon="5.74812">
        <ele>1860.738</ele>
        <time>2013-02-08T14:11:11Z</time>
      </trkpt>
      <trkpt lat="45.30719" lon="5.74814">
        <ele>1859.329</ele>
        <time>2013-02-08T14:12:41Z</time>
      </trkpt>
      <trkpt lat="45.30714" lon="5.74815">
        <ele>1859.401</ele>
        <time>2013-02-08T14:13:19Z</time>
      </trkpt>
      <trkpt lat="45.30704" lon="5.74816">
        <ele>1858.415</ele>
        <time>2013-02-08T14:13:22Z</time>
      </trkpt>
      <trkpt lat="45.3069" lon="5.74829">
        <ele>1852.89</ele>
        <time>2013-02-08T14:13:26Z</time>
      </trkpt>
      <trkpt lat="45.30676" lon="5.74833">
        <ele>1848.462</ele>
        <time>2013-02-08T14:13:30Z</time>
      </trkpt>
      <trkpt lat="45.30672" lon="5.74841">
        <ele>1844.349</ele>
        <time>2013-02-08T14:13:32Z</time>
      </trkpt>
      <trkpt lat="45.30657" lon="5.74845">
        <ele>1836.316</ele>
        <time>2013-02-08T14:13:37Z</time>
      </trkpt>
      <trkpt lat="45.30655" lon="5.74846">
        <ele>1834.082</ele>
        <time>2013-02-08T14:13:38Z</time>
      </trkpt>
      <trkpt lat="45.30642" lon="5.74841">
        <ele>1824.318</ele>
        <time>2013-02-08T14:13:43Z</time>
      </trkpt>
      <trkpt lat="45.30632" lon="5.74839">
        <ele>1818.249</ele>
        <time>2013-02-08T14:13:48Z</time>
      </trkpt>
      <trkpt lat="45.30616" lon="5.74841">
        <ele>1810.973</ele>
        <time>2013-02-08T14:13:54Z</time>
      </trkpt>
      <trkpt lat="45.30613" lon="5.74843">
        <ele>1809.543</ele>
        <time>2013-02-08T14:13:56Z</time>
      </trkpt>
      <trkpt lat="45.30606" lon="5.74851">
        <ele>1805.467</ele>
        <time>2013-02-08T14:14:00Z</time>
      </trkpt>
      <trkpt lat="45.30603" lon="5.74856">
        <ele>1804.576</ele>
        <time>2013-02-08T14:14:06Z</time>
      </trkpt>
      <trkpt lat="45.30608" lon="5.74849">
        <ele>1803.336</ele>
        <time>2013-02-08T14:14:27Z</time>
      </trkpt>
      <trkpt lat="45.30604" lon="5.74853">
        <ele>1797.595</ele>
        <time>2013-02-08T14:14:32Z</time>
      </trkpt>
      <trkpt lat="45.30598" lon="5.74863">
        <ele>1789.159</ele>
        <time>2013-02-08T14:14:38Z</time>
      </trkpt>
      <trkpt lat="45.30596" lon="5.74888">
        <ele>1777.884</ele>
        <time>2013-02-08T14:14:43Z</time>
      </trkpt>
      <trkpt lat="45.30598" lon="5.74899">
        <ele>1773.578</ele>
        <time>2013-02-08T14:14:46Z</time>
      </trkpt>
      <trkpt lat="45.30598" lon="5.74901">
        <ele>1773.279</ele>
        <time>2013-02-08T14:14:47Z</time>
      </trkpt>
      <trkpt lat="45.30599" lon="5.74901">
        <ele>1773.081</ele>
        <time>2013-02-08T14:14:53Z</time>
      </trkpt>
      <trkpt lat="45.30596" lon="5.74922">
        <ele>1772.41</ele>
        <time>2013-02-08T14:15:17Z</time>
      </trkpt>
      <trkpt lat="45.30601" lon="5.74929">
        <ele>1768.605</ele>
        <time>2013-02-08T14:15:21Z</time>
      </trkpt>
      <trkpt lat="45.3059" lon="5.74934">
        <ele>1759.584</ele>
        <time>2013-02-08T14:15:26Z</time>
      </trkpt>
      <trkpt lat="45.30581" lon="5.74939">
        <ele>1754.904</ele>
        <time>2013-02-08T14:15:29Z</time>
      </trkpt>
      <trkpt lat="45.30568" lon="5.74956">
        <ele>1748.293</ele>
        <time>2013-02-08T14:15:34Z</time>
      </trkpt>
      <trkpt lat="45.30561" lon="5.7497">
        <ele>1744.707</ele>
        <time>2013-02-08T14:15:37Z</time>
      </trkpt>
      <trkpt lat="45.30556" lon="5.74991">
        <ele>1740.017</ele>
        <time>2013-02-08T14:15:41Z</time>
      </trkpt>
      <trkpt lat="45.30555" lon="5.75002">
        <ele>1739.381</ele>
        <time>2013-02-08T14:15:43Z</time>
      </trkpt>
      <trkpt lat="45.30556" lon="5.75025">
        <ele>1737.153</ele>
        <time>2013-02-08T14:15:47Z</time>
      </trkpt>
      <trkpt lat="45.30556" lon="5.75031">
        <ele>1736.544</ele>
        <time>2013-02-08T14:15:48Z</time>
      </trkpt>
      <trkpt lat="45.30557" lon="5.75037">
        <ele>1735.177</ele>
        <time>2013-02-08T14:15:50Z</time>
      </trkpt>
      <trkpt lat="45.30562" lon="5.75053">
        <ele>1732.098</ele>
        <time>2013-02-08T14:15:57Z</time>
      </trkpt>
      <trkpt lat="45.30562" lon="5.7506">
        <ele>1730.974</ele>
        <time>2013-02-08T14:16:20Z</time>
      </trkpt>
      <trkpt lat="45.30566" lon="5.75076">
        <ele>1728.98</ele>
        <time>2013-02-08T14:16:23Z</time>
      </trkpt>
      <trkpt lat="45.3057" lon="5.75092">
        <ele>1726.044</ele>
        <time>2013-02-08T14:16:26Z</time>
      </trkpt>
      <trkpt lat="45.3057" lon="5.75117">
        <ele>1720.678</ele>
        <time>2013-02-08T14:16:31Z</time>
      </trkpt>
      <trkpt lat="45.3057" lon="5.7513">
        <ele>1718.041</ele>
        <time>2013-02-08T14:16:35Z</time>
      </trkpt>
      <trkpt lat="45.3057" lon="5.75132">
        <ele>1717.809</ele>
        <time>2013-02-08T14:16:36Z</time>
      </trkpt>
      <trkpt lat="45.30569" lon="5.75135">
        <ele>1717.197</ele>
        <time>2013-02-08T14:16:43Z</time>
      </trkpt>
      <trkpt lat="45.30555" lon="5.75137">
        <ele>1711.723</ele>
        <time>2013-02-08T14:16:48Z</time>
      </trkpt>
      <trkpt lat="45.30553" lon="5.75139">
        <ele>1710.186</ele>
        <time>2013-02-08T14:16:49Z</time>
      </trkpt>
      <trkpt lat="45.30542" lon="5.75159">
        <ele>1699.264</ele>
        <time>2013-02-08T14:16:56Z</time>
      </trkpt>
      <trkpt lat="45.30536" lon="5.75166">
        <ele>1696.397</ele>
        <time>2013-02-08T14:16:58Z</time>
      </trkpt>
      <trkpt lat="45.30534" lon="5.75181">
        <ele>1689.602</ele>
        <time>2013-02-08T14:17:02Z</time>
      </trkpt>
      <trkpt lat="45.30532" lon="5.752">
        <ele>1684.288</ele>
        <time>2013-02-08T14:17:06Z</time>
      </trkpt>
      <trkpt lat="45.30525" lon="5.75232">
        <ele>1675.045</ele>
        <time>2013-02-08T14:17:12Z</time>
      </trkpt>
      <trkpt lat="45.30524" lon="5.75233">
        <ele>1674.362</ele>
        <time>2013-02-08T14:17:14Z</time>
      </trkpt>
      <trkpt lat="45.3052" lon="5.75234">
        <ele>1673.302</ele>
        <time>2013-02-08T14:17:45Z</time>
      </trkpt>
      <trkpt lat="45.30518" lon="5.75237">
        <ele>1672.291</ele>
        <time>2013-02-08T14:17:52Z</time>
      </trkpt>
      <trkpt lat="45.30517" lon="5.75238">
        <ele>1671.918</ele>
        <time>2013-02-08T14:17:53Z</time>
      </trkpt>
      <trkpt lat="45.30505" lon="5.75252">
        <ele>1664.168</ele>
        <time>2013-02-08T14:17:59Z</time>
      </trkpt>
      <trkpt lat="45.30504" lon="5.75261">
        <ele>1658.984</ele>
        <time>2013-02-08T14:18:05Z</time>
      </trkpt>
      <trkpt lat="45.30506" lon="5.75255">
        <ele>1659.126</ele>
        <time>2013-02-08T14:18:14Z</time>
      </trkpt>
      <trkpt lat="45.305" lon="5.75256">
        <ele>1658.198</ele>
        <time>2013-02-08T14:18:23Z</time>
      </trkpt>
      <trkpt lat="45.3049" lon="5.75264">
        <ele>1655.937</ele>
        <time>2013-02-08T14:18:29Z</time>
      </trkpt>
      <trkpt lat="45.30487" lon="5.75267">
        <ele>1654.885</ele>
        <time>2013-02-08T14:18:32Z</time>
      </trkpt>
      <trkpt lat="45.30491" lon="5.75276">
        <ele>1652.116</ele>
        <time>2013-02-08T14:18:36Z</time>
      </trkpt>
      <trkpt lat="45.30494" lon="5.75282">
        <ele>1650.552</ele>
        <time>2013-02-08T14:18:39Z</time>
      </trkpt>
      <trkpt lat="45.30495" lon="5.75285">
        <ele>1650.592</ele>
        <time>2013-02-08T14:18:43Z</time>
      </trkpt>
      <trkpt lat="45.30496" lon="5.75299">
        <ele>1645.905</ele>
        <time>2013-02-08T14:18:48Z</time>
      </trkpt>
      <trkpt lat="45.30496" lon="5.75303">
        <ele>1644.746</ele>
        <time>2013-02-08T14:18:50Z</time>
      </trkpt>
      <trkpt lat="45.30491" lon="5.75332">
        <ele>1638.884</ele>
        <time>2013-02-08T14:18:55Z</time>
      </trkpt>
      <trkpt lat="45.30492" lon="5.7536">
        <ele>1629.957</ele>
        <time>2013-02-08T14:18:59Z</time>
      </trkpt>
      <trkpt lat="45.30497" lon="5.75366">
        <ele>1628.849</ele>
        <time>2013-02-08T14:19:01Z</time>
      </trkpt>
      <trkpt lat="45.305" lon="5.75366">
        <ele>1628.061</ele>
        <time>2013-02-08T14:19:03Z</time>
      </trkpt>
      <trkpt lat="45.30502" lon="5.7538">
        <ele>1626.24</ele>
        <time>2013-02-08T14:19:08Z</time>
      </trkpt>
      <trkpt lat="45.305" lon="5.75383">
        <ele>1625.826</ele>
        <time>2013-02-08T14:19:14Z</time>
      </trkpt>
      <trkpt lat="45.305" lon="5.75381">
        <ele>1625.561</ele>
        <time>2013-02-08T14:19:44Z</time>
      </trkpt>
      <trkpt lat="45.305" lon="5.754">
        <ele>1620.364</ele>
        <time>2013-02-08T14:19:49Z</time>
      </trkpt>
      <trkpt lat="45.30498" lon="5.75419">
        <ele>1614.335</ele>
        <time>2013-02-08T14:19:53Z</time>
      </trkpt>
      <trkpt lat="45.30497" lon="5.75445">
        <ele>1608.087</ele>
        <time>2013-02-08T14:19:58Z</time>
      </trkpt>
      <trkpt lat="45.30502" lon="5.75465">
        <ele>1603.485</ele>
        <time>2013-02-08T14:20:02Z</time>
      </trkpt>
      <trkpt lat="45.3051" lon="5.7549">
        <ele>1596.176</ele>
        <time>2013-02-08T14:20:07Z</time>
      </trkpt>
      <trkpt lat="45.30513" lon="5.75508">
        <ele>1592.587</ele>
        <time>2013-02-08T14:20:11Z</time>
      </trkpt>
      <trkpt lat="45.30518" lon="5.75526">
        <ele>1587.462</ele>
        <time>2013-02-08T14:20:15Z</time>
      </trkpt>
      <trkpt lat="45.30523" lon="5.75537">
        <ele>1584.76</ele>
        <time>2013-02-08T14:20:17Z</time>
      </trkpt>
      <trkpt lat="45.30542" lon="5.75561">
        <ele>1578.44</ele>
        <time>2013-02-08T14:20:22Z</time>
      </trkpt>
      <trkpt lat="45.30542" lon="5.75567">
        <ele>1577.21</ele>
        <time>2013-02-08T14:20:24Z</time>
      </trkpt>
      <trkpt lat="45.30549" lon="5.75577">
        <ele>1575.416</ele>
        <time>2013-02-08T14:20:27Z</time>
      </trkpt>
      <trkpt lat="45.30556" lon="5.75598">
        <ele>1567.439</ele>
        <time>2013-02-08T14:20:33Z</time>
      </trkpt>
      <trkpt lat="45.30559" lon="5.75615">
        <ele>1562.444</ele>
        <time>2013-02-08T14:20:38Z</time>
      </trkpt>
      <trkpt lat="45.30561" lon="5.75625">
        <ele>1560.113</ele>
        <time>2013-02-08T14:20:40Z</time>
      </trkpt>
      <trkpt lat="45.30559" lon="5.75631">
        <ele>1559.09</ele>
        <time>2013-02-08T14:20:42Z</time>
      </trkpt>
      <trkpt lat="45.30559" lon="5.75639">
        <ele>1558.073</ele>
        <time>2013-02-08T14:20:46Z</time>
      </trkpt>
      <trkpt lat="45.3056" lon="5.75638">
        <ele>1557.949</ele>
        <time>2013-02-08T14:20:47Z</time>
      </trkpt>
      <trkpt lat="45.30558" lon="5.75641">
        <ele>1556.967</ele>
        <time>2013-02-08T14:20:49Z</time>
      </trkpt>
      <trkpt lat="45.30561" lon="5.75658">
        <ele>1550.831</ele>
        <time>2013-02-08T14:20:53Z</time>
      </trkpt>
      <trkpt lat="45.30572" lon="5.75675">
        <ele>1546.294</ele>
        <time>2013-02-08T14:20:57Z</time>
      </trkpt>
      <trkpt lat="45.30574" lon="5.75682">
        <ele>1545.268</ele>
        <time>2013-02-08T14:21:01Z</time>
      </trkpt>
      <trkpt lat="45.30575" lon="5.75693">
        <ele>1544.081</ele>
        <time>2013-02-08T14:21:56Z</time>
      </trkpt>
      <trkpt lat="45.30576" lon="5.75695">
        <ele>1543.838</ele>
        <time>2013-02-08T14:21:57Z</time>
      </trkpt>
      <trkpt lat="45.30577" lon="5.75714">
        <ele>1538.959</ele>
        <time>2013-02-08T14:22:01Z</time>
      </trkpt>
      <trkpt lat="45.30577" lon="5.75719">
        <ele>1537.979</ele>
        <time>2013-02-08T14:22:03Z</time>
      </trkpt>
      <trkpt lat="45.30583" lon="5.75731">
        <ele>1536.19</ele>
        <time>2013-02-08T14:22:07Z</time>
      </trkpt>
      <trkpt lat="45.3059" lon="5.75747">
        <ele>1531.578</ele>
        <time>2013-02-08T14:22:13Z</time>
      </trkpt>
      <trkpt lat="45.30598" lon="5.75761">
        <ele>1529.161</ele>
        <time>2013-02-08T14:22:17Z</time>
      </trkpt>
      <trkpt lat="45.30598" lon="5.75778">
        <ele>1526.023</ele>
        <time>2013-02-08T14:22:22Z</time>
      </trkpt>
      <trkpt lat="45.30597" lon="5.7578">
        <ele>1525.78</ele>
        <time>2013-02-08T14:22:23Z</time>
      </trkpt>
      <trkpt lat="45.30596" lon="5.75789">
        <ele>1521.734</ele>
        <time>2013-02-08T14:22:28Z</time>
      </trkpt>
      <trkpt lat="45.30598" lon="5.75794">
        <ele>1518.69</ele>
        <time>2013-02-08T14:22:33Z</time>
      </trkpt>
      <trkpt lat="45.30596" lon="5.75798">
        <ele>1516.529</ele>
        <time>2013-02-08T14:22:36Z</time>
      </trkpt>
      <trkpt lat="45.30592" lon="5.75799">
        <ele>1512.502</ele>
        <time>2013-02-08T14:22:40Z</time>
      </trkpt>
      <trkpt lat="45.30589" lon="5.75801">
        <ele>1510.612</ele>
        <time>2013-02-08T14:22:46Z</time>
      </trkpt>
      <trkpt lat="45.30591" lon="5.758">
        <ele>1511.297</ele>
        <time>2013-02-08T14:22:51Z</time>
      </trkpt>
      <trkpt lat="45.3059" lon="5.75801">
        <ele>1510.291</ele>
        <time>2013-02-08T14:22:53Z</time>
      </trkpt>
      <trkpt lat="45.3059" lon="5.758">
        <ele>1508.749</ele>
        <time>2013-02-08T14:22:56Z</time>
      </trkpt>
      <trkpt lat="45.30591" lon="5.75798">
        <ele>1509.012</ele>
        <time>2013-02-08T14:22:57Z</time>
      </trkpt>
      <trkpt lat="45.30593" lon="5.75796">
        <ele>1509.832</ele>
        <time>2013-02-08T14:23:04Z</time>
      </trkpt>
      <trkpt lat="45.30585" lon="5.75806">
        <ele>1508.024</ele>
        <time>2013-02-08T14:23:18Z</time>
      </trkpt>
      <trkpt lat="45.30585" lon="5.75811">
        <ele>1507.457</ele>
        <time>2013-02-08T14:23:20Z</time>
      </trkpt>
      <trkpt lat="45.30588" lon="5.75827">
        <ele>1501.75</ele>
        <time>2013-02-08T14:23:25Z</time>
      </trkpt>
      <trkpt lat="45.30589" lon="5.75818">
        <ele>1501.267</ele>
        <time>2013-02-08T14:23:30Z</time>
      </trkpt>
      <trkpt lat="45.30583" lon="5.75821">
        <ele>1500.303</ele>
        <time>2013-02-08T14:23:37Z</time>
      </trkpt>
      <trkpt lat="45.30587" lon="5.75837">
        <ele>1499.802</ele>
        <time>2013-02-08T14:23:41Z</time>
      </trkpt>
      <trkpt lat="45.30597" lon="5.75849">
        <ele>1496.603</ele>
        <time>2013-02-08T14:23:44Z</time>
      </trkpt>
      <trkpt lat="45.30615" lon="5.75874">
        <ele>1486.996</ele>
        <time>2013-02-08T14:23:50Z</time>
      </trkpt>
      <trkpt lat="45.30631" lon="5.75885">
        <ele>1484.202</ele>
        <time>2013-02-08T14:23:55Z</time>
      </trkpt>
      <trkpt lat="45.30637" lon="5.7589">
        <ele>1483.617</ele>
        <time>2013-02-08T14:24:00Z</time>
      </trkpt>
      <trkpt lat="45.30642" lon="5.75892">
        <ele>1483.411</ele>
        <time>2013-02-08T14:24:06Z</time>
      </trkpt>
      <trkpt lat="45.30648" lon="5.75893">
        <ele>1482.663</ele>
        <time>2013-02-08T14:24:11Z</time>
      </trkpt>
      <trkpt lat="45.30652" lon="5.75894">
        <ele>1482.237</ele>
        <time>2013-02-08T14:24:15Z</time>
      </trkpt>
      <trkpt lat="45.30659" lon="5.759">
        <ele>1480.877</ele>
        <time>2013-02-08T14:24:18Z</time>
      </trkpt>
      <trkpt lat="45.30672" lon="5.75923">
        <ele>1476.16</ele>
        <time>2013-02-08T14:24:23Z</time>
      </trkpt>
      <trkpt lat="45.30679" lon="5.75936">
        <ele>1474.536</ele>
        <time>2013-02-08T14:24:25Z</time>
      </trkpt>
      <trkpt lat="45.30699" lon="5.75961">
        <ele>1468.216</ele>
        <time>2013-02-08T14:24:30Z</time>
      </trkpt>
      <trkpt lat="45.30704" lon="5.75967">
        <ele>1467.302</ele>
        <time>2013-02-08T14:24:32Z</time>
      </trkpt>
      <trkpt lat="45.30703" lon="5.75962">
        <ele>1465.981</ele>
        <time>2013-02-08T14:24:34Z</time>
      </trkpt>
      <trkpt lat="45.30696" lon="5.75973">
        <ele>1459.284</ele>
        <time>2013-02-08T14:24:39Z</time>
      </trkpt>
      <trkpt lat="45.30695" lon="5.75973">
        <ele>1459.236</ele>
        <time>2013-02-08T14:24:40Z</time>
      </trkpt>
      <trkpt lat="45.30695" lon="5.75972">
        <ele>1459.014</ele>
        <time>2013-02-08T14:24:43Z</time>
      </trkpt>
      <trkpt lat="45.30693" lon="5.75983">
        <ele>1454.324</ele>
        <time>2013-02-08T14:24:47Z</time>
      </trkpt>
      <trkpt lat="45.30692" lon="5.75992">
        <ele>1451.114</ele>
        <time>2013-02-08T14:24:51Z</time>
      </trkpt>
      <trkpt lat="45.30688" lon="5.75995">
        <ele>1449.939</ele>
        <time>2013-02-08T14:24:57Z</time>
      </trkpt>
      <trkpt lat="45.30686" lon="5.75995">
        <ele>1449.435</ele>
        <time>2013-02-08T14:25:00Z</time>
      </trkpt>
      <trkpt lat="45.30684" lon="5.75995">
        <ele>1448.156</ele>
        <time>2013-02-08T14:25:03Z</time>
      </trkpt>
      <trkpt lat="45.30685" lon="5.75997">
        <ele>1447.784</ele>
        <time>2013-02-08T14:25:05Z</time>
      </trkpt>
      <trkpt lat="45.30675" lon="5.76005">
        <ele>1444.794</ele>
        <time>2013-02-08T14:25:09Z</time>
      </trkpt>
      <trkpt lat="45.30667" lon="5.76021">
        <ele>1439.205</ele>
        <time>2013-02-08T14:25:15Z</time>
      </trkpt>
      <trkpt lat="45.30665" lon="5.76035">
        <ele>1430.893</ele>
        <time>2013-02-08T14:25:21Z</time>
      </trkpt>
      <trkpt lat="45.3067" lon="5.76038">
        <ele>1428.854</ele>
        <time>2013-02-08T14:25:30Z</time>
      </trkpt>
      <trkpt lat="45.30671" lon="5.76038">
        <ele>1428.077</ele>
        <time>2013-02-08T14:25:34Z</time>
      </trkpt>
      <trkpt lat="45.30667" lon="5.76047">
        <ele>1424.367</ele>
        <time>2013-02-08T14:25:38Z</time>
      </trkpt>
      <trkpt lat="45.30672" lon="5.76055">
        <ele>1419.81</ele>
        <time>2013-02-08T14:25:42Z</time>
      </trkpt>
      <trkpt lat="45.30681" lon="5.76062">
        <ele>1418.948</ele>
        <time>2013-02-08T14:26:02Z</time>
      </trkpt>
      <trkpt lat="45.30684" lon="5.76066">
        <ele>1417.794</ele>
        <time>2013-02-08T14:26:06Z</time>
      </trkpt>
      <trkpt lat="45.30691" lon="5.76071">
        <ele>1416.531</ele>
        <time>2013-02-08T14:26:13Z</time>
      </trkpt>
      <trkpt lat="45.30697" lon="5.76086">
        <ele>1413.578</ele>
        <time>2013-02-08T14:26:17Z</time>
      </trkpt>
      <trkpt lat="45.307" lon="5.7609">
        <ele>1412.503</ele>
        <time>2013-02-08T14:26:19Z</time>
      </trkpt>
      <trkpt lat="45.307" lon="5.76094">
        <ele>1411.695</ele>
        <time>2013-02-08T14:26:20Z</time>
      </trkpt>
      <trkpt lat="45.30692" lon="5.76102">
        <ele>1406.008</ele>
        <time>2013-02-08T14:26:26Z</time>
      </trkpt>
      <trkpt lat="45.30689" lon="5.76108">
        <ele>1404.141</ele>
        <time>2013-02-08T14:26:31Z</time>
      </trkpt>
      <trkpt lat="45.30688" lon="5.76113">
        <ele>1404.108</ele>
        <time>2013-02-08T14:26:34Z</time>
      </trkpt>
      <trkpt lat="45.30693" lon="5.76124">
        <ele>1403.247</ele>
        <time>2013-02-08T14:26:38Z</time>
      </trkpt>
      <trkpt lat="45.307" lon="5.7614">
        <ele>1401.694</ele>
        <time>2013-02-08T14:26:41Z</time>
      </trkpt>
      <trkpt lat="45.3072" lon="5.76167">
        <ele>1396.549</ele>
        <time>2013-02-08T14:26:46Z</time>
      </trkpt>
      <trkpt lat="45.30731" lon="5.76184">
        <ele>1391.76</ele>
        <time>2013-02-08T14:26:50Z</time>
      </trkpt>
      <trkpt lat="45.3073" lon="5.76185">
        <ele>1389.817</ele>
        <time>2013-02-08T14:26:53Z</time>
      </trkpt>
      <trkpt lat="45.30728" lon="5.76182">
        <ele>1389.925</ele>
        <time>2013-02-08T14:27:19Z</time>
      </trkpt>
      <trkpt lat="45.30723" lon="5.76184">
        <ele>1390.007</ele>
        <time>2013-02-08T14:27:23Z</time>
      </trkpt>
      <trkpt lat="45.30734" lon="5.76195">
        <ele>1388.185</ele>
        <time>2013-02-08T14:27:27Z</time>
      </trkpt>
      <trkpt lat="45.3075" lon="5.76217">
        <ele>1383.228</ele>
        <time>2013-02-08T14:27:32Z</time>
      </trkpt>
      <trkpt lat="45.30762" lon="5.76229">
        <ele>1380.783</ele>
        <time>2013-02-08T14:27:35Z</time>
      </trkpt>
      <trkpt lat="45.30772" lon="5.7625">
        <ele>1377.965</ele>
        <time>2013-02-08T14:27:39Z</time>
      </trkpt>
      <trkpt lat="45.30779" lon="5.76262">
        <ele>1375.237</ele>
        <time>2013-02-08T14:27:41Z</time>
      </trkpt>
      <trkpt lat="45.30792" lon="5.76295">
        <ele>1371.491</ele>
        <time>2013-02-08T14:27:47Z</time>
      </trkpt>
      <trkpt lat="45.30799" lon="5.76313">
        <ele>1369.309</ele>
        <time>2013-02-08T14:27:51Z</time>
      </trkpt>
      <trkpt lat="45.30806" lon="5.76324">
        <ele>1367.729</ele>
        <time>2013-02-08T14:27:53Z</time>
      </trkpt>
      <trkpt lat="45.30819" lon="5.76351">
        <ele>1364.818</ele>
        <time>2013-02-08T14:27:57Z</time>
      </trkpt>
      <trkpt lat="45.30829" lon="5.76395">
        <ele>1360.471</ele>
        <time>2013-02-08T14:28:02Z</time>
      </trkpt>
      <trkpt lat="45.30837" lon="5.76423">
        <ele>1355.953</ele>
        <time>2013-02-08T14:28:05Z</time>
      </trkpt>
      <trkpt lat="45.30848" lon="5.76462">
        <ele>1349.217</ele>
        <time>2013-02-08T14:28:09Z</time>
      </trkpt>
      <trkpt lat="45.30843" lon="5.76492">
        <ele>1343.378</ele>
        <time>2013-02-08T14:28:13Z</time>
      </trkpt>
      <trkpt lat="45.30828" lon="5.76511">
        <ele>1341.993</ele>
        <time>2013-02-08T14:28:15Z</time>
      </trkpt>
      <trkpt lat="45.30816" lon="5.76526">
        <ele>1341.172</ele>
        <time>2013-02-08T14:28:17Z</time>
      </trkpt>
      <trkpt lat="45.30803" lon="5.76547">
        <ele>1339.568</ele>
        <time>2013-02-08T14:28:20Z</time>
      </trkpt>
      <trkpt lat="45.30801" lon="5.76584">
        <ele>1334.978</ele>
        <time>2013-02-08T14:28:24Z</time>
      </trkpt>
      <trkpt lat="45.30801" lon="5.76601">
        <ele>1329.249</ele>
        <time>2013-02-08T14:28:27Z</time>
      </trkpt>
      <trkpt lat="45.30798" lon="5.76628">
        <ele>1322.672</ele>
        <time>2013-02-08T14:28:30Z</time>
      </trkpt>
      <trkpt lat="45.30804" lon="5.76652">
        <ele>1316.235</ele>
        <time>2013-02-08T14:28:33Z</time>
      </trkpt>
      <trkpt lat="45.30806" lon="5.76673">
        <ele>1311.598</ele>
        <time>2013-02-08T14:28:36Z</time>
      </trkpt>
      <trkpt lat="45.30816" lon="5.76713">
        <ele>1305.027</ele>
        <time>2013-02-08T14:28:41Z</time>
      </trkpt>
      <trkpt lat="45.30833" lon="5.7674">
        <ele>1300.807</ele>
        <time>2013-02-08T14:28:46Z</time>
      </trkpt>
      <trkpt lat="45.30853" lon="5.76767">
        <ele>1295.622</ele>
        <time>2013-02-08T14:28:52Z</time>
      </trkpt>
      <trkpt lat="45.30857" lon="5.76769">
        <ele>1295.266</ele>
        <time>2013-02-08T14:28:53Z</time>
      </trkpt>
      <trkpt lat="45.30874" lon="5.76787">
        <ele>1293.239</ele>
        <time>2013-02-08T14:28:57Z</time>
      </trkpt>
      <trkpt lat="45.30882" lon="5.76796">
        <ele>1289.83</ele>
        <time>2013-02-08T14:28:59Z</time>
      </trkpt>
      <trkpt lat="45.309" lon="5.76805">
        <ele>1283.678</ele>
        <time>2013-02-08T14:29:04Z</time>
      </trkpt>
      <trkpt lat="45.30902" lon="5.76804">
        <ele>1282.931</ele>
        <time>2013-02-08T14:29:06Z</time>
      </trkpt>
      <trkpt lat="45.30902" lon="5.76804">
        <ele>1282.63</ele>
        <time>2013-02-08T14:29:07Z</time>
      </trkpt>
      <trkpt lat="45.30904" lon="5.76818">
        <ele>1282.55</ele>
        <time>2013-02-08T14:29:11Z</time>
      </trkpt>
      <trkpt lat="45.30907" lon="5.76829">
        <ele>1280.365</ele>
        <time>2013-02-08T14:29:13Z</time>
      </trkpt>
      <trkpt lat="45.30914" lon="5.76846">
        <ele>1274.198</ele>
        <time>2013-02-08T14:29:17Z</time>
      </trkpt>
      <trkpt lat="45.30915" lon="5.76848">
        <ele>1274.196</ele>
        <time>2013-02-08T14:29:18Z</time>
      </trkpt>
      <trkpt lat="45.30915" lon="5.7685">
        <ele>1273.884</ele>
        <time>2013-02-08T14:29:19Z</time>
      </trkpt>
      <trkpt lat="45.30913" lon="5.76857">
        <ele>1268.366</ele>
        <time>2013-02-08T14:29:25Z</time>
      </trkpt>
      <trkpt lat="45.30912" lon="5.76858">
        <ele>1268.434</ele>
        <time>2013-02-08T14:29:27Z</time>
      </trkpt>
      <trkpt lat="45.30917" lon="5.76866">
        <ele>1264.198</ele>
        <time>2013-02-08T14:29:31Z</time>
      </trkpt>
      <trkpt lat="45.30926" lon="5.76876">
        <ele>1258.803</ele>
        <time>2013-02-08T14:29:35Z</time>
      </trkpt>
      <trkpt lat="45.30932" lon="5.76887">
        <ele>1256.743</ele>
        <time>2013-02-08T14:29:38Z</time>
      </trkpt>
      <trkpt lat="45.30937" lon="5.769">
        <ele>1253.166</ele>
        <time>2013-02-08T14:29:41Z</time>
      </trkpt>
      <trkpt lat="45.30943" lon="5.76928">
        <ele>1246.965</ele>
        <time>2013-02-08T14:29:45Z</time>
      </trkpt>
      <trkpt lat="45.30952" lon="5.76946">
        <ele>1244.999</ele>
        <time>2013-02-08T14:29:48Z</time>
      </trkpt>
      <trkpt lat="45.30952" lon="5.76948">
        <ele>1243.774</ele>
        <time>2013-02-08T14:29:51Z</time>
      </trkpt>
      <trkpt lat="45.30954" lon="5.76944">
        <ele>1243.578</ele>
        <time>2013-02-08T14:29:58Z</time>
      </trkpt>
      <trkpt lat="45.30962" lon="5.76932">
        <ele>1242.661</ele>
        <time>2013-02-08T14:30:06Z</time>
      </trkpt>
      <trkpt lat="45.30969" lon="5.76931">
        <ele>1241.574</ele>
        <time>2013-02-08T14:30:12Z</time>
      </trkpt>
      <trkpt lat="45.30983" lon="5.76942">
        <ele>1241.041</ele>
        <time>2013-02-08T14:30:21Z</time>
      </trkpt>
      <trkpt lat="45.30991" lon="5.76954">
        <ele>1240.715</ele>
        <time>2013-02-08T14:30:27Z</time>
      </trkpt>
      <trkpt lat="45.30994" lon="5.76962">
        <ele>1239.463</ele>
        <time>2013-02-08T14:30:30Z</time>
      </trkpt>
      <trkpt lat="45.30994" lon="5.76967">
        <ele>1239.628</ele>
        <time>2013-02-08T14:30:34Z</time>
      </trkpt>
      <trkpt lat="45.30994" lon="5.76962">
        <ele>1239.567</ele>
        <time>2013-02-08T14:30:44Z</time>
      </trkpt>
      <trkpt lat="45.31001" lon="5.7696">
        <ele>1238.415</ele>
        <time>2013-02-08T14:31:04Z</time>
      </trkpt>
      <trkpt lat="45.31" lon="5.76961">
        <ele>1240.511</ele>
        <time>2013-02-08T14:31:07Z</time>
      </trkpt>
      <trkpt lat="45.31" lon="5.76966">
        <ele>1239.704</ele>
        <time>2013-02-08T14:31:27Z</time>
      </trkpt>
      <trkpt lat="45.31001" lon="5.76969">
        <ele>1239.076</ele>
        <time>2013-02-08T14:31:31Z</time>
      </trkpt>
      <trkpt lat="45.31004" lon="5.76972">
        <ele>1238.55</ele>
        <time>2013-02-08T14:31:35Z</time>
      </trkpt>
      <trkpt lat="45.31004" lon="5.76979">
        <ele>1237.455</ele>
        <time>2013-02-08T14:31:43Z</time>
      </trkpt>
      <trkpt lat="45.31003" lon="5.76983">
        <ele>1237.387</ele>
        <time>2013-02-08T14:32:17Z</time>
      </trkpt>
    </trkseg>
  </trk>
</gpx>